[[{"header":{"parameterUnit":"m.s-1","parameterCategory":1,"la1":31.0,"la2":29.5877,"lo1":-88.7671,"lo2":-86.6584,"dy":0.0162,"dx":0.0185,"nx":115,"ny":88,"refTime":"2026-04-14T00:00:00:Z","depth":0,"parameterNumber":2,"parameterNumberName":"U-component_of_WINDS"},"data":[0.0,0.0,0.0,0.0,0.0,0.0,0.0,0.0,0.0,0.0,0.0,0.0,0.0,0.0,0.0,0.0,0.0,0.0,0.0,0.0,0.0,0.0,0.0,0.0,0.0,0.0,0.0,0.0,0.0,0.0,0.0,0.0,0.0,0.0,0.0,0.0,0.0,0.0,0.0,0.0,0.0,0.0,0.0,0.0,0.0,0.0,0.0,0.0,0.0,0.0,0.0,0.0,0.0,0.0,0.0,0.0,0.0,0.0,0.0,0.0,0.0,0.0,0.0,0.0,0.0,0.0,0.0,0.0,0.0,0.0,0.0,0.0,0.0,0.0,0.0,0.0,0.0,0.0,0.0,0.0,0.0,0.0,0.0,0.0,0.0,0.0,0.0,0.0,0.0,0.0,0.0,0.0,0.0,0.0,0.0,0.0,0.0,0.0,0.0,0.0,0.0,0.0,0.0,0.0,0.0,0.0,0.0,0.0,0.0,0.0,0.0,0.0,0.0,0.0,0.0,0.0,0.0,0.0,0.0,0.0,0.0,0.0,0.0,0.0,0.0,0.0,0.0,0.0,0.0,0.0,0.0,0.0,0.0,0.0,0.0,0.0,0.0,0.0,0.0,0.0,0.0,0.0,0.0,0.0,0.0,0.0,0.0,0.0,0.0,0.0,0.0,0.0,0.0,0.0,0.0,0.0,0.0,0.0,0.0,0.0,0.0,0.0,0.0,0.0,0.0,0.0,0.0,0.0,0.0,0.0,0.0,0.0,0.0,0.0,0.0,0.0,0.0,0.0,0.0,0.0,0.0,0.0,0.0,0.0,0.0,0.0,0.0,0.0,0.0,0.0,0.0,0.0,0.0,0.0,0.0,0.0,0.0,0.0,0.0,0.0,0.0,0.0,0.0,0.0,0.0,0.0,0.0,0.0,0.0,0.0,0.0,0.0,0.0,0.0,0.0,0.0,0.0,0.0,0.0,0.0,0.0,0.0,0.0,0.0,0.0,0.0,0.0,0.0,0.0,0.0,0.0,0.0,0.0,0.0,0.0,0.0,0.0,0.0,0.0,0.0,0.0,0.0,0.0,0.0,0.0,0.0,0.0,0.0,0.0,0.0,0.0,0.0,0.0,0.0,0.0,0.0,0.0,0.0,0.0,0.0,0.0,0.0,0.0,0.0,0.0,0.0,0.0,0.0,0.0,0.0,0.0,0.0,0.0,0.0,0.0,0.0,0.0,0.0,0.0,0.0,0.0,0.0,0.0,0.0,0.0,0.0,0.0,0.0,0.0,0.0,0.0,0.0,0.0,0.0,0.0,0.0,0.0,0.0,0.0,0.0,0.0,0.0,0.0,0.0,0.0,0.0,0.0,0.0,0.0,0.0,0.0,0.0,0.0,0.0,0.0,0.0,0.0,0.0,0.0,0.0,0.0,0.0,0.0,0.0,0.0,0.0,0.0,0.0,0.0,0.0,0.0,0.0,0.0,0.0,0.0,0.0,0.0,0.0,0.0,0.0,0.0,0.0,0.0,0.0,0.0,0.0,0.0,0.0,0.0,0.0,0.0,0.0,0.0,0.0,0.0,0.0,0.0,0.0,0.0,0.0,0.0,0.0,0.0,0.0,0.0,0.0,0.0,0.0,0.0,0.0,0.0,0.0,0.0,0.0,0.0,0.0,0.0,0.0,0.0,0.0,0.0,0.0,0.0,0.0,0.0,0.0,0.0,0.0,0.0,0.0,0.0,0.0,0.0,0.0,0.0,0.0,0.0,0.0,0.0,0.0,0.0,0.0,0.0,0.0,0.0,0.0,0.0,0.0,0.0,0.0,0.0,0.0,0.0,0.0,0.0,0.0,0.0,0.0,0.0,0.0,0.0,0.0,0.0,0.0,0.0,0.0,0.0,0.0,0.0,0.0,0.0,0.0,0.0,0.0,0.0,0.0,0.0,0.0,0.0,0.0,0.0,0.0,0.0,0.0,0.0,0.0,0.0,0.0,0.0,0.0,0.0,0.0,0.0,0.0,0.0,0.0,0.0,0.0,0.0,0.0,0.0,0.0,0.0,0.0,0.0,0.0,0.0,0.0,0.0,0.0,0.0,0.0,0.0,0.0,0.0,0.0,0.0,0.0,0.0,0.0,0.0,0.0,0.0,0.0,0.0,0.0,0.0,0.0,0.0,0.0,0.0,0.0,0.0,0.0,0.0,0.0,0.0,0.0,0.0,0.0,0.0,0.0,0.0,0.0,0.0,0.0,0.0,0.0,0.0,0.0,0.0,0.0,0.0,0.0,0.0,0.0,0.0,0.0,0.0,0.0,0.0,0.0,0.0,0.0,0.0,0.0,0.0,0.0,0.0,0.0,0.0,0.0,0.0,0.0,0.0,0.0,0.0,0.0,0.0,0.0,0.0,0.0,0.0,0.0,0.0,0.0,0.0,0.0,0.0,0.0,0.0,0.0,0.0,0.0,0.0,0.0,0.0,0.0,0.0,0.0,0.0,0.0,0.0,0.0,0.0,0.0,0.0,0.0,0.0,0.0,0.0,0.0,0.0,0.0,0.0,0.0,0.0,0.0,0.0,0.0,0.0,0.0,0.0,0.0,0.0,0.0,0.0,0.0,0.0,0.0,0.0,0.0,0.0,0.0,0.0,0.0,0.0,0.0,0.0,0.0,0.0,0.0,0.0,0.0,0.0,0.0,0.0,0.0,0.0,0.0,0.0,0.0,0.0,0.0,0.0,0.0,0.0,0.0,0.0,0.0,0.0,0.0,0.0,0.0,0.0,0.0,0.0,0.0,0.0,0.0,0.0,0.0,0.0,0.0,0.0,0.0,0.0,0.0,0.0,0.0,0.0,0.0,0.0,0.0,0.0,0.0,0.0,0.0,0.0,0.0,0.0,0.0,0.0,0.0,0.0,0.0,0.0,0.0,0.0,0.0,0.0,0.0,0.0,0.0,0.0,0.0,0.0,0.0,0.0,0.0,0.0,0.0,0.0,0.0,0.0,0.0,0.0,0.0,0.0,0.0,0.0,0.0,0.0,0.0,0.0,0.0,0.0,0.0,0.0,0.0,0.0,0.0,0.0,0.0,0.0,0.0,0.0,0.0,0.0,0.0,0.0,0.0,0.0,0.0,0.0,0.0,0.0,0.0,0.0,0.0,0.0,0.0,0.0,0.0,0.0,0.0,0.0,0.0,0.0,0.0,0.0,0.0,0.0,0.0,0.0,0.0,0.0,0.0,0.0,0.0,0.0,0.0,0.0,0.0,0.0,0.0,0.0,0.0,0.0,0.0,0.0,0.0,0.0,0.0,0.0,0.0,0.0,0.0,0.0,0.0,0.0,0.0,0.0,0.0,0.0,0.0,0.0,0.0,0.0,0.0,0.0,0.0,0.0,0.0,0.0,0.0,0.0,0.0,0.0,0.0,0.0,0.0,0.0,0.0,0.0,0.0,0.0,0.0,0.0,0.0,0.0,0.0,0.0,0.0,0.0,0.0,0.0,0.0,0.0,0.0,0.0,0.0,0.0,0.0,0.0,0.0,0.0,0.0,0.0,0.0,0.0,0.0,0.0,0.0,0.0,0.0,0.0,0.0,0.0,0.0,0.0,0.0,0.0,0.0,0.0,0.0,0.0,0.0,0.0,0.0,0.0,0.0,0.0,0.0,0.0,0.0,0.0,0.0,0.0,0.0,0.0,0.0,0.0,0.0,0.0,0.0,0.0,0.0,0.0,0.0,0.0,0.0,0.0,0.0,0.0,0.0,0.0,0.0,0.0,0.0,0.0,0.0,0.0,0.0,0.0,0.0,0.0,0.0,0.0,0.0,0.0,0.0,0.0,0.0,0.0,0.0,0.0,0.0,0.0,0.0,0.0,0.0,0.0,0.0,0.0,0.0,0.0,0.0,0.0,0.0,0.0,0.0,0.0,0.0,0.0,0.0,0.0,0.0,0.0,0.0,0.0,0.0,0.0,0.0,0.0,0.0,0.0,0.0,0.0,0.0,0.0,0.0,0.0,0.0,0.0,0.0,0.0,0.0,0.0,0.0,0.0,0.0,0.0,0.0,0.0,0.0,0.0,0.0,0.0,0.0,0.0,0.0,0.0,0.0,0.0,0.0,0.0,0.0,0.0,0.0,0.0,0.0,0.0,0.0,0.0,0.0,0.0,0.0,0.0,0.0,0.0,0.0,0.0,0.0,0.0,0.0,0.0,0.0,0.0,0.0,0.0,0.0,0.0,0.0,0.0,0.0,0.0,0.0,0.0,0.0,0.0,0.0,0.0,0.0,0.0,0.0,-0.8919,0.0,0.0,0.0,0.0,0.0,0.0,0.0,0.0,0.0,0.0,0.0,0.0,0.0,0.0,0.0,0.0,0.0,0.0,0.0,0.0,0.0,0.0,0.0,0.0,0.0,0.0,0.0,0.0,0.0,0.0,0.0,0.0,0.0,0.0,0.0,0.0,0.0,0.0,0.0,0.0,0.0,0.0,0.0,0.0,0.0,0.0,0.0,0.0,0.0,0.0,0.0,0.0,0.0,0.0,0.0,0.0,0.0,0.0,0.0,0.0,0.0,0.0,0.0,0.0,0.0,0.0,0.0,0.0,0.0,0.0,0.0,0.0,0.0,0.0,0.0,0.0,0.0,0.0,0.0,0.0,0.0,0.0,0.0,0.0,0.0,0.0,0.0,0.0,0.0,0.0,0.0,0.0,0.0,0.0,0.0,0.0,0.0,0.0,0.0,0.0,0.0,0.0,0.0,0.0,0.0,0.0,0.0,0.0,0.0,0.0,-0.8968,-0.8919,-0.8919,-0.8919,-0.8919,0.0,0.0,0.0,0.0,0.0,0.0,0.0,0.0,0.0,0.0,0.0,0.0,0.0,0.0,0.0,0.0,0.0,0.0,0.0,0.0,0.0,0.0,0.0,0.0,0.0,0.0,0.0,0.0,0.0,0.0,0.0,0.0,0.0,0.0,0.0,0.0,0.0,0.0,0.0,0.0,0.0,0.0,0.0,0.0,0.0,0.0,0.0,0.0,0.0,0.0,0.0,0.0,0.0,0.0,0.0,0.0,0.0,0.0,0.0,0.0,0.0,0.0,0.0,0.0,0.0,0.0,0.0,0.0,0.0,0.0,0.0,0.0,0.0,0.0,0.0,0.0,0.0,0.0,0.0,0.0,0.0,0.0,0.0,0.0,0.0,0.0,0.0,0.0,0.0,0.0,0.0,0.0,0.0,0.0,0.0,0.0,0.0,0.0,0.0,0.0,0.0,0.0,0.0,0.0,0.0,0.0,0.0,0.0,0.0,0.0,0.0,0.0,-0.9145,-0.9151,-0.9145,0.0,0.0,0.0,0.0,0.0,0.0,0.0,0.0,0.0,0.0,0.0,0.0,0.0,0.0,0.0,0.0,0.0,0.0,0.0,0.0,0.0,0.0,0.0,0.0,0.0,0.0,0.0,0.0,0.0,0.0,0.0,0.0,0.0,0.0,0.0,0.0,0.0,0.0,0.0,0.0,0.0,0.0,0.0,0.0,0.0,0.0,0.0,0.0,0.0,0.0,0.0,0.0,0.0,0.0,0.0,0.0,0.0,0.0,0.0,0.0,0.0,0.0,0.0,0.0,0.0,0.0,0.0,0.0,0.0,0.0,0.0,0.0,0.0,0.0,0.0,0.0,0.0,0.0,0.0,0.0,0.0,0.0,0.0,0.0,0.0,0.0,0.0,0.0,0.0,0.0,0.0,0.0,0.0,0.0,0.0,0.0,0.0,0.0,0.0,0.0,0.0,0.0,0.0,0.0,0.0,0.0,0.0,0.0,0.0,0.0,-0.9218,-0.9866,-0.9899,0.0,-0.9899,0.0,0.0,0.0,0.0,0.0,0.0,0.0,0.0,0.0,0.0,0.0,0.0,0.0,0.0,0.0,0.0,0.0,0.0,0.0,0.0,0.0,0.0,0.0,0.0,0.0,0.0,0.0,0.0,0.0,0.0,0.0,0.0,0.0,0.0,0.0,0.0,0.0,0.0,0.0,0.0,0.0,0.0,0.0,0.0,0.0,0.0,0.0,0.0,0.0,0.0,0.0,0.0,0.0,0.0,0.0,0.0,0.0,0.0,0.0,0.0,0.0,0.0,0.0,0.0,0.0,0.0,0.0,0.0,0.0,0.0,0.0,0.0,0.0,0.0,0.0,0.0,0.0,0.0,0.0,0.0,0.0,0.0,0.0,0.0,0.0,0.0,0.0,0.0,0.0,0.0,0.0,0.0,0.0,0.0,0.0,0.0,0.0,0.0,0.0,0.0,0.0,0.0,0.0,0.0,0.0,0.0,0.0,0.0,0.0,0.0,-0.9709,-1.0001,-0.9928,-0.9928,0.0,0.0,0.0,0.0,0.0,0.0,0.0,0.0,0.0,0.0,0.0,0.0,0.0,0.0,0.0,0.0,0.0,0.0,0.0,0.0,0.0,0.0,0.0,0.0,0.0,0.0,0.0,0.0,0.0,0.0,0.0,0.0,0.0,0.0,0.0,0.0,0.0,0.0,0.0,0.0,0.0,0.0,0.0,0.0,0.0,0.0,0.0,0.0,0.0,0.0,0.0,0.0,0.0,0.0,0.0,0.0,0.0,0.0,0.0,0.0,0.0,0.0,0.0,0.0,0.0,0.0,0.0,0.0,0.0,0.0,0.0,0.0,0.0,0.0,0.0,0.0,0.0,0.0,0.0,0.0,0.0,0.0,0.0,0.0,0.0,0.0,0.0,0.0,0.0,0.0,0.0,0.0,0.0,0.0,0.0,0.0,0.0,0.0,0.0,0.0,0.0,0.0,0.0,0.0,0.0,0.0,0.0,0.0,0.0,0.0,-0.9901,-1.0085,-1.0288,-1.0199,-1.0115,-1.0018,0.0,0.0,0.0,0.0,0.0,0.0,0.0,0.0,0.0,0.0,0.0,0.0,0.0,0.0,0.0,0.0,0.0,0.0,0.0,0.0,0.0,0.0,0.0,0.0,0.0,0.0,0.0,0.0,0.0,0.0,0.0,0.0,0.0,0.0,0.0,0.0,0.0,0.0,0.0,0.0,0.0,0.0,0.0,0.0,0.0,0.0,0.0,0.0,0.0,0.0,0.0,0.0,0.0,0.0,0.0,0.0,0.0,0.0,0.0,0.0,0.0,0.0,0.0,0.0,0.0,0.0,0.0,0.0,0.0,0.0,0.0,0.0,0.0,0.0,0.0,0.0,0.0,0.0,0.0,0.0,0.0,0.0,0.0,0.0,0.0,0.0,0.0,0.0,0.0,0.0,0.0,0.0,0.0,0.0,0.0,0.0,0.0,0.0,0.0,0.0,0.0,0.0,0.0,0.0,0.0,0.0,0.0,0.0,0.0,-1.0399,-1.0339,-1.1011,-1.1045,-1.071,0.0,0.0,0.0,0.0,0.0,0.0,0.0,0.0,0.0,0.0,0.0,0.0,0.0,0.0,0.0,0.0,0.0,0.0,0.0,0.0,0.0,0.0,0.0,0.0,0.0,0.0,0.0,0.0,0.0,0.0,0.0,0.0,0.0,0.0,0.0,0.0,0.0,0.0,0.0,0.0,0.0,0.0,0.0,0.0,0.0,0.0,0.0,0.0,0.0,0.0,0.0,0.0,0.0,0.0,0.0,0.0,0.0,0.0,0.0,0.0,0.0,0.0,0.0,0.0,0.0,0.0,0.0,0.0,0.0,0.0,0.0,0.0,0.0,0.0,0.0,0.0,0.0,0.0,0.0,0.0,0.0,0.0,0.0,0.0,0.0,0.0,0.0,0.0,0.0,0.0,0.0,0.0,0.0,0.0,0.0,0.0,0.0,0.0,0.0,0.0,0.0,0.0,0.0,0.0,0.0,0.0,0.0,0.0,0.0,-0.9995,-1.0,-1.0605,-1.1773,-1.0846,-1.0396,0.0,0.0,0.0,0.0,0.0,0.0,0.0,0.0,0.0,0.0,0.0,0.0,0.0,0.0,0.0,0.0,0.0,0.0,0.0,0.0,0.0,0.0,0.0,0.0,0.0,0.0,0.0,0.0,0.0,0.0,0.0,0.0,0.0,0.0,0.0,0.0,0.0,0.0,0.0,0.0,0.0,0.0,0.0,0.0,0.0,0.0,0.0,0.0,0.0,0.0,0.0,0.0,0.0,0.0,0.0,0.0,0.0,0.0,0.0,0.0,0.0,0.0,0.0,0.0,0.0,0.0,0.0,0.0,0.0,0.0,0.0,0.0,0.0,0.0,0.0,0.0,0.0,0.0,0.0,0.0,0.0,0.0,0.0,0.0,0.0,0.0,0.0,0.0,0.0,0.0,0.0,0.0,0.0,0.0,0.0,0.0,0.0,0.0,0.0,0.0,0.0,0.0,0.0,0.0,0.0,0.0,0.0,0.0,0.0,-1.0029,0.0,-1.121,0.0,-1.0841,-1.0279,0.0,0.0,0.0,0.0,0.0,0.0,0.0,0.0,0.0,0.0,0.0,0.0,0.0,0.0,0.0,0.0,0.0,0.0,0.0,0.0,0.0,0.0,0.0,0.0,0.0,0.0,0.0,0.0,0.0,0.0,0.0,0.0,0.0,0.0,0.0,0.0,0.0,0.0,0.0,0.0,0.0,0.0,0.0,0.0,0.0,0.0,0.0,0.0,0.0,0.0,0.0,0.0,0.0,0.0,0.0,0.0,0.0,0.0,0.0,0.0,0.0,0.0,0.0,0.0,0.0,0.0,0.0,0.0,0.0,0.0,0.0,0.0,0.0,0.0,0.0,0.0,0.0,0.0,0.0,0.0,0.0,0.0,0.0,0.0,0.0,0.0,0.0,0.0,0.0,0.0,0.0,0.0,0.0,0.0,0.0,0.0,0.0,0.0,0.0,0.0,0.0,0.0,0.0,0.0,0.0,0.0,0.0,0.0,-1.0286,-1.15,-1.2135,-1.211,-1.1473,-1.1189,-1.0386,0.0,0.0,0.0,0.0,0.0,0.0,0.0,0.0,0.0,0.0,0.0,0.0,0.0,0.0,0.0,0.0,0.0,0.0,0.0,0.0,0.0,0.0,0.0,0.0,0.0,0.0,0.0,0.0,0.0,0.0,0.0,0.0,0.0,0.0,0.0,0.0,0.0,0.0,0.0,0.0,0.0,0.0,0.0,0.0,0.0,0.0,0.0,0.0,0.0,0.0,0.0,0.0,0.0,0.0,0.0,0.0,0.0,0.0,0.0,0.0,0.0,0.0,0.0,0.0,0.0,0.0,0.0,0.0,0.0,0.0,0.0,0.0,0.0,0.0,0.0,0.0,0.0,0.0,0.0,0.0,0.0,0.0,0.0,0.0,0.0,0.0,0.0,0.0,0.0,0.0,0.0,0.0,0.0,0.0,0.0,0.0,0.0,0.0,0.0,0.0,0.0,0.0,0.0,0.0,0.0,0.0,0.0,0.0,0.0,-1.0829,-1.1951,-1.2632,-1.2726,-1.1189,-1.0622,0.0,0.0,0.0,0.0,0.0,0.0,0.0,0.0,0.0,0.0,0.0,0.0,0.0,0.0,0.0,0.0,0.0,0.0,0.0,0.0,0.0,0.0,0.0,0.0,0.0,0.0,0.0,0.0,0.0,0.0,0.0,0.0,0.0,0.0,0.0,0.0,0.0,0.0,0.0,0.0,0.0,0.0,0.0,0.0,0.0,0.0,0.0,0.0,0.0,0.0,0.0,0.0,0.0,0.0,0.0,0.0,0.0,0.0,0.0,0.0,0.0,0.0,0.0,0.0,0.0,0.0,0.0,0.0,0.0,0.0,0.0,0.0,0.0,0.0,0.0,0.0,0.0,0.0,0.0,0.0,0.0,0.0,0.0,0.0,0.0,0.0,0.0,0.0,0.0,0.0,0.0,0.0,0.0,0.0,0.0,0.0,0.0,0.0,0.0,0.0,0.0,0.0,0.0,0.0,0.0,0.0,0.0,0.0,0.0,-1.2234,-1.3338,-1.3815,-1.3495,-1.1766,-1.1045,-1.1383,0.0,0.0,0.0,0.0,0.0,0.0,0.0,0.0,0.0,0.0,0.0,0.0,0.0,0.0,0.0,0.0,0.0,0.0,0.0,0.0,0.0,0.0,0.0,0.0,0.0,0.0,0.0,0.0,0.0,0.0,0.0,0.0,0.0,0.0,0.0,0.0,0.0,0.0,0.0,0.0,0.0,0.0,0.0,0.0,0.0,0.0,0.0,0.0,0.0,0.0,0.0,0.0,0.0,0.0,0.0,0.0,0.0,0.0,0.0,0.0,0.0,0.0,0.0,0.0,0.0,0.0,0.0,0.0,0.0,0.0,0.0,0.0,0.0,0.0,0.0,0.0,0.0,0.0,0.0,0.0,0.0,0.0,0.0,0.0,0.0,0.0,0.0,0.0,0.0,0.0,0.0,0.0,0.0,0.0,0.0,0.0,0.0,0.0,0.0,0.0,0.0,0.0,0.0,0.0,0.0,0.0,0.0,0.0,-1.5162,-1.6058,-1.571,-1.3914,-1.2883,-1.1673,0.0,0.0,0.0,0.0,0.0,0.0,0.0,0.0,0.0,0.0,0.0,0.0,0.0,0.0,0.0,0.0,0.0,0.0,0.0,0.0,0.0,0.0,0.0,0.0,0.0,0.0,0.0,0.0,0.0,0.0,0.0,0.0,0.0,0.0,0.0,0.0,0.0,0.0,0.0,0.0,0.0,0.0,0.0,0.0,0.0,0.0,0.0,0.0,0.0,0.0,0.0,0.0,0.0,0.0,0.0,0.0,0.0,0.0,0.0,0.0,0.0,0.0,0.0,0.0,0.0,0.0,0.0,0.0,0.0,0.0,0.0,0.0,0.0,0.0,0.0,0.0,0.0,0.0,0.0,0.0,0.0,0.0,0.0,0.0,0.0,0.0,0.0,0.0,0.0,0.0,0.0,0.0,0.0,0.0,0.0,0.0,0.0,0.0,0.0,0.0,0.0,0.0,0.0,0.0,0.0,0.0,0.0,0.0,0.0,-1.7014,-1.875,-1.8743,-1.6748,-1.418,-1.2723,0.0,0.0,0.0,0.0,0.0,0.0,0.0,0.0,0.0,0.0,0.0,0.0,0.0,0.0,0.0,0.0,0.0,0.0,0.0,0.0,0.0,0.0,0.0,0.0,0.0,0.0,0.0,0.0,0.0,0.0,0.0,0.0,0.0,0.0,0.0,0.0,0.0,0.0,0.0,0.0,0.0,0.0,0.0,0.0,0.0,0.0,0.0,0.0,0.0,0.0,0.0,0.0,0.0,0.0,0.0,0.0,0.0,0.0,0.0,0.0,0.0,0.0,0.0,0.0,0.0,0.0,0.0,0.0,0.0,0.0,0.0,0.0,0.0,0.0,0.0,0.0,0.0,0.0,0.0,0.0,0.0,0.0,0.0,0.0,0.0,0.0,0.0,0.0,0.0,0.0,0.0,0.0,0.0,0.0,0.0,0.0,0.0,0.0,0.0,0.0,0.0,0.0,0.0,0.0,0.0,0.0,0.0,0.0,-1.7384,-1.8696,-2.0481,-2.0605,-1.8973,-1.595,-1.3882,0.0,0.0,0.0,0.0,0.0,0.0,0.0,0.0,0.0,0.0,0.0,0.0,0.0,0.0,0.0,0.0,0.0,0.0,0.0,0.0,0.0,0.0,0.0,0.0,0.0,0.0,0.0,0.0,0.0,0.0,0.0,0.0,0.0,0.0,0.0,0.0,0.0,0.0,0.0,0.0,0.0,0.0,0.0,0.0,0.0,0.0,0.0,0.0,0.0,0.0,0.0,0.0,0.0,0.0,0.0,0.0,0.0,0.0,0.0,0.0,0.0,0.0,0.0,0.0,0.0,0.0,0.0,0.0,0.0,0.0,0.0,0.0,0.0,0.0,0.0,0.0,0.0,0.0,0.0,0.0,0.0,0.0,0.0,0.0,0.0,0.0,0.0,0.0,0.0,0.0,0.0,0.0,0.0,0.0,0.0,0.0,0.0,0.0,0.0,0.0,0.0,0.0,0.0,0.0,0.0,0.0,0.0,0.0,-1.8947,-2.0264,-2.1551,-2.1718,-2.0616,-1.7822,-1.5122,0.0,0.0,0.0,0.0,0.0,0.0,0.0,0.0,0.0,0.0,0.0,0.0,0.0,0.0,0.0,0.0,0.0,0.0,0.0,0.0,0.0,0.0,0.0,0.0,0.0,0.0,0.0,0.0,0.0,0.0,0.0,0.0,0.0,0.0,0.0,0.0,0.0,0.0,0.0,0.0,0.0,0.0,0.0,0.0,0.0,0.0,0.0,0.0,0.0,0.0,0.0,0.0,0.0,0.0,0.0,0.0,0.0,0.0,0.0,0.0,0.0,0.0,0.0,0.0,0.0,0.0,0.0,0.0,0.0,0.0,0.0,0.0,0.0,0.0,0.0,0.0,0.0,0.0,0.0,0.0,0.0,0.0,0.0,0.0,0.0,0.0,0.0,0.0,0.0,0.0,0.0,0.0,0.0,0.0,0.0,0.0,0.0,0.0,0.0,0.0,0.0,0.0,0.0,0.0,0.0,0.0,0.0,0.0,-1.984,-2.1387,-2.2443,-2.2587,-2.1759,-1.8756,-1.6066,0.0,0.0,0.0,0.0,0.0,0.0,0.0,0.0,0.0,0.0,0.0,0.0,0.0,0.0,0.0,0.0,0.0,0.0,0.0,0.0,0.0,0.0,0.0,0.0,0.0,0.0,0.0,0.0,0.0,0.0,0.0,0.0,0.0,0.0,0.0,0.0,0.0,0.0,0.0,0.0,0.0,0.0,0.0,0.0,0.0,0.0,0.0,0.0,-0.342,0.0,0.0,0.0,0.0,0.0,0.0,0.0,0.0,0.0,0.0,0.0,0.0,0.0,0.0,0.0,0.0,0.0,0.0,0.0,0.0,0.0,0.0,0.0,0.0,0.0,0.0,0.0,0.0,0.0,0.0,0.0,0.0,0.0,0.0,0.0,0.0,0.0,0.0,0.0,0.0,0.0,0.0,0.0,0.0,0.0,0.0,0.0,0.0,0.0,0.0,0.0,0.0,0.0,0.0,0.0,0.0,0.0,0.0,0.0,-2.0666,-2.2318,-2.2912,-2.2858,-2.2078,-1.9836,-1.7382,0.0,0.0,0.0,0.0,0.0,0.0,0.0,0.0,0.0,0.0,0.0,0.0,0.0,0.0,0.0,0.0,0.0,0.0,0.0,0.0,0.0,0.0,0.0,0.0,0.0,0.0,0.0,0.0,0.0,0.0,0.0,0.0,0.0,0.0,0.0,0.0,0.0,0.0,0.0,0.0,0.0,0.0,0.0,0.0,0.0,0.0,0.0,0.0,0.0,0.0,0.0,0.0,0.0,0.0,0.0,0.0,0.0,0.0,0.0,0.0,0.0,0.0,0.0,0.0,0.0,0.0,0.0,0.0,0.0,0.0,0.0,0.0,0.0,0.0,0.0,0.0,0.0,0.0,0.0,0.0,0.0,0.0,0.0,0.0,0.0,0.0,0.0,0.0,0.0,0.0,0.0,0.0,0.0,0.0,0.0,0.0,0.0,0.0,0.0,0.0,0.0,0.0,0.0,0.0,0.0,0.0,0.0,-1.9054,-2.1365,-2.3107,-2.3181,-2.2911,-2.2255,-2.0808,-1.8581,-1.5583,0.0,0.0,0.0,0.0,0.0,0.0,0.0,0.0,0.0,0.0,0.0,0.0,0.0,0.0,0.0,0.0,0.0,0.0,0.0,0.0,0.0,0.0,0.0,0.0,0.0,0.0,0.0,0.0,0.0,0.0,0.0,0.0,0.0,0.0,0.0,0.0,0.0,0.0,-0.6025,-0.7044,0.0,0.0,0.0,0.0,0.0,0.0,0.0,0.0,-0.5265,0.0,0.0,0.0,0.0,0.0,0.0,0.0,0.0,0.0,0.0,0.0,0.0,0.0,0.0,0.0,0.0,0.0,0.0,0.0,0.0,0.0,0.0,0.0,0.0,0.0,0.0,0.0,0.0,0.0,0.0,0.0,0.0,0.0,0.0,0.0,0.0,0.0,0.0,0.0,0.0,0.0,0.0,0.0,0.0,0.0,0.0,0.0,0.0,0.0,0.0,0.0,0.0,0.0,0.0,0.0,0.0,-1.8647,-1.9895,-2.1621,-2.3914,-2.349,-2.3118,-2.2976,-2.1083,-1.896,-1.6767,0.0,0.0,0.0,0.0,0.0,0.0,0.0,0.0,0.0,0.0,0.0,0.0,0.0,0.0,0.0,0.0,0.0,0.0,0.0,0.0,0.0,0.0,0.0,0.0,0.0,0.0,0.0,0.0,0.0,0.0,0.0,0.0,0.0,0.0,0.0,0.0,0.0,0.0,0.0,-0.8134,-0.8397,0.0,0.0,0.0,0.0,0.0,0.0,0.0,0.0,-0.5325,0.0,0.0,0.0,0.0,0.0,0.0,0.0,0.0,0.0,0.0,0.0,0.0,0.0,0.0,0.0,0.0,0.0,0.0,0.0,0.0,0.0,0.0,0.0,0.0,0.0,0.0,0.0,0.0,0.0,0.0,0.0,0.0,0.0,0.0,0.0,0.0,0.0,0.0,0.0,0.0,0.0,0.0,0.0,0.0,0.0,0.0,0.0,0.0,0.0,0.0,0.0,0.0,0.0,0.0,0.0,-1.8574,-2.0317,-2.2152,-2.4098,-2.3714,-2.3369,-2.3136,-2.0906,-1.8836,0.0,0.0,0.0,0.0,0.0,0.0,0.0,0.0,0.0,0.0,0.0,0.0,0.0,0.0,0.0,0.0,0.0,0.0,0.0,0.0,0.0,0.0,0.0,0.0,0.0,0.0,0.0,0.0,0.0,0.0,0.0,0.0,0.0,0.0,0.0,0.0,0.0,0.0,0.0,0.0,-0.8529,-0.877,-0.8066,0.0,0.0,0.0,0.0,0.0,0.0,-0.6493,-0.6193,0.0,0.0,0.0,0.0,0.0,0.0,0.0,0.0,0.0,0.0,0.0,0.0,0.0,0.0,0.0,0.0,0.0,0.0,0.0,0.0,0.0,0.0,0.0,0.0,0.0,0.0,0.0,0.0,0.0,0.0,0.0,0.0,0.0,0.0,0.0,0.0,0.0,0.0,0.0,0.0,0.0,0.0,0.0,0.0,0.0,0.0,0.0,0.0,0.0,0.0,0.0,0.0,0.0,0.0,0.0,-1.8078,-2.0372,-2.2391,-2.4098,-2.3876,-2.3544,-2.3159,-2.088,-1.8756,0.0,0.0,0.0,0.0,0.0,0.0,0.0,0.0,0.0,0.0,0.0,0.0,0.0,0.0,0.0,0.0,0.0,0.0,0.0,0.0,0.0,0.0,0.0,0.0,0.0,0.0,0.0,0.0,0.0,0.0,0.0,0.0,0.0,0.0,0.0,0.0,0.0,0.0,0.0,0.0,0.0,-0.914,-0.783,-0.854,0.0,0.0,0.0,0.0,-0.7834,-0.759,0.0,0.0,0.0,0.0,0.0,0.0,0.0,0.0,0.0,0.0,0.0,0.0,0.0,0.0,0.0,0.0,0.0,0.0,0.0,0.0,0.0,0.0,0.0,0.0,0.0,0.0,0.0,0.0,0.0,0.0,0.0,0.0,0.0,0.0,0.0,0.0,0.0,0.0,0.0,0.0,0.0,0.0,0.0,0.0,0.0,0.0,0.0,0.0,0.0,0.0,0.0,0.0,0.0,0.0,0.0,0.0,-1.8041,-1.9785,-2.1822,-2.4024,-2.3858,-2.3544,-2.3194,-2.1383,-1.9047,0.0,0.0,0.0,0.0,0.0,0.0,0.0,0.0,0.0,0.0,0.0,0.0,0.0,0.0,0.0,0.0,0.0,0.0,0.0,0.0,0.0,0.0,0.0,0.0,0.0,0.0,0.0,0.0,0.0,0.0,0.0,0.0,0.0,0.0,0.0,0.0,0.0,0.0,0.0,0.0,0.0,-0.9694,-0.9441,-0.9397,-0.9269,0.0,0.0,-0.9274,-0.8791,-0.8621,0.0,0.0,0.0,0.0,0.0,0.0,0.0,0.0,0.0,0.0,0.0,0.0,0.0,0.0,0.0,0.0,0.0,0.0,0.0,0.0,0.0,0.0,0.0,0.0,0.0,0.0,0.0,0.0,0.0,0.0,0.0,0.0,0.0,0.0,0.0,0.0,0.0,0.0,0.0,0.0,0.0,0.0,0.0,0.0,0.0,0.0,0.0,0.0,0.0,0.0,0.0,0.0,0.0,0.0,0.0,-1.6017,-1.8739,-2.0849,-2.2666,-2.4135,-2.4054,-2.3753,-2.3212,-2.1212,-1.8892,0.0,0.0,0.0,0.0,0.0,0.0,0.0,0.0,0.0,0.0,0.0,0.0,0.0,0.0,0.0,0.0,0.0,0.0,0.0,0.0,0.0,0.0,0.0,0.0,0.0,0.0,0.0,0.0,0.0,0.0,0.0,0.0,0.0,0.0,0.0,0.0,0.0,0.0,0.0,0.0,0.0,0.0,-0.9886,-0.9684,0.0,0.0,0.0,-1.092,-1.0753,0.0,0.0,0.0,0.0,0.0,0.0,0.0,0.0,0.0,0.0,0.0,0.0,0.0,0.0,0.0,0.0,0.0,0.0,0.0,0.0,0.0,0.0,0.0,0.0,0.0,0.0,0.0,0.0,0.0,0.0,0.0,0.0,0.0,0.0,0.0,0.0,0.0,0.0,0.0,0.0,0.0,0.0,0.0,0.0,0.0,0.0,0.0,0.0,0.0,0.0,0.0,0.0,0.0,0.0,0.0,0.0,0.0,-1.9286,-2.1766,-2.3382,-2.4153,-2.419,-2.3917,-2.331,-2.128,0.0,0.0,0.0,0.0,0.0,0.0,0.0,0.0,0.0,0.0,0.0,0.0,0.0,0.0,0.0,0.0,0.0,0.0,0.0,0.0,0.0,0.0,0.0,0.0,0.0,0.0,0.0,-0.4109,0.0,0.0,0.0,0.0,0.0,0.0,0.0,0.0,0.0,0.0,0.0,0.0,0.0,0.0,-1.0852,-1.0527,-1.0271,-1.0291,0.0,0.0,-1.2202,-1.1855,-1.1087,-1.0112,0.0,0.0,0.0,0.0,0.0,0.0,0.0,0.0,0.0,0.0,0.0,0.0,0.0,0.0,0.0,0.0,0.0,0.0,0.0,0.0,0.0,0.0,0.0,0.0,0.0,0.0,0.0,0.0,0.0,0.0,0.0,0.0,0.0,0.0,0.0,0.0,0.0,0.0,0.0,0.0,0.0,0.0,0.0,0.0,0.0,0.0,0.0,0.0,0.0,0.0,0.0,0.0,0.0,0.0,0.0,-1.9286,-2.1746,-2.3401,-2.4171,-2.419,-2.4036,-2.3635,-2.1903,-1.9323,0.0,0.0,0.0,0.0,0.0,0.0,0.0,0.0,0.0,0.0,0.0,0.0,0.0,0.0,0.0,0.0,0.0,0.0,0.0,0.0,0.0,0.0,0.0,0.0,0.0,0.0,0.0,0.0,0.0,0.0,0.0,0.0,0.0,0.0,0.0,0.0,0.0,0.0,0.0,0.0,0.0,-1.1199,-1.2008,-1.1585,-1.1893,0.0,0.0,-1.245,-1.1276,-1.1323,-1.0928,-0.9255,0.0,0.0,0.0,0.0,0.0,0.0,0.0,0.0,0.0,0.0,0.0,0.0,0.0,0.0,0.0,0.0,0.0,0.0,0.0,0.0,0.0,0.0,0.0,0.0,0.0,0.0,0.0,0.0,0.0,0.0,0.0,0.0,0.0,0.0,0.0,0.0,0.0,0.0,0.0,0.0,0.0,0.0,0.0,0.0,0.0,0.0,0.0,0.0,0.0,0.0,0.0,0.0,0.0,-1.7388,-1.9289,-2.2225,-2.3897,-2.419,-2.419,-2.4054,-2.3714,-2.1938,-1.957,0.0,0.0,0.0,0.0,0.0,0.0,0.0,0.0,0.0,0.0,0.0,0.0,0.0,0.0,0.0,0.0,0.0,0.0,0.0,0.0,0.0,0.0,0.0,0.0,0.0,0.0,0.0,0.0,-0.4737,-0.5065,-0.5278,0.0,0.0,0.0,0.0,0.0,0.0,0.0,0.0,0.0,0.0,-1.1792,-1.2244,-1.2845,0.0,0.0,-1.4476,-1.3737,-1.2636,-1.2187,-1.1581,-1.0349,-0.9646,0.0,0.0,0.0,0.0,0.0,0.0,0.0,0.0,0.0,0.0,0.0,0.0,0.0,0.0,0.0,0.0,0.0,0.0,0.0,0.0,0.0,0.0,0.0,0.0,0.0,0.0,0.0,0.0,0.0,0.0,0.0,0.0,0.0,0.0,0.0,0.0,0.0,0.0,0.0,0.0,0.0,0.0,0.0,0.0,0.0,0.0,0.0,0.0,0.0,0.0,0.0,0.0,-1.7688,-1.9286,-2.252,-2.419,-2.419,-2.419,-2.4094,-2.3801,-2.206,-1.9976,0.0,0.0,0.0,0.0,0.0,0.0,0.0,0.0,0.0,0.0,0.0,0.0,0.0,0.0,0.0,0.0,0.0,0.0,0.0,0.0,0.0,0.0,0.0,0.0,0.0,0.0,0.0,0.0,-0.5486,-0.5795,-0.6209,0.0,0.0,0.0,0.0,0.0,0.0,0.0,0.0,0.0,0.0,-1.2604,-1.303,-1.3893,-1.4637,-1.5056,-1.4988,-1.4472,-1.3199,-1.2763,-1.2124,-1.0795,0.0,0.0,0.0,0.0,0.0,0.0,0.0,0.0,0.0,0.0,0.0,0.0,0.0,0.0,0.0,0.0,0.0,0.0,0.0,0.0,0.0,0.0,0.0,0.0,0.0,0.0,0.0,0.0,0.0,0.0,-1.2159,0.0,0.0,0.0,0.0,0.0,0.0,0.0,0.0,0.0,0.0,0.0,0.0,0.0,0.0,0.0,0.0,0.0,0.0,0.0,0.0,0.0,0.0,-1.7711,-1.9308,-2.2538,-2.419,-2.419,-2.419,-2.419,-2.4134,-2.2389,-2.0551,-1.8735,0.0,0.0,0.0,0.0,0.0,0.0,0.0,0.0,0.0,0.0,0.0,0.0,0.0,0.0,0.0,0.0,0.0,0.0,0.0,0.0,0.0,0.0,0.0,0.0,0.0,0.0,-0.7027,-0.6388,-0.6268,0.0,0.0,0.0,0.0,0.0,0.0,0.0,0.0,0.0,0.0,-1.29,-1.3641,-1.4634,-1.4648,-1.4611,-1.4896,-1.4904,-1.4269,-1.2502,-1.2891,-1.2628,0.0,0.0,0.0,0.0,0.0,0.0,0.0,0.0,0.0,0.0,0.0,0.0,0.0,0.0,0.0,0.0,0.0,0.0,0.0,0.0,0.0,0.0,0.0,0.0,0.0,0.0,0.0,-1.8041,-1.7247,0.0,0.0,0.0,0.0,0.0,0.0,0.0,0.0,0.0,0.0,0.0,-2.1382,-2.1639,0.0,0.0,0.0,0.0,0.0,0.0,0.0,0.0,0.0,0.0,0.0,0.0,-1.8496,-2.0134,-2.2813,-2.419,-2.419,-2.419,-2.419,-2.4171,-2.2898,-2.0782,-1.7822,0.0,0.0,0.0,0.0,0.0,0.0,0.0,0.0,0.0,0.0,0.0,0.0,0.0,0.0,0.0,0.0,0.0,0.0,0.0,0.0,0.0,0.0,0.0,0.0,0.0,-0.6999,0.0,0.0,0.0,0.0,0.0,0.0,0.0,0.0,0.0,0.0,0.0,-1.1506,-1.2951,-1.3225,-1.3624,-1.4521,-1.4637,-1.4748,0.0,0.0,0.0,0.0,0.0,0.0,0.0,0.0,0.0,0.0,0.0,0.0,0.0,0.0,-0.9049,-0.8916,-0.8025,-0.7331,-0.7422,0.0,0.0,0.0,0.0,0.0,0.0,0.0,0.0,0.0,0.0,0.0,0.0,0.0,0.0,-2.1492,0.0,-1.9858,0.0,0.0,0.0,0.0,0.0,0.0,0.0,0.0,-2.2868,-2.4263,-2.4245,-2.4244,-2.3969,0.0,-2.1528,-1.9528,0.0,0.0,0.0,0.0,0.0,0.0,0.0,0.0,-1.9326,-2.0978,-2.3088,-2.419,-2.419,-2.419,-2.419,-2.4171,-2.3035,-2.0952,-1.782,-1.5674,-1.3683,0.0,0.0,0.0,0.0,0.0,0.0,0.0,0.0,0.0,0.0,0.0,0.0,0.0,0.0,0.0,0.0,0.0,0.0,0.0,0.0,0.0,0.0,0.0,-0.8088,0.0,0.0,0.0,0.0,0.0,0.0,0.0,0.0,0.0,-1.0975,-1.1482,-1.2325,-1.3738,-1.3847,-1.3958,-1.4444,0.0,0.0,0.0,0.0,0.0,0.0,0.0,-1.3913,-1.3594,-1.2876,-1.2333,-1.2377,-1.1412,-1.1007,-1.2123,0.0,0.0,-1.0527,-0.913,-0.8159,-0.822,-0.8301,-0.8356,-0.8415,-0.8457,-0.8474,0.0,0.0,0.0,0.0,0.0,0.0,0.0,0.0,-2.4483,-2.4465,0.0,-2.2685,0.0,0.0,0.0,0.0,0.0,-2.1987,0.0,0.0,-2.5603,-2.6704,-2.6667,-2.6649,-2.6649,-2.6594,-2.5713,-2.452,-2.2868,-1.8317,0.0,0.0,0.0,0.0,0.0,0.0,-2.017,-2.1804,-2.3419,-2.419,-2.419,-2.419,-2.419,-2.4152,-2.2833,-2.1036,-1.8855,-1.7417,-1.5716,-1.3549,-1.1871,0.0,0.0,0.0,0.0,0.0,0.0,0.0,0.0,0.0,0.0,0.0,0.0,0.0,0.0,0.0,0.0,0.0,0.0,0.0,0.0,-0.9177,0.0,0.0,0.0,0.0,0.0,0.0,0.0,0.0,0.0,0.0,-1.1302,-1.2428,-1.3684,-1.4662,0.0,0.0,0.0,0.0,-1.5141,-1.6757,-1.7169,-1.697,-1.6092,-1.6534,-1.6239,-1.4063,0.0,0.0,-1.2832,-1.2362,-1.2506,-1.338,-1.4343,-1.4443,-1.1996,-1.0502,-0.9679,-0.9779,-0.9775,-0.9908,-0.9963,-0.9874,-0.9982,-3.2063,0.0,0.0,0.0,0.0,-2.8723,-2.9347,-3.0155,-2.9586,-2.9017,-2.8338,-2.6172,0.0,0.0,0.0,0.0,0.0,0.0,-2.5878,-2.6521,-2.8319,-2.887,-2.8319,-2.8319,-2.8026,-2.7438,-2.6649,-2.6025,-2.5474,-2.3015,-2.0005,-1.6633,0.0,0.0,0.0,0.0,-2.1602,-2.2648,-2.3676,-2.419,-2.419,-2.419,-2.4094,-2.3855,-2.2704,-2.1423,-2.0031,-1.8374,-1.6712,-1.5037,-1.3359,0.0,0.0,0.0,0.0,0.0,0.0,0.0,0.0,0.0,0.0,0.0,0.0,0.0,0.0,0.0,0.0,0.0,0.0,0.0,-0.9133,-0.8392,-0.8454,0.0,0.0,0.0,0.0,0.0,0.0,0.0,0.0,0.0,-1.3532,-1.3906,-1.4754,0.0,0.0,-1.5956,-1.5128,-1.538,-1.634,-1.8317,0.0,0.0,0.0,-1.6536,-1.6047,-1.5479,-1.5161,-1.4768,-1.4303,-1.427,-1.4372,-1.4539,-1.4923,-1.4711,-1.3258,-1.1236,-1.0111,-1.0457,-1.0301,-0.9986,-0.9997,-1.0057,-1.0098,-3.7,-3.3935,-3.2651,-3.21,-3.2118,-3.21,-3.2467,-3.3073,-3.2908,-3.2559,-3.2008,-3.0246,-2.876,-2.7457,-2.6023,0.0,0.0,0.0,-2.8282,-2.8778,-3.0081,-3.043,-2.9971,-2.9953,-2.9531,-2.8723,-2.7934,-2.7402,-2.7053,-2.5768,-2.3511,-2.0372,0.0,0.0,-2.0097,-2.142,-2.2575,-2.3456,-2.3951,-2.419,-2.419,-2.4074,-2.3896,-2.3674,-2.2815,-2.175,-2.0535,-1.9314,-1.7862,-1.6103,-1.4521,-1.2974,0.0,0.0,0.0,0.0,0.0,0.0,0.0,0.0,0.0,0.0,0.0,-0.5125,-0.5123,0.0,0.0,0.0,-0.8216,-0.9484,-0.9575,-0.9276,0.0,0.0,0.0,0.0,0.0,0.0,0.0,-1.5203,-1.5441,-1.557,-1.5894,-1.5975,-1.6398,-1.7467,-1.7244,-1.6976,-1.7013,0.0,-1.7237,-1.9044,-1.8757,-1.8333,-1.8294,-1.7795,-1.7206,-1.664,-1.5991,-1.5373,-1.5014,-1.508,-1.514,-1.5054,-1.5106,-1.4981,-1.4257,-1.283,-1.1535,-1.1102,-1.0766,-1.0435,-1.0092,-1.0038,-1.0094,-4.0855,-3.9918,-3.6872,-3.5504,-3.5375,-3.5375,-3.4981,-3.4339,-3.5037,-3.5247,-3.5119,-3.4284,-3.3458,-3.2559,-3.0393,0.0,-2.9489,-3.0173,-3.054,-3.0613,-3.1274,-3.1549,-3.1494,-3.1494,-3.1072,-3.0283,-2.947,-2.8723,-2.797,-2.7108,-2.6319,-2.555,-2.3309,-2.2483,-2.307,-2.2905,-2.329,-2.4171,-2.419,-2.419,-2.419,-2.3876,-2.3692,-2.3653,-2.2992,-2.1933,-2.0523,-2.0091,-1.8961,-1.6902,-1.5375,-1.3954,-1.2501,0.0,0.0,0.0,0.0,0.0,0.0,0.0,0.0,0.0,0.0,0.0,0.0,0.0,0.0,0.0,-0.994,0.0,-0.9955,-1.1232,0.0,0.0,0.0,-1.1709,-1.0231,-1.2756,-1.5221,-1.689,0.0,0.0,-1.8005,0.0,-1.8259,-1.8465,-1.7764,-1.7869,-1.9524,-1.8399,-1.7919,-1.9133,-1.9286,-1.9401,-1.9562,-1.9463,-1.8868,-1.7671,-1.6806,-1.6033,-1.5334,-1.514,-1.514,-1.5042,-1.5101,-1.5095,-1.4936,-1.4742,-1.4168,-1.1715,-1.1339,-1.1143,-1.0369,-1.0234,-1.0248,-4.28,-4.2506,-4.1148,-3.9863,-3.8726,-3.8726,-3.8615,-3.8414,-3.801,-3.7477,-3.6798,-3.5367,-3.4284,-3.3476,-3.2926,-3.2999,-3.356,-3.3146,-3.3275,-3.3798,-3.3421,-3.2908,-3.232,-3.232,-3.1898,-3.1091,-3.0301,-2.9824,-2.9567,-2.8209,-2.742,-2.7181,-2.6043,-2.4942,-2.3969,-2.4465,-2.4557,-2.419,-2.419,-2.419,-2.4208,-2.3858,-2.3566,-2.3323,-2.2363,-2.1332,-2.0152,-1.9517,-1.8657,-1.7574,-1.6136,-1.4934,-1.4001,-1.181,0.0,0.0,0.0,0.0,0.0,0.0,0.0,0.0,0.0,-0.5764,-0.7655,0.0,-0.9294,0.0,-0.9772,-1.0415,-1.1443,-1.1875,0.0,0.0,-1.393,-1.3802,-1.3398,-1.4573,-1.6261,-1.8482,-1.8188,-1.7876,-1.8078,-1.8629,-1.9011,-1.907,-1.8904,-1.8923,-1.935,-1.9128,-1.8919,-1.9228,-1.9305,-1.9419,-1.9705,-1.943,-1.9037,-1.8666,-1.7423,-1.6381,-1.617,-1.5606,-1.5183,-1.5127,-1.487,-1.4763,-1.4939,-1.5047,-1.4672,-1.3422,-1.2743,-1.2094,-1.1186,-1.1043,-1.0887,-4.3479,-4.3461,-4.3002,-4.2304,-4.1442,-4.0744,-4.0432,-4.0396,-3.9955,-3.9313,-3.845,-3.6817,-3.5862,-3.5404,-3.5073,-3.5165,-3.5532,-3.511,-3.4945,-3.4972,-3.4541,-3.3917,-3.3146,-3.2949,-3.2529,-3.1935,-3.1305,-3.0921,-3.0668,-2.9296,-2.8603,-2.8585,-2.782,-2.6777,-2.5557,-2.4899,-2.4616,-2.4722,-2.4373,-2.4132,-2.3976,-2.3649,-2.3374,-2.3171,-2.2471,-2.1495,-2.025,-1.9846,-1.8933,-1.7505,-1.6345,-1.5447,-1.4762,-1.3181,-1.2112,0.0,0.0,0.0,0.0,0.0,0.0,0.0,0.0,0.0,0.0,0.0,-1.1691,-1.1333,-1.1957,-1.2747,-1.3618,-1.404,-1.4609,-1.5478,-1.535,-1.5294,-1.5551,-1.6175,-1.7289,-1.9069,-1.9234,-1.9179,-1.9179,-1.9877,-2.0425,-2.0407,-2.0425,-2.0115,-1.9436,-1.9286,-1.935,-1.9504,-1.9458,-1.954,-1.9828,-1.9734,-1.9446,-1.9011,-1.8234,-1.7407,-1.6657,-1.6215,-1.5779,-1.5242,-1.4941,-1.4856,-1.4976,-1.5106,-1.4993,-1.4558,-1.4104,-1.3223,-1.17,-1.1388,-1.1137,-4.3479,-4.3479,-4.3479,-4.3479,-4.3387,-4.2011,-4.135,-4.1277,-4.1258,-4.0818,-3.9937,-3.845,-3.7771,-3.7656,-3.6934,-3.6567,-3.652,-3.6457,-3.6046,-3.5349,-3.5082,-3.4623,-3.3872,-3.3397,-3.2987,-3.2584,-3.2151,-3.1763,-3.1437,-3.0152,-2.9566,-2.9565,-2.8729,-2.7982,-2.7227,-2.4992,-2.4325,-2.5226,-2.4476,-2.3935,-2.3649,-2.3323,-2.3141,-2.31,-2.2648,-2.1762,-2.0483,-2.035,-1.9337,-1.736,-1.6534,-1.5922,-1.546,-1.4408,-1.3808,0.0,-1.3562,0.0,0.0,0.0,0.0,0.0,0.0,0.0,0.0,-1.3479,-1.4481,-1.3684,-1.508,-1.6004,-1.6004,-1.6725,-1.7257,-1.733,-1.6835,-1.6707,-1.7165,-1.7734,-1.8485,-1.9525,-2.0244,-2.0649,-2.0668,-2.1327,-2.1767,-2.1692,-2.1656,-2.1233,-2.0076,-1.9525,-1.939,-1.9695,-1.9663,-1.9712,-1.9934,-2.0142,-2.0004,-1.935,-1.9004,-1.8477,-1.7138,-1.6849,-1.6522,-1.5522,-1.5204,-1.5146,-1.5042,-1.5127,-1.5189,-1.5132,-1.5074,-1.4368,-1.244,-1.1714,-1.1271,-4.3479,-4.3479,-4.3479,-4.3479,-4.3461,-4.3167,-4.2671,-4.2084,-4.2084,-4.1625,-4.0818,-3.9863,-3.9195,-3.8803,-3.8405,-3.8026,-3.7576,-3.7363,-3.7165,-3.6964,-3.5642,-3.4739,-3.4244,-3.3551,-3.2955,-3.2478,-3.1777,-3.1589,-3.1844,-3.0016,-2.9272,-2.9557,-2.8532,-2.7939,-2.7698,0.0,0.0,0.0,-2.3761,-2.3346,-2.33,-2.2972,-2.278,-2.2762,-2.131,0.0,-2.0085,-1.9532,-1.8998,-1.8555,-1.7839,0.0,0.0,0.0,0.0,0.0,0.0,0.0,0.0,0.0,0.0,0.0,-1.2133,-1.1703,-1.367,-1.5441,-1.6101,-1.538,-1.6702,-1.7656,-1.7674,-1.8372,-1.9106,-1.9711,-1.9143,-1.872,-1.8867,-1.9693,-2.0556,-2.1216,-2.1455,-2.1547,-2.1565,-2.1729,-2.1839,-2.1877,-2.1785,-2.1876,-2.1968,-2.0462,-1.939,-1.9409,-1.9606,-1.9824,-1.9964,-2.0169,-2.0235,-1.9985,-1.9408,-1.8915,-1.8491,-1.758,-1.6849,-1.6228,-1.567,-1.5209,-1.5152,-1.5183,-1.5189,-1.5195,-1.5195,-1.4843,-1.367,-1.2906,-1.2199,-4.2921,0.0,-4.2639,-4.2639,0.0,-4.2657,-4.2423,-4.2062,-4.2359,-4.1869,-4.0816,-4.0004,-3.9319,-3.8686,-3.8546,-3.8151,-3.756,-3.7394,-3.7099,-3.6684,-3.584,-3.4936,-3.397,-3.3379,-3.2889,-3.2466,-3.1826,-3.1784,-3.2135,-3.0603,-2.9783,-2.9591,-2.8609,-2.7992,-2.7589,-2.6678,-2.5518,-2.4104,-2.3862,-2.3499,-2.2947,-2.2797,-2.2695,-2.2678,0.0,0.0,0.0,0.0,0.0,0.0,0.0,0.0,0.0,0.0,0.0,-1.7463,-1.6969,-1.6533,-1.6257,-1.6126,-1.6245,-1.6534,-1.6138,-1.6501,-1.799,-1.847,-1.8507,-1.8151,-1.9198,-1.9913,-1.9932,-2.0315,-2.0703,-2.107,-2.0776,-2.0535,-2.0664,-2.173,-2.263,-2.285,-2.2502,-2.2245,-2.2391,-2.2776,-2.296,-2.2978,-2.2978,-2.3033,-2.3107,-2.151,-1.9997,-1.9559,-1.97,-1.9953,-2.0106,-2.0233,-2.0285,-2.0215,-1.9927,-1.9504,-1.9061,-1.8773,-1.8215,-1.6984,-1.5901,-1.5209,-1.5209,-1.5165,-1.5108,-1.5177,-1.514,-1.5018,-1.4563,-1.3887,-1.2887,-4.2244,-4.181,-4.181,-4.181,-4.181,-4.181,-4.1707,-4.1664,0.0,0.0,0.0,-3.9958,-3.9229,-3.8566,-3.8545,-3.8051,-3.7288,-3.7347,-3.6943,-3.6145,-3.5948,-3.517,-3.3917,-3.3293,-3.2804,-3.2458,-3.193,-3.1933,-3.2315,-3.115,-3.0335,-2.9762,-2.8781,-2.7937,-2.721,-2.6605,-2.5592,-2.4264,-2.4173,-2.3702,-2.2842,-2.2703,-2.2634,-2.2634,-2.2514,-2.2151,-2.1547,-2.1512,-2.0911,-1.9636,-1.955,-1.9665,-1.9865,-1.9539,-1.9647,-2.0244,-2.0135,-1.9714,-1.9147,-1.9096,-1.8897,-1.8481,-1.9659,-2.095,-2.2135,-2.1301,-2.0747,-2.0721,-2.151,-2.2005,-2.2006,-2.2006,-2.2078,-2.2189,-2.1968,-2.1894,-2.2262,-2.3345,-2.4098,-2.4098,-2.3419,-2.296,-2.3198,-2.3749,-2.419,-2.4171,-2.4061,-2.419,-2.3951,-2.2446,-2.0786,-1.9778,-1.9851,-2.0191,-2.0208,-2.0233,-2.0269,-2.0285,-2.0265,-2.0035,-1.9554,-1.9823,-1.9419,-1.7619,-1.6157,-1.5349,-1.5209,-1.5095,-1.5068,-1.5177,-1.5095,-1.5023,-1.5094,-1.4632,-1.3613,-4.1895,-4.181,-4.181,-4.181,-4.181,-4.181,-4.149,-4.1087,-4.1664,-4.1824,-4.158,-4.0795,-4.0095,-3.9581,-3.9346,-3.8585,-3.7513,-3.7945,-3.7736,0.0,-3.6251,-3.5603,-3.4992,-3.3665,-3.2779,-3.2293,-3.1635,-3.1487,-3.1738,-3.0734,-3.0307,-3.03,-2.8784,-2.7538,-2.6842,-2.669,-2.6214,-2.5382,-2.4156,-2.3471,-2.3294,-2.27,-2.2349,-2.2326,-2.1732,-2.1358,-2.1283,-2.1257,-2.1155,-2.0951,-2.0909,-2.0935,-2.0943,-2.0289,-1.9934,-2.0035,-2.0027,-1.9951,-1.9849,-1.9833,-1.9824,-1.9806,-2.0969,-2.2353,-2.3674,-2.2484,-2.1622,-2.1639,-2.2373,-2.285,-2.2813,-2.2832,-2.3088,-2.3602,-2.2611,-2.2335,-2.3584,-2.4006,-2.419,-2.419,-2.408,-2.3951,-2.3951,-2.4098,-2.419,-2.419,-2.419,-2.419,-2.4025,-2.3162,-2.1582,-2.001,-2.0117,-2.0433,-2.0249,-2.0031,-2.0106,-2.0277,-2.0304,-2.0238,-2.0054,-2.0169,-1.9823,-1.8619,-1.6753,-1.5478,-1.5285,-1.5088,-1.5075,-1.5165,-1.5107,-1.5035,-1.5171,-1.5022,-1.4387,-4.115,-4.0908,-4.0908,-4.0908,-4.0861,-4.0908,-4.0737,-4.0497,-4.0767,-4.0844,-4.0827,-4.0481,-3.995,-3.9384,-3.9256,-3.8418,-3.7113,-3.7361,-3.7059,-3.6316,-3.5894,-3.539,-3.4812,-3.3744,-3.2889,-3.2297,-3.1546,-3.1291,-3.1414,-3.0951,-3.0578,-3.0289,-2.8659,-2.7452,-2.6742,-2.6708,-2.6539,-2.6184,-2.5135,-2.4205,-2.341,-2.3071,-2.2716,-2.2344,-2.1972,-2.1786,-2.1803,-2.1786,-2.1803,-2.1786,-2.1796,-2.1796,-2.1786,-2.1444,-2.1231,-2.1235,-2.1235,-2.1235,-2.1235,-2.1235,-2.1235,-2.1278,-2.196,-2.2571,-2.3119,-2.2983,-2.2856,-2.2844,-2.3343,-2.3639,-2.3639,-2.3657,-2.3823,-2.4135,-2.3492,-2.34,-2.4025,-2.419,-2.419,-2.419,-2.419,-2.419,-2.419,-2.419,-2.419,-2.419,-2.419,-2.419,-2.419,-2.3786,-2.3144,-2.2133,-2.134,-2.076,-2.0516,-2.0137,-2.001,-2.0106,-2.0143,-2.0188,-2.0249,-2.0292,-2.0062,-1.9561,-1.7869,-1.6599,-1.617,-1.5429,-1.5128,-1.5133,-1.5059,-1.5038,-1.5108,-1.4862,-1.3959,-4.0497,-4.0087,-4.0087,-4.0087,-4.0087,-4.0087,-4.0087,-4.0087,-4.0121,-4.0087,-4.0087,-4.0087,-3.9766,-3.9259,-3.9225,-3.8531,-3.7381,-3.7094,-3.662,-3.591,-3.5707,-3.5301,-3.4726,-3.3998,-3.3254,-3.251,-3.1799,-3.1343,-3.1207,-3.119,-3.0818,-3.004,-2.8738,-2.7706,-2.6962,-2.6776,-2.6708,-2.6657,-2.6133,-2.5203,-2.3951,-2.3579,-2.3122,-2.2598,-2.2395,-2.2327,-2.2327,-2.2327,-2.2327,-2.2327,-2.2327,-2.2327,-2.2327,-2.2327,-2.2327,-2.2327,-2.2327,-2.2327,-2.2327,-2.2327,-2.2327,-2.2327,-2.2491,-2.2511,-2.241,-2.3017,-2.3567,-2.371,-2.3883,-2.4057,-2.4153,-2.4171,-2.419,-2.419,-2.419,-2.4135,-2.419,-2.419,-2.419,-2.419,-2.419,-2.419,-2.419,-2.419,-2.419,-2.419,-2.419,-2.419,-2.419,-2.419,-2.419,-2.3842,-2.253,-2.128,-2.1033,-2.0452,-2.0096,-2.003,-1.9993,-2.0087,-2.0241,-2.0292,-2.0292,-2.0073,-1.9161,-1.7842,-1.6999,-1.5961,-1.5275,-1.5176,-1.5015,-1.496,-1.5114,-1.4536,-1.369,-4.0171,-4.0121,-4.0087,-4.0087,-4.0087,-4.0087,-4.0087,-4.0087,-4.0087,-4.0087,-4.0087,-4.0087,-4.0054,-3.9986,-3.9952,-3.9478,-3.87,-3.8108,-3.7364,-3.662,-3.5926,-3.5588,-3.5419,-3.4726,-3.3998,-3.3254,-3.251,-3.1782,-3.1224,-3.119,-3.0818,-3.0108,-2.9279,-2.8467,-2.7723,-2.7046,-2.6708,-2.6708,-2.6623,-2.6218,-2.5372,-2.4086,-2.3359,-2.3291,-2.2665,-2.2327,-2.2327,-2.2327,-2.2327,-2.2327,-2.2327,-2.2327,-2.2327,-2.2327,-2.2327,-2.2327,-2.2327,-2.2327,-2.2327,-2.2327,-2.2327,-2.2327,-2.2327,-2.2355,-2.2326,-2.2599,-2.3063,-2.3522,-2.3732,-2.3878,-2.4151,-2.4208,-2.419,-2.419,-2.419,-2.419,-2.419,-2.419,-2.419,-2.419,-2.419,-2.419,-2.419,-2.419,-2.419,-2.419,-2.419,-2.419,-2.419,-2.419,-2.419,-2.408,-2.3309,-2.2293,-2.1302,-2.0802,-2.047,-2.0123,-1.9984,-2.0078,-2.0225,-2.0292,-2.0292,-2.0238,-1.9907,-1.8811,-1.7405,-1.6187,-1.5667,-1.5269,-1.5087,-1.4952,-1.5044,-1.4574,-1.3901,-4.0476,-4.0087,-4.0087,-4.0087,-4.0087,-4.0087,-4.0087,-4.0087,-4.0087,-4.0087,-4.0087,-4.0087,-4.0087,-4.0087,-4.0087,-3.9681,-3.8971,-3.8227,-3.7499,-3.6738,-3.5977,-3.5639,-3.5537,-3.4844,-3.4117,-3.3389,-3.2645,-3.1901,-3.1292,-3.119,-3.0818,-3.0159,-2.9786,-2.9042,-2.7874,-2.752,-2.7148,-2.6708,-2.6708,-2.6539,-2.6184,-2.5253,-2.4272,-2.346,-2.3105,-2.2733,-2.2378,-2.2327,-2.2327,-2.2327,-2.2327,-2.2327,-2.2327,-2.2327,-2.2327,-2.2327,-2.2327,-2.2327,-2.2327,-2.2327,-2.2327,-2.2327,-2.2327,-2.2327,-2.231,-2.2398,-2.2643,-2.3045,-2.3459,-2.3774,-2.3896,-2.4074,-2.419,-2.419,-2.419,-2.419,-2.419,-2.419,-2.419,-2.419,-2.419,-2.419,-2.419,-2.419,-2.419,-2.419,-2.419,-2.419,-2.419,-2.419,-2.419,-2.4153,-2.3896,-2.3309,-2.2236,-2.1166,-2.0769,-2.0533,-2.0164,-1.9981,-2.0263,-2.0285,-2.0292,-2.0285,-2.0011,-1.9422,-1.8279,-1.7185,-1.6436,-1.5809,-1.5179,-1.5011,-1.5171,-1.492,-1.4689,-4.0899,-4.0392,-4.0189,-4.0087,-4.0087,-4.0087,-4.0087,-4.0087,-4.0087,-4.0087,-4.0087,-4.0087,-4.0087,-4.0087,-4.0087,-3.9783,-3.9242,-3.8531,-3.7804,-3.706,-3.6299,-3.5842,-3.5588,-3.5081,-3.4421,-3.3694,-3.2966,-3.2121,-3.1292,-3.119,-3.092,-3.0446,-3.0209,-2.9448,-2.8247,-2.796,-2.7435,-2.6759,-2.6708,-2.6708,-2.6623,-2.6184,-2.5287,-2.4103,-2.3596,-2.3139,-2.2632,-2.2412,-2.2327,-2.2327,-2.2327,-2.2327,-2.2327,-2.2327,-2.2327,-2.2327,-2.2327,-2.2327,-2.2327,-2.2327,-2.2327,-2.2327,-2.2327,-2.2327,-2.2327,-2.2327,-2.2388,-2.259,-2.3093,-2.3437,-2.3732,-2.3996,-2.419,-2.419,-2.419,-2.419,-2.419,-2.419,-2.419,-2.419,-2.419,-2.419,-2.419,-2.419,-2.419,-2.419,-2.419,-2.419,-2.419,-2.419,-2.419,-2.419,-2.419,-2.3823,-2.307,-2.2152,-2.1377,-2.1063,-2.0764,-2.0337,-2.0466,-2.0496,-2.0241,-2.0161,-1.9941,-1.9481,-1.8575,-1.7723,-1.7027,-1.6257,-1.5666,-1.5255,-1.5133,-1.5152,-1.517,-4.1204,-4.1018,-4.0375,-4.0087,-4.0087,-4.0087,-4.0087,-4.0087,-4.0087,-4.0087,-4.0087,-4.0087,-4.0087,-4.0087,-4.0087,-4.0054,-3.9918,-3.9225,-3.8514,-3.7821,-3.7043,-3.6315,-3.5639,-3.5571,-3.5148,-3.4336,-3.3677,-3.2628,-3.1309,-3.1224,-3.119,-3.1089,-3.048,-2.9753,-2.8941,-2.8247,-2.7469,-2.686,-2.6725,-2.6708,-2.6691,-2.664,-2.6234,-2.5406,-2.4171,-2.346,-2.3274,-2.2682,-2.2316,-2.2299,-2.2299,-2.2327,-2.2327,-2.2327,-2.2327,-2.2327,-2.2327,-2.2327,-2.2327,-2.2327,-2.2327,-2.2327,-2.2327,-2.2327,-2.2327,-2.2327,-2.231,-2.2338,-2.2625,-2.3045,-2.3588,-2.3955,-2.417,-2.419,-2.419,-2.419,-2.419,-2.419,-2.419,-2.419,-2.419,-2.419,-2.419,-2.419,-2.419,-2.419,-2.419,-2.419,-2.419,-2.419,-2.419,-2.419,-2.4153,-2.3933,-2.3199,-2.2648,-2.2488,-2.2206,-2.1614,-2.1005,-2.0986,-2.0892,-2.0419,-2.0041,-1.9847,-1.9394,-1.8678,-1.8025,-1.7392,-1.6746,-1.6215,-1.5836,-1.5429,-1.5229,-1.5183,-4.1339,-4.0476,-4.0206,-4.0087,-4.0087,-4.0087,-4.0087,-4.0087,-4.0087,-4.0087,-4.0087,-4.0087,-4.0087,-4.0087,-4.0087,-4.0087,-3.9986,-3.9326,-3.8853,-3.8481,-3.7364,-3.662,-3.6366,-3.5876,-3.5216,-3.4539,-3.4218,-3.3339,-3.2036,-3.1884,-3.1647,-3.1241,-3.0937,-3.0446,-2.9702,-2.8958,-2.818,-2.7452,-2.6962,-2.6708,-2.6708,-2.6708,-2.6556,-2.6285,-2.5338,-2.4577,-2.4086,-2.3393,-2.2794,-2.2324,-2.2321,-2.2327,-2.2327,-2.2327,-2.2327,-2.2327,-2.2327,-2.2327,-2.2327,-2.2327,-2.2327,-2.2327,-2.2327,-2.2327,-2.2327,-2.2327,-2.2327,-2.2349,-2.2537,-2.2923,-2.33,-2.3692,-2.3976,-2.4151,-2.419,-2.419,-2.419,-2.419,-2.419,-2.419,-2.419,-2.419,-2.419,-2.419,-2.419,-2.419,-2.419,-2.419,-2.419,-2.419,-2.419,-2.419,-2.419,-2.4098,-2.3896,-2.329,-2.2919,-2.2832,-2.2444,-2.1756,-2.1491,-2.0772,-2.0237,-2.0042,-1.9801,-1.9492,-1.8883,-1.8471,-1.7831,-1.7547,-1.701,-1.6356,-1.5844,-1.5546,-1.5332,-4.1576,-4.0493,-4.0172,-4.0087,-4.0087,-4.0087,-4.0087,-4.0087,-4.0087,-4.0087,-4.0087,-4.0087,-4.0087,-4.0087,-4.0087,-4.0087,-4.0037,-3.9563,-3.9225,-3.892,-3.7956,-3.7246,-3.6738,-3.6248,-3.5605,-3.4912,-3.4573,-3.3728,-3.2483,-3.2313,-3.1901,-3.1241,-3.119,-3.0835,-3.0142,-2.9583,-2.8873,-2.7909,-2.73,-2.6979,-2.6759,-2.6708,-2.6708,-2.664,-2.6218,-2.5609,-2.4864,-2.4137,-2.3469,-2.2895,-2.2714,-2.2564,-2.2344,-2.2327,-2.2327,-2.2327,-2.2327,-2.2327,-2.2327,-2.2327,-2.2327,-2.2327,-2.2327,-2.2327,-2.2327,-2.2327,-2.2327,-2.2349,-2.2436,-2.273,-2.3117,-2.3414,-2.3714,-2.4074,-2.4074,-2.3996,-2.4034,-2.3996,-2.4036,-2.417,-2.419,-2.419,-2.419,-2.419,-2.419,-2.419,-2.419,-2.419,-2.419,-2.419,-2.419,-2.419,-2.419,-2.419,-2.408,-2.3731,-2.3691,-2.363,-2.3201,-2.2514,-2.1878,-2.1043,-2.0355,-2.0094,-1.9772,-1.9522,-1.9214,-1.8834,-1.8545,-1.8281,-1.7745,-1.7066,-1.646,-1.5827,-1.5624,-4.188,-4.1102,-4.0409,-4.0121,-4.0087,-4.0087,-4.0087,-4.0087,-4.0087,-4.0087,-4.0087,-4.0087,-4.0087,-4.0087,-4.0087,-4.0087,-4.0054,-3.9986,-3.9648,-3.9089,-3.8903,-3.8091,-3.6924,-3.6738,-3.6248,-3.5504,-3.4861,-3.3795,-3.2544,-3.2408,-3.2019,-3.1376,-3.1224,-3.0886,-3.0142,-3.0023,-2.933,-2.8228,-2.7858,-2.7418,-2.681,-2.6742,-2.6708,-2.6708,-2.664,-2.6302,-2.5609,-2.4881,-2.4343,-2.3914,-2.357,-2.3071,-2.2581,-2.2446,-2.2378,-2.2395,-2.2344,-2.2327,-2.2327,-2.2327,-2.2327,-2.2327,-2.2327,-2.2327,-2.2327,-2.2327,-2.2327,-2.231,-2.2366,-2.2544,-2.3038,-2.323,-2.3522,-2.4034,-2.3896,-2.3714,-2.3714,-2.361,-2.3692,-2.4094,-2.419,-2.419,-2.419,-2.419,-2.419,-2.419,-2.419,-2.419,-2.419,-2.419,-2.419,-2.419,-2.419,-2.419,-2.419,-2.4209,-2.4424,-2.4485,-2.3911,-2.3309,-2.2829,-2.2102,-2.1186,-2.0742,-1.9736,-1.9442,-1.935,-1.9007,-1.8827,-1.8531,-1.8085,-1.7707,-1.7166,-1.655,-1.5998,-4.2354,-4.1221,-4.0967,-4.0544,-4.0104,-4.0087,-4.0087,-4.0087,-4.0087,-4.0087,-4.0087,-4.0087,-4.0087,-4.0087,-4.0087,-4.0087,-4.0087,-4.007,-3.9935,-3.9681,-3.9242,-3.8514,-3.7635,-3.7026,-3.6383,-3.5707,-3.5385,-3.4759,-3.3846,-3.3288,-3.2679,-3.2002,-3.1427,-3.1106,-3.0818,-3.0362,-2.9786,-2.9364,-2.8296,-2.7654,-2.7418,-2.6962,-2.6708,-2.6708,-2.6708,-2.6573,-2.6336,-2.5642,-2.5438,-2.5703,-2.474,-2.4036,-2.3765,-2.3325,-2.3054,-2.3004,-2.2564,-2.2327,-2.2327,-2.2344,-2.2378,-2.2344,-2.2344,-2.2327,-2.2327,-2.2361,-2.2378,-2.2361,-2.231,-2.248,-2.2789,-2.3052,-2.3549,-2.415,-2.4074,-2.3937,-2.3958,-2.3958,-2.4036,-2.4151,-2.419,-2.419,-2.419,-2.419,-2.419,-2.419,-2.419,-2.419,-2.419,-2.419,-2.419,-2.419,-2.419,-2.419,-2.419,-2.4209,-2.4339,-2.4528,-2.422,-2.3907,-2.3497,-2.3206,-2.2279,-2.1068,-2.0062,-1.9415,-1.9323,-1.9213,-1.9032,-1.886,-1.8532,-1.8174,-1.782,-1.734,-1.6793,-4.2878,-4.1999,-4.1441,-4.0933,-4.046,-4.0223,-4.0087,-4.0087,-4.0087,-4.0087,-4.0087,-4.0087,-4.0087,-4.0087,-4.0087,-4.0087,-4.0087,-4.0087,-4.0087,-4.0037,-3.9665,-3.9005,-3.8227,-3.7229,-3.6383,-3.574,-3.5622,-3.5233,-3.4489,-3.4015,-3.3305,-3.2341,-3.1816,-3.1444,-3.1207,-3.0751,-3.0412,-3.0023,-2.9154,-2.8395,-2.7823,-2.7351,-2.6979,-2.6759,-2.6708,-2.6708,-2.6657,-2.6234,-2.6232,-2.6417,-2.5537,-2.4845,-2.4523,-2.4066,-2.3799,-2.3714,-2.341,-2.3071,-2.2902,-2.3105,-2.3224,-2.3228,-2.2704,-2.2632,-2.2936,-2.3122,-2.3122,-2.3122,-2.3156,-2.3232,-2.3542,-2.3737,-2.4164,-2.4787,-2.4322,-2.4071,-2.4016,-2.3958,-2.4036,-2.4113,-2.419,-2.419,-2.419,-2.419,-2.419,-2.419,-2.419,-2.419,-2.419,-2.419,-2.419,-2.419,-2.419,-2.419,-2.419,-2.4228,-2.4266,-2.4357,-2.4386,-2.4195,-2.3958,-2.4008,-2.35,-2.1631,-2.0328,-1.9488,-1.9286,-1.9286,-1.9176,-1.9018,-1.8878,-1.8626,-1.8296,-1.81,-1.7577,-4.3453,-4.3234,-4.1931,-4.1322,-4.1085,-4.0476,-4.0172,-4.0087,-4.0087,-4.0087,-4.0087,-4.0087,-4.0087,-4.0087,-4.0087,-4.0087,-4.0087,-4.0087,-4.0087,-4.0087,-3.9952,-3.958,-3.8768,-3.7432,-3.6451,-3.5876,-3.569,-3.525,-3.4709,-3.4455,-3.3795,-3.2696,-3.2357,-3.1952,-3.1427,-3.1224,-3.0818,-3.0306,-3.0056,-2.9265,-2.8127,-2.7891,-2.7554,-2.6894,-2.6843,-2.681,-2.6674,-2.6623,-2.664,-2.6607,-2.5998,-2.5406,-2.4797,-2.4625,-2.4591,-2.4557,-2.4509,-2.4154,-2.4015,-2.4049,-2.4425,-2.4596,-2.3566,-2.297,-2.4083,-2.4255,-2.4289,-2.4239,-2.4303,-2.4475,-2.4689,-2.4843,-2.5156,-2.5595,-2.4621,-2.3907,-2.3753,-2.3671,-2.3837,-2.4113,-2.419,-2.419,-2.419,-2.419,-2.419,-2.419,-2.419,-2.419,-2.419,-2.419,-2.419,-2.419,-2.419,-2.419,-2.419,-2.4209,-2.4228,-2.4266,-2.4339,-2.43,-2.4222,-2.4331,-2.4364,-2.2508,-2.0733,-1.9874,-1.9289,-1.9292,-1.9289,-1.9191,-1.9081,-1.8975,-1.8865,-1.87,-1.8402,-4.3944,-4.3386,-4.2997,-4.2202,-4.1271,-4.0967,-4.0561,-4.0121,-4.0087,-4.0087,-4.0087,-4.0087,-4.0087,-4.0087,-4.0087,-4.0087,-4.0087,-4.0087,-4.0087,-4.0087,-4.0087,-3.9665,-3.8819,-3.7516,-3.6705,-3.6383,-3.591,-3.552,-3.5284,-3.4793,-3.4303,-3.388,-3.2831,-3.228,-3.1968,-3.1461,-3.114,-3.0852,-3.034,-2.9964,-2.9479,-2.8907,-2.8298,-2.7621,-2.752,-2.7249,-2.6776,-2.6708,-2.6708,-2.6691,-2.6539,-2.6353,-2.5998,-2.5575,-2.5304,-2.5236,-2.4814,-2.4492,-2.4438,-2.4489,-2.4625,-2.4678,-2.4577,-2.4475,-2.4455,-2.4831,-2.4814,-2.4611,-2.4523,-2.4588,-2.4675,-2.493,-2.5282,-2.5409,-2.4807,-2.4178,-2.4125,-2.4036,-2.4074,-2.417,-2.4263,-2.4263,-2.4263,-2.4208,-2.4208,-2.419,-2.419,-2.419,-2.419,-2.419,-2.419,-2.419,-2.419,-2.419,-2.419,-2.419,-2.4209,-2.4209,-2.4247,-2.4247,-2.4211,-2.4248,-2.421,-2.351,-2.1579,-2.0425,-1.9717,-1.9337,-1.9314,-1.9455,-1.9261,-1.9183,-1.9445,-1.9443,-1.9163,-4.4316,-4.3876,-4.3555,-4.2743,-4.1677,-4.1339,-4.0764,-4.0172,-4.0087,-4.0087,-4.0087,-4.0087,-4.0087,-4.0087,-4.0087,-4.0087,-4.0087,-4.0087,-4.0087,-4.0087,-4.0087,-3.9665,-3.892,-3.799,-3.7398,-3.6738,-3.6315,-3.5943,-3.5605,-3.5165,-3.4827,-3.437,-3.3626,-3.2933,-3.2263,-3.1913,-3.1489,-3.1213,-3.0734,-3.0446,-3.0091,-2.9702,-2.9093,-2.8467,-2.8281,-2.7943,-2.7283,-2.6877,-2.6708,-2.6708,-2.6691,-2.6708,-2.6674,-2.6319,-2.6048,-2.6031,-2.5625,-2.5471,-2.5406,-2.5406,-2.5423,-2.5456,-2.571,-2.5676,-2.5558,-2.5693,-2.5676,-2.5556,-2.5454,-2.5423,-2.5501,-2.5764,-2.6075,-2.6272,-2.5673,-2.5168,-2.4975,-2.5374,-2.5381,-2.5236,-2.4924,-2.4704,-2.4686,-2.4428,-2.4245,-2.419,-2.419,-2.419,-2.419,-2.419,-2.419,-2.419,-2.419,-2.419,-2.419,-2.419,-2.419,-2.419,-2.419,-2.419,-2.419,-2.419,-2.4173,-2.3732,-2.2224,-2.1125,-2.0649,-2.014,-1.9882,-1.9895,-1.9583,-1.9468,-1.9705,-1.9979,-1.9724,-4.457,-4.4519,-4.3826,-4.3047,-4.2236,-4.1576,-4.0899,-4.0172,-4.0087,-4.0087,-4.0087,-4.0087,-4.0087,-4.0087,-4.0087,-4.0087,-4.0087,-4.0087,-4.0087,-4.0087,-4.0037,-3.9732,-3.9259,-3.8886,-3.8193,-3.728,-3.6941,-3.64,-3.5926,-3.569,-3.525,-3.4742,-3.4489,-3.3795,-3.2906,-3.2434,-3.1941,-3.1484,-3.1173,-3.0835,-3.0446,-3.0226,-2.9837,-2.9194,-2.8873,-2.845,-2.7791,-2.7232,-2.6826,-2.6708,-2.6708,-2.6708,-2.6691,-2.6674,-2.6657,-2.6623,-2.6522,-2.6505,-2.6607,-2.6471,-2.659,-2.6522,-2.6556,-2.6708,-2.6539,-2.6505,-2.6505,-2.642,-2.6674,-2.6505,-2.6538,-2.6948,-2.7082,-2.7068,-2.679,-2.6598,-2.6435,-2.69,-2.7218,-2.6741,-2.597,-2.5603,-2.5309,-2.4869,-2.4355,-2.4593,-2.4447,-2.419,-2.419,-2.419,-2.419,-2.419,-2.419,-2.419,-2.419,-2.419,-2.419,-2.419,-2.419,-2.419,-2.419,-2.4209,-2.4191,-2.3713,-2.2923,-2.2446,-2.2169,-2.1637,-2.096,-2.0574,-2.0446,-2.0059,-1.9811,-2.0158,-2.0153,-4.457,-4.4553,-4.4384,-4.3538,-4.2388,-4.21,-4.1288,-4.0104,-4.0087,-4.0087,-4.0087,-4.0087,-4.0087,-4.0087,-4.0087,-4.0087,-4.0087,-4.0087,-4.0087,-4.0087,-4.0087,-4.002,-3.9698,-3.9309,-3.8836,-3.821,-3.7263,-3.6705,-3.6417,-3.5893,-3.5554,-3.5334,-3.4793,-3.4353,-3.3939,-3.2889,-3.2286,-3.1968,-3.1512,-3.1157,-3.097,-3.0869,-3.0565,-2.9888,-2.933,-2.8636,-2.7977,-2.762,-2.73,-2.6877,-2.6742,-2.6793,-2.6708,-2.6708,-2.6708,-2.6708,-2.6708,-2.6708,-2.6708,-2.6708,-2.6708,-2.6708,-2.6708,-2.6708,-2.6708,-2.6708,-2.6708,-2.6708,-2.6708,-2.6708,-2.6708,-2.7051,-2.7115,-2.7043,-2.7338,-2.7522,-2.7288,-2.7301,-2.7305,-2.7178,-2.672,-2.6337,-2.6279,-2.5621,-2.5217,-2.5089,-2.4722,-2.43,-2.419,-2.419,-2.419,-2.419,-2.419,-2.419,-2.419,-2.419,-2.419,-2.419,-2.419,-2.419,-2.419,-2.419,-2.4209,-2.4209,-2.408,-2.3658,-2.318,-2.2664,-2.1892,-2.1618,-2.1288,-2.0889,-2.0622,-2.0712,-2.0733,-4.457,-4.457,-4.457,-4.369,-4.2422,-4.2269,-4.1441,-4.0273,-4.0087,-4.0087,-4.0087,-4.0087,-4.0087,-4.0087,-4.0087,-4.0087,-4.0087,-4.0087,-4.0087,-4.0087,-4.0087,-4.0087,-4.0054,-3.9681,-3.936,-3.8903,-3.7889,-3.7195,-3.6671,-3.6079,-3.5622,-3.5622,-3.5199,-3.481,-3.4539,-3.366,-3.2966,-3.2364,-3.1958,-3.1562,-3.1241,-3.1173,-3.1089,-3.0565,-2.9922,-2.9279,-2.8958,-2.8535,-2.7977,-2.7435,-2.7232,-2.7046,-2.6742,-2.6708,-2.6708,-2.6708,-2.6708,-2.6708,-2.6708,-2.6708,-2.6708,-2.6708,-2.6708,-2.6708,-2.6708,-2.6708,-2.6708,-2.6708,-2.6708,-2.6691,-2.6725,-2.6841,-2.6891,-2.6873,-2.7144,-2.7378,-2.723,-2.731,-2.77,-2.7783,-2.7415,-2.7018,-2.6654,-2.6289,-2.5938,-2.571,-2.5309,-2.487,-2.4208,-2.419,-2.419,-2.419,-2.419,-2.419,-2.419,-2.419,-2.419,-2.419,-2.419,-2.419,-2.419,-2.419,-2.419,-2.419,-2.419,-2.4209,-2.375,-2.3253,-2.2793,-2.2427,-2.2041,-2.1705,-2.1504,-2.1512,-2.1518,-4.457,-4.457,-4.457,-4.369,-4.2422,-4.2286,-4.1441,-4.0189,-4.0087,-4.0087,-4.0087,-4.0087,-4.0087,-4.0087,-4.0087,-4.0087,-4.0087,-4.0087,-4.0087,-4.0087,-4.0087,-4.0087,-4.0054,-3.9952,-3.9732,-3.9106,-3.8413,-3.7736,-3.6992,-3.6214,-3.5842,-3.5673,-3.5622,-3.5267,-3.4793,-3.4455,-3.3863,-3.2933,-3.2432,-3.2009,-3.1461,-3.1309,-3.1157,-3.1004,-3.0632,-3.0142,-2.982,-2.9381,-2.8789,-2.8078,-2.7994,-2.7655,-2.7199,-2.6742,-2.6708,-2.6708,-2.6708,-2.6708,-2.6708,-2.6708,-2.6708,-2.6708,-2.6708,-2.6708,-2.6708,-2.6708,-2.6708,-2.6708,-2.6708,-2.6708,-2.6708,-2.6758,-2.6725,-2.6725,-2.6691,-2.6708,-2.6791,-2.7115,-2.7642,-2.811,-2.7857,-2.7562,-2.7344,-2.7055,-2.6677,-2.6309,-2.5902,-2.5421,-2.4759,-2.419,-2.419,-2.419,-2.419,-2.419,-2.419,-2.419,-2.419,-2.419,-2.419,-2.419,-2.419,-2.419,-2.419,-2.419,-2.419,-2.4209,-2.4135,-2.3713,-2.3327,-2.3088,-2.2868,-2.261,-2.2451,-2.2327,-2.2239,-4.457,-4.457,-4.457,-4.369,-4.2405,-4.2286,-4.1407,-4.0223,-4.0087,-4.0087,-4.0087,-4.0087,-4.0087,-4.0087,-4.0087,-4.0087,-4.0087,-4.0087,-4.0087,-4.0087,-4.0087,-4.0087,-4.0087,-4.007,-3.9986,-3.9766,-3.9157,-3.843,-3.7702,-3.6975,-3.6231,-3.5774,-3.5639,-3.547,-3.5233,-3.4861,-3.4438,-3.3838,-3.3109,-3.25,-3.2009,-3.1495,-3.119,-3.119,-3.097,-3.0683,-3.026,-3.0006,-2.9583,-2.889,-2.8789,-2.8704,-2.8281,-2.7402,-2.6928,-2.6793,-2.6725,-2.6708,-2.681,-2.6708,-2.6708,-2.6708,-2.6708,-2.6792,-2.6792,-2.6708,-2.6708,-2.6725,-2.6742,-2.6742,-2.6708,-2.6776,-2.6708,-2.6708,-2.6708,-2.6708,-2.6725,-2.6841,-2.6954,-2.7357,-2.7695,-2.8018,-2.772,-2.7549,-2.7393,-2.7108,-2.6849,-2.6243,-2.5511,-2.4759,-2.419,-2.419,-2.419,-2.419,-2.419,-2.419,-2.419,-2.419,-2.419,-2.419,-2.419,-2.419,-2.419,-2.419,-2.419,-2.419,-2.408,-2.3951,-2.3896,-2.3657,-2.3584,-2.3492,-2.3251,-2.298,-2.2821,-4.457,-4.4536,-4.4164,-4.3335,-4.2337,-4.188,-4.1119,-4.0172,-4.0087,-4.0087,-4.0087,-4.0087,-4.0087,-4.0087,-4.0087,-4.0087,-4.0087,-4.0087,-4.0087,-4.0087,-4.0087,-4.0087,-4.0087,-4.0087,-4.0087,-3.9986,-3.9665,-3.914,-3.8396,-3.728,-3.6654,-3.6231,-3.5859,-3.5639,-3.5571,-3.5284,-3.4844,-3.4498,-3.4067,-3.3303,-3.2364,-3.1579,-3.1258,-3.119,-3.119,-3.0987,-3.0784,-3.0666,-3.0311,-2.9736,-2.9567,-2.9347,-2.8907,-2.8383,-2.7689,-2.7351,-2.6979,-2.6928,-2.708,-2.7029,-2.7012,-2.7723,-2.7232,-2.7182,-2.7402,-2.7284,-2.681,-2.6826,-2.7165,-2.7114,-2.6759,-2.7046,-2.7063,-2.6776,-2.6708,-2.6708,-2.6708,-2.6708,-2.6708,-2.6725,-2.7199,-2.7606,-2.7784,-2.7745,-2.7915,-2.7876,-2.7702,-2.7112,-2.6371,-2.5383,-2.4538,-2.419,-2.419,-2.419,-2.419,-2.419,-2.419,-2.419,-2.419,-2.419,-2.419,-2.419,-2.419,-2.419,-2.419,-2.419,-2.4171,-2.408,-2.4153,-2.419,-2.4006,-2.3841,-2.3768,-2.3637,-2.3473,-4.457,-4.4519,-4.3741,-4.2997,-4.2236,-4.1525,-4.0798,-4.0172,-4.0087,-4.0087,-4.0087,-4.0087,-4.0087,-4.0087,-4.0087,-4.0087,-4.0087,-4.0087,-4.0087,-4.0087,-4.0087,-4.0087,-4.0087,-4.0087,-4.0087,-4.007,-4.0003,-3.9681,-3.8853,-3.7922,-3.7212,-3.6654,-3.6096,-3.5723,-3.5639,-3.5537,-3.5165,-3.5074,-3.4992,-3.4245,-3.2635,-3.1749,-3.1309,-3.119,-3.119,-3.1173,-3.1106,-3.1089,-3.0869,-3.048,-3.026,-3.0074,-2.9533,-2.9296,-2.8924,-2.8281,-2.7571,-2.7604,-2.7706,-2.7655,-2.7824,-2.8586,-2.7689,-2.793,-2.8271,-2.7947,-2.7283,-2.7266,-2.7621,-2.7892,-2.7554,-2.7723,-2.774,-2.7368,-2.6996,-2.6708,-2.6708,-2.6708,-2.6708,-2.6825,-2.7051,-2.7255,-2.7465,-2.7798,-2.7986,-2.8139,-2.7991,-2.8255,-2.7427,-2.5949,-2.5071,-2.4428,-2.419,-2.419,-2.419,-2.419,-2.419,-2.419,-2.419,-2.419,-2.419,-2.419,-2.419,-2.419,-2.419,-2.419,-2.419,-2.419,-2.419,-2.419,-2.419,-2.4135,-2.4007,-2.4045,-2.3985,-4.457,-4.4502,-4.3724,-4.2997,-4.2219,-4.1474,-4.0747,-4.0121,-4.0087,-4.0087,-4.0087,-4.0087,-4.0087,-4.0087,-4.0087,-4.0087,-4.0087,-4.0087,-4.0087,-4.0087,-4.0087,-4.0087,-4.0087,-4.0087,-4.0087,-4.0087,-4.0087,-3.9665,-3.914,-3.8751,-3.8007,-3.7127,-3.6721,-3.6349,-3.5825,-3.5673,-3.5571,-3.5385,-3.4939,-3.3939,-3.2703,-3.2256,-3.1833,-3.141,-3.1258,-3.1224,-3.1224,-3.119,-3.1072,-3.1055,-3.1004,-3.0987,-3.0835,-3.0294,-3.0023,-2.9651,-2.9211,-2.8738,-2.8805,-2.8569,-2.867,-2.9042,-2.8399,-2.8452,-2.8844,-2.8963,-2.8586,-2.8721,-2.8822,-2.8704,-2.8518,-2.8721,-2.8755,-2.8247,-2.7571,-2.7012,-2.6742,-2.6708,-2.6708,-2.6708,-2.6873,-2.7051,-2.7255,-2.7678,-2.8047,-2.8201,-2.8391,-2.8628,-2.8338,-2.679,-2.5254,-2.452,-2.4208,-2.419,-2.419,-2.419,-2.419,-2.419,-2.419,-2.419,-2.419,-2.419,-2.419,-2.419,-2.419,-2.419,-2.419,-2.419,-2.419,-2.4135,-2.4061,-2.4116,-2.419,-2.4266,-2.4321,-4.3284,-4.3217,-4.2489,-4.1982,-4.1593,-4.0882,-4.0392,-4.0138,-4.0087,-4.0087,-4.0087,-4.0087,-4.0087,-4.007,-4.0087,-4.0087,-4.0087,-4.0087,-4.0087,-4.0087,-4.0087,-4.0087,-4.0087,-4.0087,-4.0087,-4.0087,-4.007,-4.0003,-3.9563,-3.914,-3.8531,-3.8041,-3.7259,-3.6654,-3.6214,-3.5825,-3.5673,-3.5402,-3.4895,-3.4201,-3.3592,-3.3102,-3.256,-3.1833,-3.1799,-3.1579,-3.1309,-3.119,-3.119,-3.119,-3.119,-3.119,-3.114,-3.0903,-3.0717,-3.07,-3.0446,-3.0057,-2.9668,-2.9262,-2.9482,-2.9753,-2.9414,-2.9144,-2.9837,-2.9829,-2.9391,-2.8991,-2.9397,-2.9431,-2.9262,-2.9397,-2.9076,-2.867,-2.8349,-2.7689,-2.7182,-2.6759,-2.6708,-2.6708,-2.6725,-2.6873,-2.7115,-2.753,-2.7869,-2.8047,-2.8254,-2.8547,-2.8244,-2.7306,-2.5786,-2.4373,-2.4226,-2.419,-2.419,-2.419,-2.419,-2.419,-2.419,-2.419,-2.419,-2.419,-2.419,-2.419,-2.419,-2.419,-2.419,-2.4171,-2.4135,-2.4025,-2.3896,-2.3969,-2.4043,-2.419,-2.4247,-4.1914,-4.1711,-4.1356,-4.1204,-4.1136,-4.0392,-4.0087,-4.007,-3.9833,-3.9782,-3.9782,-3.9799,-3.985,-4.007,-4.0087,-4.0087,-4.0087,-4.0087,-4.0087,-4.0087,-4.0087,-4.0087,-4.0087,-4.0087,-4.0087,-4.0087,-4.0087,-4.0037,-3.9884,-3.9563,-3.9225,-3.8971,-3.8007,-3.733,-3.6924,-3.6383,-3.5943,-3.5571,-3.5115,-3.4692,-3.4336,-3.3914,-3.3288,-3.2747,-3.2357,-3.2019,-3.1546,-3.1224,-3.119,-3.119,-3.119,-3.119,-3.1173,-3.1123,-3.1089,-3.1089,-3.097,-3.0818,-3.0395,-3.0091,-3.0243,-3.0429,-3.048,-3.0057,-3.0751,-3.0594,-3.0258,-2.9753,-3.0057,-3.0023,-2.982,-3.0125,-2.9973,-2.9719,-2.9397,-2.867,-2.7977,-2.7503,-2.6962,-2.6708,-2.6708,-2.6708,-2.6971,-2.7426,-2.7725,-2.7897,-2.8147,-2.8412,-2.81,-2.7578,-2.6557,-2.5144,-2.474,-2.4704,-2.4593,-2.452,-2.441,-2.4226,-2.4226,-2.419,-2.419,-2.419,-2.419,-2.419,-2.419,-2.419,-2.419,-2.4135,-2.408,-2.4061,-2.4006,-2.3841,-2.3878,-2.4043,-2.4172,-4.0865,-4.0273,-4.0916,-4.117,-4.1102,-4.0392,-4.0087,-4.002,-3.9315,-3.9032,-3.8962,-3.9016,-3.9489,-3.9901,-4.007,-4.0087,-4.0087,-4.0087,-4.0087,-4.0087,-4.0087,-4.0087,-4.0087,-4.0087,-4.0087,-4.0087,-4.0087,-4.0087,-4.007,-3.9952,-3.9512,-3.9005,-3.8633,-3.8328,-3.7753,-3.6958,-3.6265,-3.5876,-3.5487,-3.5098,-3.4759,-3.4404,-3.4049,-3.3355,-3.273,-3.2256,-3.2171,-3.1732,-3.1376,-3.1376,-3.136,-3.1224,-3.1224,-3.119,-3.119,-3.119,-3.119,-3.1089,-3.0869,-3.0835,-3.1021,-3.1106,-3.1021,-3.0818,-3.1123,-3.1173,-3.1004,-3.0818,-3.0835,-3.0903,-3.0886,-3.1021,-3.0751,-3.0598,-3.0362,-3.0209,-2.9313,-2.8163,-2.7604,-2.6945,-2.6742,-2.6776,-2.6843,-2.7284,-2.7487,-2.7648,-2.789,-2.8192,-2.8306,-2.7862,-2.7251,-2.63,-2.5658,-2.5401,-2.5273,-2.5071,-2.4685,-2.4428,-2.4337,-2.4263,-2.419,-2.419,-2.419,-2.419,-2.419,-2.419,-2.419,-2.4153,-2.4153,-2.4171,-2.4116,-2.3988,-2.3969,-2.4116,-2.4171,-4.0358,-4.0104,-4.0409,-4.051,-4.051,-4.0206,-4.0087,-3.9952,-3.9246,-3.8635,-3.8246,-3.869,-3.9086,-3.942,-3.9952,-4.0087,-4.0087,-4.0087,-4.0087,-4.0087,-4.0087,-4.0087,-4.0087,-4.0087,-4.0087,-4.0087,-4.0087,-4.0087,-4.0087,-4.0087,-3.9986,-3.9631,-3.9242,-3.8903,-3.8311,-3.7516,-3.6755,-3.6332,-3.5893,-3.5419,-3.5318,-3.5148,-3.4827,-3.4083,-3.3914,-3.3372,-3.3034,-3.273,-3.2324,-3.2002,-3.1884,-3.1664,-3.1376,-3.1309,-3.1258,-3.1241,-3.1241,-3.119,-3.119,-3.119,-3.119,-3.119,-3.119,-3.119,-3.119,-3.119,-3.119,-3.1173,-3.119,-3.119,-3.1173,-3.1157,-3.1106,-3.1173,-3.119,-3.119,-3.0649,-2.9364,-2.8755,-2.8332,-2.745,-2.6909,-2.6978,-2.7147,-2.7284,-2.7439,-2.7672,-2.7931,-2.8095,-2.8195,-2.7624,-2.7196,-2.6576,-2.6227,-2.608,-2.5548,-2.4961,-2.4704,-2.452,-2.4373,-2.4263,-2.419,-2.419,-2.419,-2.419,-2.419,-2.419,-2.419,-2.4116,-2.3951,-2.4043,-2.4171,-2.4171,-2.419,-2.419,-4.0087,-4.0087,-4.0087,-4.0087,-4.0087,-4.0087,-4.0087,-3.9952,-3.9262,-3.8469,-3.7879,-3.8358,-3.8745,-3.9032,-3.9731,-4.007,-4.0087,-4.0087,-4.0087,-4.0087,-4.0087,-4.0087,-4.0087,-4.0087,-4.0087,-4.0087,-4.0087,-4.0087,-4.0087,-4.0087,-4.0037,-3.9884,-3.9614,-3.9394,-3.9056,-3.8176,-3.7347,-3.6992,-3.6417,-3.5977,-3.596,-3.5656,-3.5453,-3.4776,-3.4523,-3.4184,-3.3728,-3.3389,-3.3034,-3.2763,-3.2577,-3.2357,-3.1985,-3.1664,-3.1546,-3.1461,-3.1343,-3.1224,-3.1207,-3.119,-3.119,-3.119,-3.119,-3.119,-3.119,-3.119,-3.119,-3.119,-3.119,-3.119,-3.119,-3.119,-3.119,-3.119,-3.119,-3.119,-3.119,-3.0412,-3.0125,-2.977,-2.8749,-2.7719,-2.7585,-2.7674,-2.7265,-2.7414,-2.7648,-2.7901,-2.8138,-2.8184,-2.8085,-2.7716,-2.7402,-2.7126,-2.6906,-2.63,-2.5676,-2.5127,-2.4888,-2.452,-2.4392,-2.4281,-2.4208,-2.419,-2.419,-2.419,-2.419,-2.419,-2.3914,-2.3602,-2.3841,-2.419,-2.419,-2.419,-2.419,-4.0087,-4.0087,-4.0087,-4.0087,-4.0087,-4.0087,-4.0087,-3.9952,-3.9156,-3.8358,-3.769,-3.779,-3.8189,-3.8854,-3.9558,-3.9952,-4.0087,-4.0087,-4.0087,-4.0087,-4.0087,-4.0087,-4.0087,-4.0087,-4.0087,-4.0087,-4.007,-4.007,-4.002,-4.0087,-4.0087,-3.985,-3.9528,-3.9665,-3.9868,-3.9292,-3.8582,-3.7889,-3.7081,-3.6823,-3.662,-3.6129,-3.5757,-3.5537,-3.4979,-3.4607,-3.4438,-3.4066,-3.3728,-3.3457,-3.3372,-3.322,-3.3017,-3.251,-3.2307,-3.2256,-3.1681,-3.1393,-3.1292,-3.1258,-3.1326,-3.1241,-3.119,-3.119,-3.119,-3.119,-3.119,-3.119,-3.119,-3.119,-3.119,-3.119,-3.119,-3.119,-3.119,-3.119,-3.119,-3.1173,-3.0768,-3.0446,-2.9668,-2.8873,-2.8619,-2.8264,-2.7537,-2.7415,-2.7622,-2.7833,-2.8021,-2.8128,-2.8098,-2.8124,-2.789,-2.7889,-2.7596,-2.6995,-2.6392,-2.5768,-2.5237,-2.4907,-2.4538,-2.4337,-2.4263,-2.4208,-2.417,-2.4151,-2.4133,-2.4152,-2.3913,-2.3766,-2.3969,-2.419,-2.419,-2.419,-2.419,-4.0087,-4.0087,-4.0087,-4.0087,-4.0087,-4.0087,-4.0087,-3.985,-3.8778,-3.7732,-3.7144,-3.7024,-3.744,-3.8189,-3.8978,-3.9594,-4.002,-4.0087,-4.0087,-4.007,-4.002,-4.0087,-4.007,-3.9901,-4.002,-4.007,-4.007,-3.9662,-3.9262,-3.9679,-3.9279,-3.8887,-3.8778,-3.887,-3.8957,-3.8598,-3.8,-3.7852,-3.7567,-3.7499,-3.7415,-3.6823,-3.6366,-3.6332,-3.5588,-3.5233,-3.5165,-3.4776,-3.4539,-3.4201,-3.4117,-3.3973,-3.366,-3.3111,-3.3035,-3.3009,-3.2662,-3.2679,-3.2662,-3.2611,-3.2154,-3.1664,-3.1326,-3.136,-3.1224,-3.119,-3.119,-3.1224,-3.1292,-3.1275,-3.119,-3.119,-3.119,-3.119,-3.119,-3.119,-3.119,-3.119,-3.1004,-3.0734,-3.0121,-2.9448,-2.9025,-2.8856,-2.8247,-2.7521,-2.7624,-2.7513,-2.7631,-2.7918,-2.8013,-2.825,-2.83,-2.8427,-2.8242,-2.762,-2.7266,-2.6833,-2.6027,-2.5274,-2.4925,-2.4502,-2.4107,-2.3896,-2.3996,-2.4074,-2.3858,-2.3738,-2.3978,-2.4075,-2.4094,-2.417,-2.419,-2.419,-2.419,-4.0087,-4.0087,-4.0087,-4.0087,-4.0087,-4.0087,-3.9969,-3.9489,-3.8318,-3.7338,-3.6722,-3.6615,-3.6843,-3.7557,-3.8469,-3.9069,-3.9731,-4.002,-3.9782,-3.9782,-3.9662,-3.9437,-3.9279,-3.9332,-3.9102,-3.9332,-3.9279,-3.8941,-3.8541,-3.9049,-3.8723,-3.8035,-3.7515,-3.7658,-3.7915,-3.7792,-3.7997,-3.8035,-3.8019,-3.7935,-3.7945,-3.7601,-3.7043,-3.6705,-3.6265,-3.591,-3.5707,-3.5554,-3.5419,-3.4996,-3.4803,-3.4651,-3.4226,-3.3903,-3.3835,-3.3786,-3.3508,-3.3423,-3.3305,-3.3288,-3.278,-3.2225,-3.1979,-3.1968,-3.1968,-3.2121,-3.1867,-3.1749,-3.1579,-3.141,-3.1326,-3.1326,-3.1258,-3.1258,-3.1207,-3.1207,-3.119,-3.119,-3.1173,-3.0881,-3.0712,-3.0057,-2.9482,-2.9262,-2.8975,-2.8268,-2.7623,-2.7463,-2.7327,-2.7517,-2.7823,-2.8075,-2.8246,-2.8286,-2.8347,-2.8191,-2.7921,-2.7801,-2.6979,-2.6027,-2.5127,-2.4685,-2.4133,-2.3544,-2.3427,-2.3335,-2.3264,-2.3315,-2.3717,-2.3917,-2.3955,-2.4054,-2.417,-2.419,-2.419,-4.0087,-4.0087,-4.0087,-4.0087,-4.002,-3.9901,-3.9506,-3.8854,-3.8092,-3.7263,-3.6615,-3.6554,-3.6615,-3.6888,-3.8157,-3.8745,-3.8924,-3.9575,-3.9332,-3.9032,-3.887,-3.8486,-3.8206,-3.8092,-3.8262,-3.8035,-3.7978,-3.8149,-3.7822,-3.769,-3.7632,-3.7515,-3.6859,-3.6798,-3.6872,-3.7168,-3.7655,-3.7841,-3.8019,-3.8093,-3.8202,-3.7936,-3.7251,-3.6848,-3.6491,-3.6068,-3.5795,-3.5583,-3.5577,-3.5504,-3.552,-3.5554,-3.5313,-3.4903,-3.4661,-3.4378,-3.3897,-3.3795,-3.3744,-3.3812,-3.3736,-3.349,-3.3499,-3.3448,-3.3339,-3.3194,-3.2713,-3.2459,-3.229,-3.1884,-3.1596,-3.1495,-3.1393,-3.1326,-3.1241,-3.1224,-3.119,-3.119,-3.119,-3.1123,-3.1106,-3.07,-3.0277,-2.9989,-2.9668,-2.8943,-2.8235,-2.7776,-2.7583,-2.7166,-2.7474,-2.7754,-2.7936,-2.8047,-2.8103,-2.8222,-2.8245,-2.8044,-2.7801,-2.6943,-2.5952,-2.4919,-2.4275,-2.3651,-2.2868,-2.266,-2.3003,-2.3293,-2.3592,-2.3735,-2.3795,-2.4034,-2.417,-2.419,-2.419,-4.0087,-4.0087,-4.0087,-3.9782,-3.9209,-3.8707,-3.858,-3.869,-3.7541,-3.6798,-3.6554,-3.607,-3.6117,-3.6661,-3.7068,-3.76,-3.8019,-3.8334,-3.8262,-3.8149,-3.8076,-3.7962,-3.7806,-3.7648,-3.7764,-3.7764,-3.7648,-3.7338,-3.6935,-3.66,-3.6585,-3.6737,-3.6228,-3.5943,-3.5943,-3.607,-3.6692,-3.7216,-3.7502,-3.7945,-3.7948,-3.7621,-3.7077,-3.6754,-3.6406,-3.6041,-3.5806,-3.571,-3.5667,-3.569,-3.5656,-3.5622,-3.5526,-3.5363,-3.5273,-3.5273,-3.5098,-3.4996,-3.4996,-3.4962,-3.4851,-3.4817,-3.4834,-3.4948,-3.4703,-3.4084,-3.344,-3.3203,-3.3068,-3.273,-3.2391,-3.2205,-3.1952,-3.1749,-3.1546,-3.1207,-3.119,-3.119,-3.119,-3.119,-3.119,-3.1123,-3.0751,-3.0717,-3.0328,-2.96,-2.8943,-2.837,-2.7709,-2.7298,-2.7085,-2.7396,-2.753,-2.7631,-2.7946,-2.8121,-2.8224,-2.8257,-2.796,-2.7657,-2.6874,-2.5819,-2.4704,-2.3725,-2.2929,-2.2833,-2.3058,-2.3333,-2.3526,-2.361,-2.3692,-2.3955,-2.417,-2.417,-2.419,-4.0087,-4.007,-3.9731,-3.9156,-3.8414,-3.769,-3.7616,-3.7758,-3.6948,-3.6492,-3.6117,-3.5718,-3.5782,-3.6102,-3.6508,-3.6904,-3.7322,-3.7748,-3.7748,-3.7322,-3.7338,-3.7055,-3.6995,-3.6951,-3.6784,-3.689,-3.689,-3.6477,-3.618,-3.5894,-3.5831,-3.6054,-3.5619,-3.5554,-3.5554,-3.5668,-3.5782,-3.6352,-3.6843,-3.7413,-3.7456,-3.7243,-3.7061,-3.6638,-3.6296,-3.6282,-3.5992,-3.598,-3.6021,-3.5977,-3.591,-3.5622,-3.5622,-3.556,-3.556,-3.5571,-3.5537,-3.547,-3.547,-3.552,-3.5588,-3.5639,-3.5622,-3.5548,-3.5338,-3.482,-3.4303,-3.3947,-3.3846,-3.3677,-3.3339,-3.3017,-3.2645,-3.233,-3.1765,-3.1224,-3.119,-3.119,-3.119,-3.119,-3.119,-3.119,-3.1157,-3.119,-3.0937,-3.0125,-2.9465,-2.8943,-2.8081,-2.725,-2.6994,-2.7019,-2.7115,-2.7192,-2.7542,-2.789,-2.7949,-2.8031,-2.7994,-2.7673,-2.7314,-2.6835,-2.5822,-2.4437,-2.3007,-2.2962,-2.2908,-2.3212,-2.3414,-2.3414,-2.35,-2.3756,-2.3996,-2.4132,-2.4151,-4.0087,-4.002,-3.9139,-3.8486,-3.7748,-3.6919,-3.6554,-3.6508,-3.6492,-3.6117,-3.5619,-3.5489,-3.5569,-3.5782,-3.6117,-3.6384,-3.6631,-3.6995,-3.6935,-3.6554,-3.6508,-3.629,-3.5894,-3.5554,-3.591,-3.5668,-3.5604,-3.5894,-3.5668,-3.5489,-3.5489,-3.5489,-3.5489,-3.5489,-3.5489,-3.5489,-3.5604,-3.5782,-3.6228,-3.6753,-3.7235,-3.7404,-3.7345,-3.6762,-3.6899,-3.7143,-3.6781,-3.6654,-3.6747,-3.6523,-3.6148,-3.5669,-3.5626,-3.5611,-3.5594,-3.5639,-3.5639,-3.5639,-3.5639,-3.5639,-3.5639,-3.5639,-3.5622,-3.5605,-3.5436,-3.5334,-3.4912,-3.4692,-3.4573,-3.4455,-3.4184,-3.3761,-3.3372,-3.273,-3.207,-3.1749,-3.1698,-3.1512,-3.119,-3.119,-3.119,-3.119,-3.119,-3.119,-3.1123,-3.0446,-2.9922,-2.9414,-2.86,-2.7553,-2.7013,-2.6792,-2.6841,-2.6971,-2.7147,-2.7439,-2.7589,-2.7654,-2.7773,-2.7771,-2.745,-2.7205,-2.7011,-2.497,-2.2909,-2.2699,-2.2667,-2.3017,-2.3159,-2.3,-2.3153,-2.3522,-2.3756,-2.3917,-2.3996,-4.0087,-3.9969,-3.8596,-3.7921,-3.7648,-3.6368,-3.5782,-3.5782,-3.5782,-3.5718,-3.5504,-3.5489,-3.5489,-3.5554,-3.5718,-3.5879,-3.5943,-3.618,-3.5958,-3.5894,-3.5831,-3.5831,-3.5569,-3.5489,-3.5489,-3.5489,-3.5489,-3.5489,-3.5489,-3.5489,-3.5489,-3.5489,-3.5489,-3.5489,-3.5489,-3.5489,-3.5489,-3.5489,-3.5718,-3.5943,-3.6196,-3.6133,-3.5932,-3.5876,-3.6115,-3.6572,-3.6325,-3.6233,-3.6521,-3.6651,-3.6034,-3.5673,-3.5613,-3.5622,-3.5628,-3.5639,-3.5628,-3.5639,-3.5639,-3.5639,-3.5639,-3.5639,-3.5639,-3.5639,-3.5622,-3.5639,-3.5554,-3.5385,-3.525,-3.5131,-3.4945,-3.4506,-3.4015,-3.3203,-3.2442,-3.2341,-3.2222,-3.1698,-3.1241,-3.119,-3.119,-3.119,-3.119,-3.1157,-3.1089,-3.0768,-3.0311,-2.9732,-2.907,-2.814,-2.713,-2.686,-2.6759,-2.6825,-2.6939,-2.7051,-2.7241,-2.7409,-2.7537,-2.7549,-2.754,-2.6954,-2.6282,-2.4423,-2.2822,-2.2716,-2.2706,-2.29,-2.2958,-2.2738,-2.295,-2.3369,-2.3459,-2.3584,-2.3671,-4.0087,-3.9901,-3.8446,-3.7573,-3.71,-3.5958,-3.5489,-3.5554,-3.5831,-3.5991,-3.5894,-3.5668,-3.5489,-3.5489,-3.5489,-3.5554,-3.5489,-3.5489,-3.5604,-3.5554,-3.5489,-3.5554,-3.5489,-3.5489,-3.5489,-3.5489,-3.5489,-3.5489,-3.5489,-3.5489,-3.5489,-3.5489,-3.5489,-3.5489,-3.5489,-3.5489,-3.5489,-3.5489,-3.5489,-3.5489,-3.5489,-3.5489,-3.5489,-3.5488,-3.5859,-3.6222,-3.6342,-3.6292,-3.6718,-3.6933,-3.6574,-3.591,-3.572,-3.5613,-3.5604,-3.5643,-3.5585,-3.5639,-3.5639,-3.5639,-3.5639,-3.5639,-3.5639,-3.5639,-3.5639,-3.5639,-3.5639,-3.5487,-3.5487,-3.5385,-3.5368,-3.5047,-3.4641,-3.3981,-3.3339,-3.2983,-3.2256,-3.1444,-3.1207,-3.119,-3.119,-3.119,-3.119,-3.119,-3.114,-3.1123,-3.0649,-3.0565,-2.9796,-2.8898,-2.782,-2.6877,-2.6742,-2.6708,-2.6791,-2.6873,-2.6954,-2.7115,-2.7286,-2.7172,-2.7016,-2.6371,-2.5381,-2.4062,-2.3153,-2.2898,-2.2939,-2.2877,-2.2721,-2.2508,-2.2849,-2.33,-2.3277,-2.323,-2.33,-4.0087,-3.9901,-3.8446,-3.7397,-3.6676,-3.5831,-3.5554,-3.5782,-3.6337,-3.6676,-3.6615,-3.6006,-3.5733,-3.5797,-3.5489,-3.5554,-3.5619,-3.5569,-3.5504,-3.5489,-3.5489,-3.5489,-3.5489,-3.5489,-3.5489,-3.5489,-3.5489,-3.5489,-3.5489,-3.5489,-3.5489,-3.5489,-3.5489,-3.5489,-3.5489,-3.5489,-3.5489,-3.5489,-3.5489,-3.5489,-3.5489,-3.5489,-3.5489,-3.5718,-3.6039,-3.643,-3.6565,-3.6613,-3.6982,-3.7005,-3.6739,-3.6136,-3.577,-3.557,-3.5611,-3.5597,-3.5618,-3.5631,-3.5628,-3.5639,-3.5639,-3.5639,-3.5639,-3.5639,-3.5639,-3.5639,-3.5639,-3.5639,-3.5639,-3.5622,-3.5605,-3.552,-3.5115,-3.4675,-3.4083,-3.3339,-3.229,-3.1326,-3.1207,-3.119,-3.119,-3.119,-3.119,-3.119,-3.119,-3.119,-3.119,-3.119,-3.0869,-2.9833,-2.8766,-2.7553,-2.6742,-2.6708,-2.6708,-2.6758,-2.6808,-2.6841,-2.6971,-2.6825,-2.664,-2.6349,-2.5635,-2.4371,-2.3646,-2.327,-2.2819,-2.2603,-2.2432,-2.2338,-2.2669,-2.3038,-2.2933,-2.2908,-2.294,-4.0087,-3.9952,-3.843,-3.769,-3.7354,-3.607,-3.5846,-3.6322,-3.6492,-3.6964,-3.716,-3.6798,-3.6692,-3.7235,-3.5973,-3.5668,-3.5958,-3.5733,-3.5569,-3.5489,-3.5489,-3.5489,-3.5489,-3.5489,-3.5489,-3.5489,-3.5489,-3.5489,-3.5489,-3.5489,-3.5489,-3.5489,-3.5489,-3.5489,-3.5489,-3.5489,-3.5489,-3.5489,-3.5489,-3.5489,-3.5489,-3.5489,-3.5489,-3.5604,-3.5604,-3.6117,-3.6276,-3.6011,-3.6426,-3.6579,-3.6382,-3.5916,-3.5644,-3.5586,-3.5567,-3.5603,-3.558,-3.5599,-3.5614,-3.552,-3.547,-3.5639,-3.5639,-3.5639,-3.5639,-3.5639,-3.5639,-3.5639,-3.5639,-3.5639,-3.5622,-3.5622,-3.5334,-3.4912,-3.4387,-3.3322,-3.2256,-3.1596,-3.119,-3.119,-3.119,-3.119,-3.119,-3.119,-3.119,-3.119,-3.119,-3.119,-3.119,-3.0446,-2.9664,-2.823,-2.6843,-2.6708,-2.6708,-2.6708,-2.6725,-2.6691,-2.6708,-2.6708,-2.6691,-2.6674,-2.5896,-2.47,-2.4008,-2.3583,-2.31,-2.2485,-2.2417,-2.2417,-2.2581,-2.2738,-2.2643,-2.2607,-2.2695]},{"header":{"parameterUnit":"m.s-1","parameterCategory":1,"la1":31.0,"la2":29.5877,"lo1":-88.7671,"lo2":-86.6584,"dy":0.0162,"dx":0.0185,"nx":115,"ny":88,"refTime":"2026-04-14T00:00:00:Z","depth":0,"parameterNumber":3,"parameterNumberName":"V-component_of_WINDS"},"data":[0.0,0.0,0.0,0.0,0.0,0.0,0.0,0.0,0.0,0.0,0.0,0.0,0.0,0.0,0.0,0.0,0.0,0.0,0.0,0.0,0.0,0.0,0.0,0.0,0.0,0.0,0.0,0.0,0.0,0.0,0.0,0.0,0.0,0.0,0.0,0.0,0.0,0.0,0.0,0.0,0.0,0.0,0.0,0.0,0.0,0.0,0.0,0.0,0.0,0.0,0.0,0.0,0.0,0.0,0.0,0.0,0.0,0.0,0.0,0.0,0.0,0.0,0.0,0.0,0.0,0.0,0.0,0.0,0.0,0.0,0.0,0.0,0.0,0.0,0.0,0.0,0.0,0.0,0.0,0.0,0.0,0.0,0.0,0.0,0.0,0.0,0.0,0.0,0.0,0.0,0.0,0.0,0.0,0.0,0.0,0.0,0.0,0.0,0.0,0.0,0.0,0.0,0.0,0.0,0.0,0.0,0.0,0.0,0.0,0.0,0.0,0.0,0.0,0.0,0.0,0.0,0.0,0.0,0.0,0.0,0.0,0.0,0.0,0.0,0.0,0.0,0.0,0.0,0.0,0.0,0.0,0.0,0.0,0.0,0.0,0.0,0.0,0.0,0.0,0.0,0.0,0.0,0.0,0.0,0.0,0.0,0.0,0.0,0.0,0.0,0.0,0.0,0.0,0.0,0.0,0.0,0.0,0.0,0.0,0.0,0.0,0.0,0.0,0.0,0.0,0.0,0.0,0.0,0.0,0.0,0.0,0.0,0.0,0.0,0.0,0.0,0.0,0.0,0.0,0.0,0.0,0.0,0.0,0.0,0.0,0.0,0.0,0.0,0.0,0.0,0.0,0.0,0.0,0.0,0.0,0.0,0.0,0.0,0.0,0.0,0.0,0.0,0.0,0.0,0.0,0.0,0.0,0.0,0.0,0.0,0.0,0.0,0.0,0.0,0.0,0.0,0.0,0.0,0.0,0.0,0.0,0.0,0.0,0.0,0.0,0.0,0.0,0.0,0.0,0.0,0.0,0.0,0.0,0.0,0.0,0.0,0.0,0.0,0.0,0.0,0.0,0.0,0.0,0.0,0.0,0.0,0.0,0.0,0.0,0.0,0.0,0.0,0.0,0.0,0.0,0.0,0.0,0.0,0.0,0.0,0.0,0.0,0.0,0.0,0.0,0.0,0.0,0.0,0.0,0.0,0.0,0.0,0.0,0.0,0.0,0.0,0.0,0.0,0.0,0.0,0.0,0.0,0.0,0.0,0.0,0.0,0.0,0.0,0.0,0.0,0.0,0.0,0.0,0.0,0.0,0.0,0.0,0.0,0.0,0.0,0.0,0.0,0.0,0.0,0.0,0.0,0.0,0.0,0.0,0.0,0.0,0.0,0.0,0.0,0.0,0.0,0.0,0.0,0.0,0.0,0.0,0.0,0.0,0.0,0.0,0.0,0.0,0.0,0.0,0.0,0.0,0.0,0.0,0.0,0.0,0.0,0.0,0.0,0.0,0.0,0.0,0.0,0.0,0.0,0.0,0.0,0.0,0.0,0.0,0.0,0.0,0.0,0.0,0.0,0.0,0.0,0.0,0.0,0.0,0.0,0.0,0.0,0.0,0.0,0.0,0.0,0.0,0.0,0.0,0.0,0.0,0.0,0.0,0.0,0.0,0.0,0.0,0.0,0.0,0.0,0.0,0.0,0.0,0.0,0.0,0.0,0.0,0.0,0.0,0.0,0.0,0.0,0.0,0.0,0.0,0.0,0.0,0.0,0.0,0.0,0.0,0.0,0.0,0.0,0.0,0.0,0.0,0.0,0.0,0.0,0.0,0.0,0.0,0.0,0.0,0.0,0.0,0.0,0.0,0.0,0.0,0.0,0.0,0.0,0.0,0.0,0.0,0.0,0.0,0.0,0.0,0.0,0.0,0.0,0.0,0.0,0.0,0.0,0.0,0.0,0.0,0.0,0.0,0.0,0.0,0.0,0.0,0.0,0.0,0.0,0.0,0.0,0.0,0.0,0.0,0.0,0.0,0.0,0.0,0.0,0.0,0.0,0.0,0.0,0.0,0.0,0.0,0.0,0.0,0.0,0.0,0.0,0.0,0.0,0.0,0.0,0.0,0.0,0.0,0.0,0.0,0.0,0.0,0.0,0.0,0.0,0.0,0.0,0.0,0.0,0.0,0.0,0.0,0.0,0.0,0.0,0.0,0.0,0.0,0.0,0.0,0.0,0.0,0.0,0.0,0.0,0.0,0.0,0.0,0.0,0.0,0.0,0.0,0.0,0.0,0.0,0.0,0.0,0.0,0.0,0.0,0.0,0.0,0.0,0.0,0.0,0.0,0.0,0.0,0.0,0.0,0.0,0.0,0.0,0.0,0.0,0.0,0.0,0.0,0.0,0.0,0.0,0.0,0.0,0.0,0.0,0.0,0.0,0.0,0.0,0.0,0.0,0.0,0.0,0.0,0.0,0.0,0.0,0.0,0.0,0.0,0.0,0.0,0.0,0.0,0.0,0.0,0.0,0.0,0.0,0.0,0.0,0.0,0.0,0.0,0.0,0.0,0.0,0.0,0.0,0.0,0.0,0.0,0.0,0.0,0.0,0.0,0.0,0.0,0.0,0.0,0.0,0.0,0.0,0.0,0.0,0.0,0.0,0.0,0.0,0.0,0.0,0.0,0.0,0.0,0.0,0.0,0.0,0.0,0.0,0.0,0.0,0.0,0.0,0.0,0.0,0.0,0.0,0.0,0.0,0.0,0.0,0.0,0.0,0.0,0.0,0.0,0.0,0.0,0.0,0.0,0.0,0.0,0.0,0.0,0.0,0.0,0.0,0.0,0.0,0.0,0.0,0.0,0.0,0.0,0.0,0.0,0.0,0.0,0.0,0.0,0.0,0.0,0.0,0.0,0.0,0.0,0.0,0.0,0.0,0.0,0.0,0.0,0.0,0.0,0.0,0.0,0.0,0.0,0.0,0.0,0.0,0.0,0.0,0.0,0.0,0.0,0.0,0.0,0.0,0.0,0.0,0.0,0.0,0.0,0.0,0.0,0.0,0.0,0.0,0.0,0.0,0.0,0.0,0.0,0.0,0.0,0.0,0.0,0.0,0.0,0.0,0.0,0.0,0.0,0.0,0.0,0.0,0.0,0.0,0.0,0.0,0.0,0.0,0.0,0.0,0.0,0.0,0.0,0.0,0.0,0.0,0.0,0.0,0.0,0.0,0.0,0.0,0.0,0.0,0.0,0.0,0.0,0.0,0.0,0.0,0.0,0.0,0.0,0.0,0.0,0.0,0.0,0.0,0.0,0.0,0.0,0.0,0.0,0.0,0.0,0.0,0.0,0.0,0.0,0.0,0.0,0.0,0.0,0.0,0.0,0.0,0.0,0.0,0.0,0.0,0.0,0.0,0.0,0.0,0.0,0.0,0.0,0.0,0.0,0.0,0.0,0.0,0.0,0.0,0.0,0.0,0.0,0.0,0.0,0.0,0.0,0.0,0.0,0.0,0.0,0.0,0.0,0.0,0.0,0.0,0.0,0.0,0.0,0.0,0.0,0.0,0.0,0.0,0.0,0.0,0.0,0.0,0.0,0.0,0.0,0.0,0.0,0.0,0.0,0.0,0.0,0.0,0.0,0.0,0.0,0.0,0.0,0.0,0.0,0.0,0.0,0.0,0.0,0.0,0.0,0.0,0.0,0.0,0.0,0.0,0.0,0.0,0.0,0.0,0.0,0.0,0.0,0.0,0.0,0.0,0.0,0.0,0.0,0.0,0.0,0.0,0.0,0.0,0.0,0.0,0.0,0.0,0.0,0.0,0.0,0.0,0.0,0.0,0.0,0.0,0.0,0.0,0.0,0.0,0.0,0.0,0.0,0.0,0.0,0.0,0.0,0.0,0.0,0.0,0.0,0.0,0.0,0.0,0.0,0.0,0.0,0.0,0.0,0.0,0.0,0.0,0.0,0.0,0.0,0.0,0.0,0.0,0.0,0.0,0.0,0.0,0.0,0.0,0.0,0.0,0.0,0.0,0.0,0.0,0.0,0.0,0.0,0.0,0.0,0.0,0.0,0.0,0.0,0.0,0.0,0.0,0.0,0.0,0.0,0.0,0.0,0.0,0.0,0.0,0.0,0.0,0.0,0.0,0.0,0.0,0.0,0.0,0.0,0.0,0.0,0.0,0.0,0.0,0.0,0.0,0.0,0.0,0.0,0.0,0.0,0.0,0.0,0.0,0.0,0.0,0.0,0.0,0.0,0.0,0.0,0.0,0.0,0.0,0.0,0.0,0.5098,0.0,0.0,0.0,0.0,0.0,0.0,0.0,0.0,0.0,0.0,0.0,0.0,0.0,0.0,0.0,0.0,0.0,0.0,0.0,0.0,0.0,0.0,0.0,0.0,0.0,0.0,0.0,0.0,0.0,0.0,0.0,0.0,0.0,0.0,0.0,0.0,0.0,0.0,0.0,0.0,0.0,0.0,0.0,0.0,0.0,0.0,0.0,0.0,0.0,0.0,0.0,0.0,0.0,0.0,0.0,0.0,0.0,0.0,0.0,0.0,0.0,0.0,0.0,0.0,0.0,0.0,0.0,0.0,0.0,0.0,0.0,0.0,0.0,0.0,0.0,0.0,0.0,0.0,0.0,0.0,0.0,0.0,0.0,0.0,0.0,0.0,0.0,0.0,0.0,0.0,0.0,0.0,0.0,0.0,0.0,0.0,0.0,0.0,0.0,0.0,0.0,0.0,0.0,0.0,0.0,0.0,0.0,0.0,0.0,0.0,0.4971,0.5098,0.5098,0.5098,0.5098,0.0,0.0,0.0,0.0,0.0,0.0,0.0,0.0,0.0,0.0,0.0,0.0,0.0,0.0,0.0,0.0,0.0,0.0,0.0,0.0,0.0,0.0,0.0,0.0,0.0,0.0,0.0,0.0,0.0,0.0,0.0,0.0,0.0,0.0,0.0,0.0,0.0,0.0,0.0,0.0,0.0,0.0,0.0,0.0,0.0,0.0,0.0,0.0,0.0,0.0,0.0,0.0,0.0,0.0,0.0,0.0,0.0,0.0,0.0,0.0,0.0,0.0,0.0,0.0,0.0,0.0,0.0,0.0,0.0,0.0,0.0,0.0,0.0,0.0,0.0,0.0,0.0,0.0,0.0,0.0,0.0,0.0,0.0,0.0,0.0,0.0,0.0,0.0,0.0,0.0,0.0,0.0,0.0,0.0,0.0,0.0,0.0,0.0,0.0,0.0,0.0,0.0,0.0,0.0,0.0,0.0,0.0,0.0,0.0,0.0,0.0,0.0,0.5253,0.5283,0.5253,0.0,0.0,0.0,0.0,0.0,0.0,0.0,0.0,0.0,0.0,0.0,0.0,0.0,0.0,0.0,0.0,0.0,0.0,0.0,0.0,0.0,0.0,0.0,0.0,0.0,0.0,0.0,0.0,0.0,0.0,0.0,0.0,0.0,0.0,0.0,0.0,0.0,0.0,0.0,0.0,0.0,0.0,0.0,0.0,0.0,0.0,0.0,0.0,0.0,0.0,0.0,0.0,0.0,0.0,0.0,0.0,0.0,0.0,0.0,0.0,0.0,0.0,0.0,0.0,0.0,0.0,0.0,0.0,0.0,0.0,0.0,0.0,0.0,0.0,0.0,0.0,0.0,0.0,0.0,0.0,0.0,0.0,0.0,0.0,0.0,0.0,0.0,0.0,0.0,0.0,0.0,0.0,0.0,0.0,0.0,0.0,0.0,0.0,0.0,0.0,0.0,0.0,0.0,0.0,0.0,0.0,0.0,0.0,0.0,0.0,0.5322,0.5725,0.5744,0.0,0.5744,0.0,0.0,0.0,0.0,0.0,0.0,0.0,0.0,0.0,0.0,0.0,0.0,0.0,0.0,0.0,0.0,0.0,0.0,0.0,0.0,0.0,0.0,0.0,0.0,0.0,0.0,0.0,0.0,0.0,0.0,0.0,0.0,0.0,0.0,0.0,0.0,0.0,0.0,0.0,0.0,0.0,0.0,0.0,0.0,0.0,0.0,0.0,0.0,0.0,0.0,0.0,0.0,0.0,0.0,0.0,0.0,0.0,0.0,0.0,0.0,0.0,0.0,0.0,0.0,0.0,0.0,0.0,0.0,0.0,0.0,0.0,0.0,0.0,0.0,0.0,0.0,0.0,0.0,0.0,0.0,0.0,0.0,0.0,0.0,0.0,0.0,0.0,0.0,0.0,0.0,0.0,0.0,0.0,0.0,0.0,0.0,0.0,0.0,0.0,0.0,0.0,0.0,0.0,0.0,0.0,0.0,0.0,0.0,0.0,0.0,0.5605,0.5803,0.5965,0.5965,0.0,0.0,0.0,0.0,0.0,0.0,0.0,0.0,0.0,0.0,0.0,0.0,0.0,0.0,0.0,0.0,0.0,0.0,0.0,0.0,0.0,0.0,0.0,0.0,0.0,0.0,0.0,0.0,0.0,0.0,0.0,0.0,0.0,0.0,0.0,0.0,0.0,0.0,0.0,0.0,0.0,0.0,0.0,0.0,0.0,0.0,0.0,0.0,0.0,0.0,0.0,0.0,0.0,0.0,0.0,0.0,0.0,0.0,0.0,0.0,0.0,0.0,0.0,0.0,0.0,0.0,0.0,0.0,0.0,0.0,0.0,0.0,0.0,0.0,0.0,0.0,0.0,0.0,0.0,0.0,0.0,0.0,0.0,0.0,0.0,0.0,0.0,0.0,0.0,0.0,0.0,0.0,0.0,0.0,0.0,0.0,0.0,0.0,0.0,0.0,0.0,0.0,0.0,0.0,0.0,0.0,0.0,0.0,0.0,0.0,0.5545,0.5852,0.597,0.6158,0.6108,0.5813,0.0,0.0,0.0,0.0,0.0,0.0,0.0,0.0,0.0,0.0,0.0,0.0,0.0,0.0,0.0,0.0,0.0,0.0,0.0,0.0,0.0,0.0,0.0,0.0,0.0,0.0,0.0,0.0,0.0,0.0,0.0,0.0,0.0,0.0,0.0,0.0,0.0,0.0,0.0,0.0,0.0,0.0,0.0,0.0,0.0,0.0,0.0,0.0,0.0,0.0,0.0,0.0,0.0,0.0,0.0,0.0,0.0,0.0,0.0,0.0,0.0,0.0,0.0,0.0,0.0,0.0,0.0,0.0,0.0,0.0,0.0,0.0,0.0,0.0,0.0,0.0,0.0,0.0,0.0,0.0,0.0,0.0,0.0,0.0,0.0,0.0,0.0,0.0,0.0,0.0,0.0,0.0,0.0,0.0,0.0,0.0,0.0,0.0,0.0,0.0,0.0,0.0,0.0,0.0,0.0,0.0,0.0,0.0,0.0,0.5854,0.5999,0.6357,0.6377,0.6215,0.0,0.0,0.0,0.0,0.0,0.0,0.0,0.0,0.0,0.0,0.0,0.0,0.0,0.0,0.0,0.0,0.0,0.0,0.0,0.0,0.0,0.0,0.0,0.0,0.0,0.0,0.0,0.0,0.0,0.0,0.0,0.0,0.0,0.0,0.0,0.0,0.0,0.0,0.0,0.0,0.0,0.0,0.0,0.0,0.0,0.0,0.0,0.0,0.0,0.0,0.0,0.0,0.0,0.0,0.0,0.0,0.0,0.0,0.0,0.0,0.0,0.0,0.0,0.0,0.0,0.0,0.0,0.0,0.0,0.0,0.0,0.0,0.0,0.0,0.0,0.0,0.0,0.0,0.0,0.0,0.0,0.0,0.0,0.0,0.0,0.0,0.0,0.0,0.0,0.0,0.0,0.0,0.0,0.0,0.0,0.0,0.0,0.0,0.0,0.0,0.0,0.0,0.0,0.0,0.0,0.0,0.0,0.0,0.0,0.4902,0.5486,0.6123,0.6797,0.6485,0.6247,0.0,0.0,0.0,0.0,0.0,0.0,0.0,0.0,0.0,0.0,0.0,0.0,0.0,0.0,0.0,0.0,0.0,0.0,0.0,0.0,0.0,0.0,0.0,0.0,0.0,0.0,0.0,0.0,0.0,0.0,0.0,0.0,0.0,0.0,0.0,0.0,0.0,0.0,0.0,0.0,0.0,0.0,0.0,0.0,0.0,0.0,0.0,0.0,0.0,0.0,0.0,0.0,0.0,0.0,0.0,0.0,0.0,0.0,0.0,0.0,0.0,0.0,0.0,0.0,0.0,0.0,0.0,0.0,0.0,0.0,0.0,0.0,0.0,0.0,0.0,0.0,0.0,0.0,0.0,0.0,0.0,0.0,0.0,0.0,0.0,0.0,0.0,0.0,0.0,0.0,0.0,0.0,0.0,0.0,0.0,0.0,0.0,0.0,0.0,0.0,0.0,0.0,0.0,0.0,0.0,0.0,0.0,0.0,0.0,0.465,0.0,0.6246,0.0,0.6417,0.6176,0.0,0.0,0.0,0.0,0.0,0.0,0.0,0.0,0.0,0.0,0.0,0.0,0.0,0.0,0.0,0.0,0.0,0.0,0.0,0.0,0.0,0.0,0.0,0.0,0.0,0.0,0.0,0.0,0.0,0.0,0.0,0.0,0.0,0.0,0.0,0.0,0.0,0.0,0.0,0.0,0.0,0.0,0.0,0.0,0.0,0.0,0.0,0.0,0.0,0.0,0.0,0.0,0.0,0.0,0.0,0.0,0.0,0.0,0.0,0.0,0.0,0.0,0.0,0.0,0.0,0.0,0.0,0.0,0.0,0.0,0.0,0.0,0.0,0.0,0.0,0.0,0.0,0.0,0.0,0.0,0.0,0.0,0.0,0.0,0.0,0.0,0.0,0.0,0.0,0.0,0.0,0.0,0.0,0.0,0.0,0.0,0.0,0.0,0.0,0.0,0.0,0.0,0.0,0.0,0.0,0.0,0.0,0.0,0.4104,0.5332,0.6083,0.6304,0.5877,0.6202,0.5996,0.0,0.0,0.0,0.0,0.0,0.0,0.0,0.0,0.0,0.0,0.0,0.0,0.0,0.0,0.0,0.0,0.0,0.0,0.0,0.0,0.0,0.0,0.0,0.0,0.0,0.0,0.0,0.0,0.0,0.0,0.0,0.0,0.0,0.0,0.0,0.0,0.0,0.0,0.0,0.0,0.0,0.0,0.0,0.0,0.0,0.0,0.0,0.0,0.0,0.0,0.0,0.0,0.0,0.0,0.0,0.0,0.0,0.0,0.0,0.0,0.0,0.0,0.0,0.0,0.0,0.0,0.0,0.0,0.0,0.0,0.0,0.0,0.0,0.0,0.0,0.0,0.0,0.0,0.0,0.0,0.0,0.0,0.0,0.0,0.0,0.0,0.0,0.0,0.0,0.0,0.0,0.0,0.0,0.0,0.0,0.0,0.0,0.0,0.0,0.0,0.0,0.0,0.0,0.0,0.0,0.0,0.0,0.0,0.0,0.5107,0.5926,0.6611,0.7054,0.6362,0.6133,0.0,0.0,0.0,0.0,0.0,0.0,0.0,0.0,0.0,0.0,0.0,0.0,0.0,0.0,0.0,0.0,0.0,0.0,0.0,0.0,0.0,0.0,0.0,0.0,0.0,0.0,0.0,0.0,0.0,0.0,0.0,0.0,0.0,0.0,0.0,0.0,0.0,0.0,0.0,0.0,0.0,0.0,0.0,0.0,0.0,0.0,0.0,0.0,0.0,0.0,0.0,0.0,0.0,0.0,0.0,0.0,0.0,0.0,0.0,0.0,0.0,0.0,0.0,0.0,0.0,0.0,0.0,0.0,0.0,0.0,0.0,0.0,0.0,0.0,0.0,0.0,0.0,0.0,0.0,0.0,0.0,0.0,0.0,0.0,0.0,0.0,0.0,0.0,0.0,0.0,0.0,0.0,0.0,0.0,0.0,0.0,0.0,0.0,0.0,0.0,0.0,0.0,0.0,0.0,0.0,0.0,0.0,0.0,0.0,0.5835,0.6469,0.7001,0.748,0.6691,0.6377,0.6572,0.0,0.0,0.0,0.0,0.0,0.0,0.0,0.0,0.0,0.0,0.0,0.0,0.0,0.0,0.0,0.0,0.0,0.0,0.0,0.0,0.0,0.0,0.0,0.0,0.0,0.0,0.0,0.0,0.0,0.0,0.0,0.0,0.0,0.0,0.0,0.0,0.0,0.0,0.0,0.0,0.0,0.0,0.0,0.0,0.0,0.0,0.0,0.0,0.0,0.0,0.0,0.0,0.0,0.0,0.0,0.0,0.0,0.0,0.0,0.0,0.0,0.0,0.0,0.0,0.0,0.0,0.0,0.0,0.0,0.0,0.0,0.0,0.0,0.0,0.0,0.0,0.0,0.0,0.0,0.0,0.0,0.0,0.0,0.0,0.0,0.0,0.0,0.0,0.0,0.0,0.0,0.0,0.0,0.0,0.0,0.0,0.0,0.0,0.0,0.0,0.0,0.0,0.0,0.0,0.0,0.0,0.0,0.0,0.7273,0.7573,0.762,0.7321,0.7215,0.6774,0.0,0.0,0.0,0.0,0.0,0.0,0.0,0.0,0.0,0.0,0.0,0.0,0.0,0.0,0.0,0.0,0.0,0.0,0.0,0.0,0.0,0.0,0.0,0.0,0.0,0.0,0.0,0.0,0.0,0.0,0.0,0.0,0.0,0.0,0.0,0.0,0.0,0.0,0.0,0.0,0.0,0.0,0.0,0.0,0.0,0.0,0.0,0.0,0.0,0.0,0.0,0.0,0.0,0.0,0.0,0.0,0.0,0.0,0.0,0.0,0.0,0.0,0.0,0.0,0.0,0.0,0.0,0.0,0.0,0.0,0.0,0.0,0.0,0.0,0.0,0.0,0.0,0.0,0.0,0.0,0.0,0.0,0.0,0.0,0.0,0.0,0.0,0.0,0.0,0.0,0.0,0.0,0.0,0.0,0.0,0.0,0.0,0.0,0.0,0.0,0.0,0.0,0.0,0.0,0.0,0.0,0.0,0.0,0.0,0.7354,0.8545,0.9243,0.9427,0.852,0.7759,0.0,0.0,0.0,0.0,0.0,0.0,0.0,0.0,0.0,0.0,0.0,0.0,0.0,0.0,0.0,0.0,0.0,0.0,0.0,0.0,0.0,0.0,0.0,0.0,0.0,0.0,0.0,0.0,0.0,0.0,0.0,0.0,0.0,0.0,0.0,0.0,0.0,0.0,0.0,0.0,0.0,0.0,0.0,0.0,0.0,0.0,0.0,0.0,0.0,0.0,0.0,0.0,0.0,0.0,0.0,0.0,0.0,0.0,0.0,0.0,0.0,0.0,0.0,0.0,0.0,0.0,0.0,0.0,0.0,0.0,0.0,0.0,0.0,0.0,0.0,0.0,0.0,0.0,0.0,0.0,0.0,0.0,0.0,0.0,0.0,0.0,0.0,0.0,0.0,0.0,0.0,0.0,0.0,0.0,0.0,0.0,0.0,0.0,0.0,0.0,0.0,0.0,0.0,0.0,0.0,0.0,0.0,0.0,0.6543,0.784,0.9172,1.0105,1.0409,0.9631,0.8633,0.0,0.0,0.0,0.0,0.0,0.0,0.0,0.0,0.0,0.0,0.0,0.0,0.0,0.0,0.0,0.0,0.0,0.0,0.0,0.0,0.0,0.0,0.0,0.0,0.0,0.0,0.0,0.0,0.0,0.0,0.0,0.0,0.0,0.0,0.0,0.0,0.0,0.0,0.0,0.0,0.0,0.0,0.0,0.0,0.0,0.0,0.0,0.0,0.0,0.0,0.0,0.0,0.0,0.0,0.0,0.0,0.0,0.0,0.0,0.0,0.0,0.0,0.0,0.0,0.0,0.0,0.0,0.0,0.0,0.0,0.0,0.0,0.0,0.0,0.0,0.0,0.0,0.0,0.0,0.0,0.0,0.0,0.0,0.0,0.0,0.0,0.0,0.0,0.0,0.0,0.0,0.0,0.0,0.0,0.0,0.0,0.0,0.0,0.0,0.0,0.0,0.0,0.0,0.0,0.0,0.0,0.0,0.0,0.699,0.8394,0.9651,1.0359,1.0561,1.0498,0.945,0.0,0.0,0.0,0.0,0.0,0.0,0.0,0.0,0.0,0.0,0.0,0.0,0.0,0.0,0.0,0.0,0.0,0.0,0.0,0.0,0.0,0.0,0.0,0.0,0.0,0.0,0.0,0.0,0.0,0.0,0.0,0.0,0.0,0.0,0.0,0.0,0.0,0.0,0.0,0.0,0.0,0.0,0.0,0.0,0.0,0.0,0.0,0.0,0.0,0.0,0.0,0.0,0.0,0.0,0.0,0.0,0.0,0.0,0.0,0.0,0.0,0.0,0.0,0.0,0.0,0.0,0.0,0.0,0.0,0.0,0.0,0.0,0.0,0.0,0.0,0.0,0.0,0.0,0.0,0.0,0.0,0.0,0.0,0.0,0.0,0.0,0.0,0.0,0.0,0.0,0.0,0.0,0.0,0.0,0.0,0.0,0.0,0.0,0.0,0.0,0.0,0.0,0.0,0.0,0.0,0.0,0.0,0.0,0.7221,0.8049,0.9758,1.0532,1.032,1.0558,1.0039,0.0,0.0,0.0,0.0,0.0,0.0,0.0,0.0,0.0,0.0,0.0,0.0,0.0,0.0,0.0,0.0,0.0,0.0,0.0,0.0,0.0,0.0,0.0,0.0,0.0,0.0,0.0,0.0,0.0,0.0,0.0,0.0,0.0,0.0,0.0,0.0,0.0,0.0,0.0,0.0,0.0,0.0,0.0,0.0,0.0,0.0,0.0,0.0,0.3832,0.0,0.0,0.0,0.0,0.0,0.0,0.0,0.0,0.0,0.0,0.0,0.0,0.0,0.0,0.0,0.0,0.0,0.0,0.0,0.0,0.0,0.0,0.0,0.0,0.0,0.0,0.0,0.0,0.0,0.0,0.0,0.0,0.0,0.0,0.0,0.0,0.0,0.0,0.0,0.0,0.0,0.0,0.0,0.0,0.0,0.0,0.0,0.0,0.0,0.0,0.0,0.0,0.0,0.0,0.0,0.0,0.0,0.0,0.0,0.7522,0.8123,0.9903,1.0598,1.0237,1.0826,1.0548,0.0,0.0,0.0,0.0,0.0,0.0,0.0,0.0,0.0,0.0,0.0,0.0,0.0,0.0,0.0,0.0,0.0,0.0,0.0,0.0,0.0,0.0,0.0,0.0,0.0,0.0,0.0,0.0,0.0,0.0,0.0,0.0,0.0,0.0,0.0,0.0,0.0,0.0,0.0,0.0,0.0,0.0,0.0,0.0,0.0,0.0,0.0,0.0,0.0,0.0,0.0,0.0,0.0,0.0,0.0,0.0,0.0,0.0,0.0,0.0,0.0,0.0,0.0,0.0,0.0,0.0,0.0,0.0,0.0,0.0,0.0,0.0,0.0,0.0,0.0,0.0,0.0,0.0,0.0,0.0,0.0,0.0,0.0,0.0,0.0,0.0,0.0,0.0,0.0,0.0,0.0,0.0,0.0,0.0,0.0,0.0,0.0,0.0,0.0,0.0,0.0,0.0,0.0,0.0,0.0,0.0,0.0,0.6982,0.7829,0.8467,1.0019,1.0623,1.0319,1.1122,1.1055,0.9927,0.0,0.0,0.0,0.0,0.0,0.0,0.0,0.0,0.0,0.0,0.0,0.0,0.0,0.0,0.0,0.0,0.0,0.0,0.0,0.0,0.0,0.0,0.0,0.0,0.0,0.0,0.0,0.0,0.0,0.0,0.0,0.0,0.0,0.0,0.0,0.0,0.0,0.0,0.2793,0.3726,0.0,0.0,0.0,0.0,0.0,0.0,0.0,0.0,0.4719,0.0,0.0,0.0,0.0,0.0,0.0,0.0,0.0,0.0,0.0,0.0,0.0,0.0,0.0,0.0,0.0,0.0,0.0,0.0,0.0,0.0,0.0,0.0,0.0,0.0,0.0,0.0,0.0,0.0,0.0,0.0,0.0,0.0,0.0,0.0,0.0,0.0,0.0,0.0,0.0,0.0,0.0,0.0,0.0,0.0,0.0,0.0,0.0,0.0,0.0,0.0,0.0,0.0,0.0,0.0,0.0,0.6787,0.7241,0.7923,0.8704,1.0092,1.078,1.0714,1.1269,1.1449,1.1045,0.0,0.0,0.0,0.0,0.0,0.0,0.0,0.0,0.0,0.0,0.0,0.0,0.0,0.0,0.0,0.0,0.0,0.0,0.0,0.0,0.0,0.0,0.0,0.0,0.0,0.0,0.0,0.0,0.0,0.0,0.0,0.0,0.0,0.0,0.0,0.0,0.0,0.0,0.0,0.3225,0.3805,0.0,0.0,0.0,0.0,0.0,0.0,0.0,0.0,0.4255,0.0,0.0,0.0,0.0,0.0,0.0,0.0,0.0,0.0,0.0,0.0,0.0,0.0,0.0,0.0,0.0,0.0,0.0,0.0,0.0,0.0,0.0,0.0,0.0,0.0,0.0,0.0,0.0,0.0,0.0,0.0,0.0,0.0,0.0,0.0,0.0,0.0,0.0,0.0,0.0,0.0,0.0,0.0,0.0,0.0,0.0,0.0,0.0,0.0,0.0,0.0,0.0,0.0,0.0,0.0,0.676,0.7395,0.8063,0.8771,0.9762,1.0466,1.0788,1.0767,1.093,0.0,0.0,0.0,0.0,0.0,0.0,0.0,0.0,0.0,0.0,0.0,0.0,0.0,0.0,0.0,0.0,0.0,0.0,0.0,0.0,0.0,0.0,0.0,0.0,0.0,0.0,0.0,0.0,0.0,0.0,0.0,0.0,0.0,0.0,0.0,0.0,0.0,0.0,0.0,0.0,0.3062,0.3477,0.3956,0.0,0.0,0.0,0.0,0.0,0.0,0.4483,0.4666,0.0,0.0,0.0,0.0,0.0,0.0,0.0,0.0,0.0,0.0,0.0,0.0,0.0,0.0,0.0,0.0,0.0,0.0,0.0,0.0,0.0,0.0,0.0,0.0,0.0,0.0,0.0,0.0,0.0,0.0,0.0,0.0,0.0,0.0,0.0,0.0,0.0,0.0,0.0,0.0,0.0,0.0,0.0,0.0,0.0,0.0,0.0,0.0,0.0,0.0,0.0,0.0,0.0,0.0,0.0,0.658,0.7415,0.815,0.8771,0.9465,1.0115,1.0738,1.0297,1.0397,0.0,0.0,0.0,0.0,0.0,0.0,0.0,0.0,0.0,0.0,0.0,0.0,0.0,0.0,0.0,0.0,0.0,0.0,0.0,0.0,0.0,0.0,0.0,0.0,0.0,0.0,0.0,0.0,0.0,0.0,0.0,0.0,0.0,0.0,0.0,0.0,0.0,0.0,0.0,0.0,0.0,0.3327,0.3144,0.3914,0.0,0.0,0.0,0.0,0.4478,0.4952,0.0,0.0,0.0,0.0,0.0,0.0,0.0,0.0,0.0,0.0,0.0,0.0,0.0,0.0,0.0,0.0,0.0,0.0,0.0,0.0,0.0,0.0,0.0,0.0,0.0,0.0,0.0,0.0,0.0,0.0,0.0,0.0,0.0,0.0,0.0,0.0,0.0,0.0,0.0,0.0,0.0,0.0,0.0,0.0,0.0,0.0,0.0,0.0,0.0,0.0,0.0,0.0,0.0,0.0,0.0,0.0,0.6567,0.7201,0.7943,0.8803,0.9458,1.0115,1.0754,1.0603,1.0558,0.0,0.0,0.0,0.0,0.0,0.0,0.0,0.0,0.0,0.0,0.0,0.0,0.0,0.0,0.0,0.0,0.0,0.0,0.0,0.0,0.0,0.0,0.0,0.0,0.0,0.0,0.0,0.0,0.0,0.0,0.0,0.0,0.0,0.0,0.0,0.0,0.0,0.0,0.0,0.0,0.0,0.322,0.3413,0.3749,0.4054,0.0,0.0,0.4374,0.4601,0.5028,0.0,0.0,0.0,0.0,0.0,0.0,0.0,0.0,0.0,0.0,0.0,0.0,0.0,0.0,0.0,0.0,0.0,0.0,0.0,0.0,0.0,0.0,0.0,0.0,0.0,0.0,0.0,0.0,0.0,0.0,0.0,0.0,0.0,0.0,0.0,0.0,0.0,0.0,0.0,0.0,0.0,0.0,0.0,0.0,0.0,0.0,0.0,0.0,0.0,0.0,0.0,0.0,0.0,0.0,0.0,0.579,0.682,0.7589,0.825,0.8784,0.9113,0.9718,1.0762,1.0061,0.994,0.0,0.0,0.0,0.0,0.0,0.0,0.0,0.0,0.0,0.0,0.0,0.0,0.0,0.0,0.0,0.0,0.0,0.0,0.0,0.0,0.0,0.0,0.0,0.0,0.0,0.0,0.0,0.0,0.0,0.0,0.0,0.0,0.0,0.0,0.0,0.0,0.0,0.0,0.0,0.0,0.0,0.0,0.307,0.3766,0.0,0.0,0.0,0.4412,0.4509,0.0,0.0,0.0,0.0,0.0,0.0,0.0,0.0,0.0,0.0,0.0,0.0,0.0,0.0,0.0,0.0,0.0,0.0,0.0,0.0,0.0,0.0,0.0,0.0,0.0,0.0,0.0,0.0,0.0,0.0,0.0,0.0,0.0,0.0,0.0,0.0,0.0,0.0,0.0,0.0,0.0,0.0,0.0,0.0,0.0,0.0,0.0,0.0,0.0,0.0,0.0,0.0,0.0,0.0,0.0,0.0,0.0,0.6972,0.7868,0.851,0.8791,0.8804,0.9361,1.0501,0.9586,0.0,0.0,0.0,0.0,0.0,0.0,0.0,0.0,0.0,0.0,0.0,0.0,0.0,0.0,0.0,0.0,0.0,0.0,0.0,0.0,0.0,0.0,0.0,0.0,0.0,0.0,0.0,0.3082,0.0,0.0,0.0,0.0,0.0,0.0,0.0,0.0,0.0,0.0,0.0,0.0,0.0,0.0,0.3448,0.2969,0.3815,0.4448,0.0,0.0,0.4562,0.4432,0.4965,0.532,0.0,0.0,0.0,0.0,0.0,0.0,0.0,0.0,0.0,0.0,0.0,0.0,0.0,0.0,0.0,0.0,0.0,0.0,0.0,0.0,0.0,0.0,0.0,0.0,0.0,0.0,0.0,0.0,0.0,0.0,0.0,0.0,0.0,0.0,0.0,0.0,0.0,0.0,0.0,0.0,0.0,0.0,0.0,0.0,0.0,0.0,0.0,0.0,0.0,0.0,0.0,0.0,0.0,0.0,0.0,0.6972,0.7808,0.8402,0.8798,0.8804,0.9106,0.985,0.958,0.9165,0.0,0.0,0.0,0.0,0.0,0.0,0.0,0.0,0.0,0.0,0.0,0.0,0.0,0.0,0.0,0.0,0.0,0.0,0.0,0.0,0.0,0.0,0.0,0.0,0.0,0.0,0.0,0.0,0.0,0.0,0.0,0.0,0.0,0.0,0.0,0.0,0.0,0.0,0.0,0.0,0.0,0.3829,0.3472,0.3848,0.4212,0.0,0.0,0.4624,0.4413,0.4865,0.5125,0.4767,0.0,0.0,0.0,0.0,0.0,0.0,0.0,0.0,0.0,0.0,0.0,0.0,0.0,0.0,0.0,0.0,0.0,0.0,0.0,0.0,0.0,0.0,0.0,0.0,0.0,0.0,0.0,0.0,0.0,0.0,0.0,0.0,0.0,0.0,0.0,0.0,0.0,0.0,0.0,0.0,0.0,0.0,0.0,0.0,0.0,0.0,0.0,0.0,0.0,0.0,0.0,0.0,0.0,0.6072,0.7021,0.8034,0.8639,0.8804,0.8804,0.9113,0.9762,0.9596,0.9282,0.0,0.0,0.0,0.0,0.0,0.0,0.0,0.0,0.0,0.0,0.0,0.0,0.0,0.0,0.0,0.0,0.0,0.0,0.0,0.0,0.0,0.0,0.0,0.0,0.0,0.0,0.0,0.0,0.296,0.2984,0.2762,0.0,0.0,0.0,0.0,0.0,0.0,0.0,0.0,0.0,0.0,0.4089,0.3569,0.4267,0.0,0.0,0.4219,0.4167,0.3893,0.4078,0.4215,0.4103,0.4119,0.0,0.0,0.0,0.0,0.0,0.0,0.0,0.0,0.0,0.0,0.0,0.0,0.0,0.0,0.0,0.0,0.0,0.0,0.0,0.0,0.0,0.0,0.0,0.0,0.0,0.0,0.0,0.0,0.0,0.0,0.0,0.0,0.0,0.0,0.0,0.0,0.0,0.0,0.0,0.0,0.0,0.0,0.0,0.0,0.0,0.0,0.0,0.0,0.0,0.0,0.0,0.0,0.6394,0.6972,0.8196,0.8804,0.8804,0.8804,0.9008,0.9496,0.9364,0.9104,0.0,0.0,0.0,0.0,0.0,0.0,0.0,0.0,0.0,0.0,0.0,0.0,0.0,0.0,0.0,0.0,0.0,0.0,0.0,0.0,0.0,0.0,0.0,0.0,0.0,0.0,0.0,0.0,0.2871,0.2953,0.2765,0.0,0.0,0.0,0.0,0.0,0.0,0.0,0.0,0.0,0.0,0.4309,0.3736,0.4581,0.5004,0.4105,0.3981,0.3945,0.3785,0.3811,0.3765,0.356,0.0,0.0,0.0,0.0,0.0,0.0,0.0,0.0,0.0,0.0,0.0,0.0,0.0,0.0,0.0,0.0,0.0,0.0,0.0,0.0,0.0,0.0,0.0,0.0,0.0,0.0,0.0,0.0,0.0,0.0,0.4455,0.0,0.0,0.0,0.0,0.0,0.0,0.0,0.0,0.0,0.0,0.0,0.0,0.0,0.0,0.0,0.0,0.0,0.0,0.0,0.0,0.0,0.0,0.6272,0.7027,0.8203,0.8804,0.8804,0.8804,0.8804,0.8844,0.8763,0.8618,0.8341,0.0,0.0,0.0,0.0,0.0,0.0,0.0,0.0,0.0,0.0,0.0,0.0,0.0,0.0,0.0,0.0,0.0,0.0,0.0,0.0,0.0,0.0,0.0,0.0,0.0,0.0,0.2786,0.2695,0.2628,0.0,0.0,0.0,0.0,0.0,0.0,0.0,0.0,0.0,0.0,0.416,0.4597,0.4093,0.4724,0.496,0.4096,0.3993,0.4091,0.4305,0.4251,0.3921,0.0,0.0,0.0,0.0,0.0,0.0,0.0,0.0,0.0,0.0,0.0,0.0,0.0,0.0,0.0,0.0,0.0,0.0,0.0,0.0,0.0,0.0,0.0,0.0,0.0,0.0,0.0,0.6567,0.6235,0.0,0.0,0.0,0.0,0.0,0.0,0.0,0.0,0.0,0.0,0.0,0.7782,0.7876,0.0,0.0,0.0,0.0,0.0,0.0,0.0,0.0,0.0,0.0,0.0,0.0,0.6686,0.7328,0.8303,0.8804,0.8804,0.8804,0.8804,0.8798,0.8962,0.8875,0.8501,0.0,0.0,0.0,0.0,0.0,0.0,0.0,0.0,0.0,0.0,0.0,0.0,0.0,0.0,0.0,0.0,0.0,0.0,0.0,0.0,0.0,0.0,0.0,0.0,0.0,0.3007,0.0,0.0,0.0,0.0,0.0,0.0,0.0,0.0,0.0,0.0,0.0,0.3711,0.3867,0.4425,0.4825,0.4859,0.4756,0.4333,0.0,0.0,0.0,0.0,0.0,0.0,0.0,0.0,0.0,0.0,0.0,0.0,0.0,0.0,0.2214,0.2264,0.2339,0.2276,0.1799,0.0,0.0,0.0,0.0,0.0,0.0,0.0,0.0,0.0,0.0,0.0,0.0,0.0,0.0,0.7822,0.0,0.7228,0.0,0.0,0.0,0.0,0.0,0.0,0.0,0.0,0.8323,0.8831,0.8824,0.8884,0.8724,0.0,0.7836,0.7108,0.0,0.0,0.0,0.0,0.0,0.0,0.0,0.0,0.7034,0.7635,0.8404,0.8804,0.8804,0.8804,0.8804,0.8798,0.9307,0.9219,0.8596,0.8422,0.798,0.0,0.0,0.0,0.0,0.0,0.0,0.0,0.0,0.0,0.0,0.0,0.0,0.0,0.0,0.0,0.0,0.0,0.0,0.0,0.0,0.0,0.0,0.0,0.3288,0.0,0.0,0.0,0.0,0.0,0.0,0.0,0.0,0.0,0.3513,0.3786,0.4034,0.4233,0.4533,0.4875,0.5257,0.0,0.0,0.0,0.0,0.0,0.0,0.0,0.4055,0.3962,0.3845,0.3682,0.3461,0.3353,0.3208,0.2966,0.0,0.0,0.2503,0.2596,0.2572,0.2299,0.207,0.1833,0.1541,0.1415,0.1304,0.0,0.0,0.0,0.0,0.0,0.0,0.0,0.0,0.8911,0.8905,0.0,0.8257,0.0,0.0,0.0,0.0,0.0,0.8003,0.0,0.0,0.9319,0.9719,0.9706,0.9699,0.9699,0.9679,0.9359,0.8925,0.8323,0.6667,0.0,0.0,0.0,0.0,0.0,0.0,0.7341,0.7936,0.8466,0.8804,0.8804,0.8804,0.8804,0.885,0.9692,0.9698,0.8692,0.9261,0.9028,0.7783,0.7168,0.0,0.0,0.0,0.0,0.0,0.0,0.0,0.0,0.0,0.0,0.0,0.0,0.0,0.0,0.0,0.0,0.0,0.0,0.0,0.0,0.334,0.0,0.0,0.0,0.0,0.0,0.0,0.0,0.0,0.0,0.0,0.3645,0.4279,0.4712,0.4483,0.0,0.0,0.0,0.0,0.5511,0.6099,0.5496,0.4946,0.4882,0.5173,0.5003,0.3735,0.0,0.0,0.311,0.3721,0.3853,0.251,0.2561,0.2775,0.2908,0.2986,0.3075,0.3083,0.2826,0.2562,0.2254,0.1919,0.1648,1.167,0.0,0.0,0.0,0.0,1.0454,1.0681,1.0975,1.0768,1.0561,1.0314,0.9526,0.0,0.0,0.0,0.0,0.0,0.0,0.9419,0.9653,1.0307,1.0508,1.0307,1.0307,1.02,0.9987,0.9699,0.9472,0.9272,0.8377,0.7281,0.6095,0.0,0.0,0.0,0.0,0.7862,0.8243,0.8617,0.8804,0.8804,0.8804,0.9008,0.9517,0.999,1.0161,0.9987,1.008,0.9648,0.8682,0.8067,0.0,0.0,0.0,0.0,0.0,0.0,0.0,0.0,0.0,0.0,0.0,0.0,0.0,0.0,0.0,0.0,0.0,0.0,0.0,0.3621,0.3369,0.3373,0.0,0.0,0.0,0.0,0.0,0.0,0.0,0.0,0.0,0.4792,0.4788,0.4901,0.0,0.0,0.5184,0.3667,0.4739,0.5988,0.6667,0.0,0.0,0.0,0.4898,0.483,0.4111,0.378,0.3579,0.3666,0.3393,0.312,0.2991,0.3343,0.3566,0.3336,0.3116,0.3067,0.3272,0.2833,0.2328,0.2193,0.2,0.1781,1.3467,1.2351,1.1884,1.1683,1.169,1.1683,1.1817,1.2037,1.1977,1.185,1.165,1.1009,1.0468,0.9993,0.9536,0.0,0.0,0.0,1.0294,1.0474,1.0949,1.1076,1.0909,1.0902,1.0748,1.0454,1.0167,0.9973,0.9846,0.9379,0.8557,0.7415,0.0,0.0,0.7315,0.7849,0.8272,0.8537,0.8717,0.8804,0.8804,0.9061,0.9413,0.9806,1.0458,1.0785,1.0633,1.0761,1.0312,0.9297,0.8596,0.7834,0.0,0.0,0.0,0.0,0.0,0.0,0.0,0.0,0.0,0.0,0.0,0.2841,0.2884,0.0,0.0,0.0,0.3011,0.3522,0.3723,0.363,0.0,0.0,0.0,0.0,0.0,0.0,0.0,0.5571,0.5658,0.5705,0.5785,0.5618,0.5527,0.5591,0.577,0.5393,0.3928,0.0,0.5851,0.6838,0.6827,0.6268,0.5073,0.5187,0.5179,0.4459,0.3839,0.3479,0.3639,0.3171,0.2874,0.32,0.3418,0.3528,0.3687,0.3199,0.2903,0.3368,0.2834,0.229,0.2214,0.1997,0.1803,1.487,1.4529,1.342,1.301,1.2963,1.2963,1.2732,1.2498,1.2752,1.2916,1.2869,1.2478,1.2178,1.185,1.1062,0.0,1.0806,1.0982,1.1116,1.1142,1.1383,1.1483,1.1463,1.1463,1.1309,1.1022,1.0799,1.0454,1.018,0.9866,0.9579,0.9236,0.8426,0.8183,0.8397,0.845,0.8592,0.8798,0.8804,0.8804,0.8804,0.9465,0.9814,0.9858,1.109,1.1417,1.0741,1.1252,1.0947,0.9709,0.8877,0.8057,0.7254,0.0,0.0,0.0,0.0,0.0,0.0,0.0,0.0,0.0,0.0,0.0,0.0,0.0,0.0,0.0,0.3642,0.0,0.3599,0.4088,0.0,0.0,0.0,0.4262,0.3698,0.4643,0.5578,0.6189,0.0,0.0,0.6553,0.0,0.6421,0.5866,0.5686,0.5549,0.546,0.5276,0.5521,0.6822,0.6972,0.6586,0.5471,0.5535,0.541,0.4529,0.3957,0.3481,0.3294,0.2977,0.2874,0.3163,0.297,0.3003,0.3793,0.3167,0.2754,0.3359,0.288,0.2343,0.2228,0.2012,0.183,1.5578,1.5471,1.4977,1.4509,1.4095,1.4095,1.4055,1.3981,1.3834,1.3641,1.3394,1.2872,1.2478,1.2184,1.1984,1.2011,1.2298,1.2064,1.2111,1.2385,1.2164,1.1977,1.1764,1.1764,1.161,1.1316,1.1029,1.0855,1.0762,1.0267,0.998,0.9893,0.9479,0.9078,0.8724,0.8905,0.8938,0.8804,0.8804,0.8804,0.8811,0.9458,1.0064,1.0568,1.1089,1.1342,1.1343,1.1155,1.0771,1.0146,0.9316,0.8665,0.8247,0.6888,0.0,0.0,0.0,0.0,0.0,0.0,0.0,0.0,0.0,0.2612,0.3054,0.0,0.3475,0.0,0.3532,0.3765,0.4137,0.4322,0.0,0.0,0.507,0.5023,0.4876,0.5304,0.5919,0.6727,0.662,0.6506,0.658,0.678,0.6872,0.6706,0.6648,0.6654,0.6615,0.654,0.6607,0.6904,0.6979,0.6592,0.5465,0.4575,0.4003,0.3671,0.3308,0.3036,0.2997,0.2822,0.2746,0.2838,0.3127,0.3341,0.3449,0.3233,0.3119,0.316,0.2709,0.2269,0.2327,0.2147,0.192,1.5825,1.5818,1.5651,1.5398,1.5084,1.483,1.4716,1.4703,1.4543,1.4309,1.3995,1.34,1.3053,1.2886,1.2766,1.2799,1.2933,1.2779,1.2719,1.2815,1.2572,1.2345,1.2064,1.2483,1.2324,1.1623,1.186,1.1715,1.1162,1.1099,1.1051,1.1044,1.0749,1.0413,0.9939,0.9745,0.9449,0.8998,0.8871,0.8962,0.9263,0.9917,1.0407,1.0805,1.1265,1.1369,1.1167,1.0888,1.0441,0.9753,0.9107,0.8431,0.789,0.7119,0.6508,0.0,0.0,0.0,0.0,0.0,0.0,0.0,0.0,0.0,0.0,0.0,0.4255,0.4097,0.4323,0.4608,0.4957,0.511,0.5317,0.5672,0.5625,0.5605,0.5699,0.5927,0.6293,0.6941,0.7001,0.6981,0.6981,0.7235,0.7384,0.7377,0.7384,0.7321,0.7074,0.6972,0.6852,0.6337,0.6416,0.6161,0.5082,0.4105,0.3429,0.3309,0.3215,0.3069,0.2937,0.2859,0.2853,0.2963,0.3074,0.3192,0.3286,0.3142,0.3016,0.2896,0.2678,0.2391,0.2248,0.2111,0.1964,1.5825,1.5825,1.5825,1.5825,1.5792,1.5291,1.505,1.5023,1.5017,1.4856,1.4536,1.3995,1.3748,1.3892,1.3534,1.34,1.3473,1.336,1.312,1.2866,1.2856,1.2688,1.258,1.3324,1.3244,1.2345,1.3072,1.2833,1.1676,1.2182,1.2322,1.2171,1.2047,1.1806,1.1487,1.0997,1.0325,0.9494,0.9212,0.9368,0.9917,1.0568,1.0914,1.0956,1.1478,1.1449,1.0776,1.065,1.0228,0.9328,0.8884,0.8244,0.7374,0.7302,0.7188,0.0,0.744,0.0,0.0,0.0,0.0,0.0,0.0,0.0,0.0,0.4939,0.5271,0.4947,0.5451,0.5825,0.5825,0.6129,0.6324,0.635,0.6169,0.6122,0.629,0.6498,0.6774,0.7058,0.7368,0.7567,0.7574,0.7762,0.7923,0.7842,0.7829,0.7676,0.7258,0.7058,0.6677,0.5647,0.5685,0.5513,0.4648,0.3961,0.3527,0.3412,0.3351,0.33,0.3022,0.2971,0.3025,0.3158,0.2955,0.2841,0.3163,0.294,0.2712,0.2702,0.2692,0.2533,0.2221,0.2065,0.1987,1.5825,1.5825,1.5825,1.5825,1.5818,1.5712,1.5531,1.5317,1.5317,1.515,1.4856,1.4509,1.485,1.5481,1.4455,1.4407,1.5182,1.4062,1.3527,1.3454,1.2973,1.3161,1.3836,1.3726,1.3988,1.4545,1.4482,1.3899,1.2947,1.3207,1.2956,1.2243,1.2554,1.2732,1.2696,0.0,0.0,0.0,1.0641,1.0517,1.0618,1.1266,1.1607,1.1598,1.1631,0.0,1.1421,1.1051,1.0804,1.0713,1.0196,0.0,0.0,0.0,0.0,0.0,0.0,0.0,0.0,0.0,0.0,0.0,0.5402,0.4818,0.5043,0.5658,0.59,0.5598,0.6079,0.6426,0.6433,0.6687,0.6954,0.7174,0.6967,0.6814,0.6867,0.7168,0.7482,0.7722,0.7809,0.7842,0.7849,0.7855,0.7895,0.7963,0.7929,0.7908,0.7941,0.7397,0.6914,0.6683,0.5947,0.5173,0.4517,0.3921,0.3568,0.3524,0.3422,0.3293,0.3219,0.31,0.2971,0.3008,0.2798,0.2716,0.2808,0.2746,0.2712,0.2679,0.2679,0.2651,0.2441,0.2276,0.2124,1.7124,0.0,1.7662,1.7662,0.0,1.7669,1.7572,1.7423,1.6793,1.6704,1.7011,1.6673,1.669,1.7022,1.6362,1.6194,1.6429,1.5777,1.5367,1.5195,1.4937,1.4919,1.5036,1.53,1.5336,1.5226,1.5523,1.516,1.4307,1.4597,1.4366,1.372,1.3876,1.3804,1.3606,1.3593,1.3072,1.2018,1.1445,1.1208,1.1316,1.1616,1.1814,1.1805,0.0,0.0,0.0,0.0,0.0,0.0,0.0,0.0,0.0,0.0,0.0,0.9383,0.9552,0.9449,0.9104,0.9217,0.9005,0.8334,0.7354,0.6709,0.6592,0.6586,0.6599,0.6607,0.6987,0.7248,0.7255,0.7344,0.7535,0.7669,0.7562,0.7424,0.747,0.7909,0.8237,0.8317,0.8246,0.8151,0.815,0.829,0.8357,0.8363,0.8363,0.8383,0.841,0.7829,0.7131,0.6544,0.5556,0.4652,0.4136,0.3796,0.3622,0.3565,0.3514,0.3439,0.3361,0.331,0.3212,0.2995,0.284,0.2716,0.2716,0.2845,0.2937,0.2779,0.2874,0.2885,0.2666,0.2449,0.2272,1.8588,1.9497,1.9497,1.9497,1.9497,1.9497,1.967,1.9761,0.0,0.0,0.0,1.8846,1.8606,1.8499,1.8179,1.7946,1.7686,1.7514,1.7227,1.6951,1.6954,1.6681,1.6269,1.6872,1.6714,1.5831,1.6533,1.6358,1.55,1.5958,1.5876,1.5411,1.5223,1.4854,1.4392,1.4072,1.3607,1.2901,1.2184,1.1947,1.2081,1.2008,1.1972,1.1972,1.1908,1.1716,1.1396,1.1378,1.1177,1.0661,1.0615,1.0401,1.0013,1.0389,1.0723,1.0934,1.1334,1.1439,1.1055,1.1025,1.0746,1.0087,0.9324,0.8624,0.8111,0.7543,0.7296,0.7542,0.7829,0.7955,0.8009,0.8009,0.7981,0.8076,0.7941,0.7915,0.8048,0.8497,0.8771,0.8771,0.8582,0.847,0.8501,0.8644,0.8804,0.8798,0.8758,0.8804,0.8717,0.817,0.7361,0.6379,0.5598,0.4662,0.3928,0.3796,0.3711,0.3622,0.3619,0.3578,0.3492,0.354,0.3468,0.3107,0.2849,0.2706,0.2716,0.3003,0.3134,0.2779,0.3003,0.3159,0.2798,0.2613,0.2431,1.9314,1.9497,1.9497,1.9497,1.9497,1.9497,2.0124,2.0935,1.9761,1.9281,1.9389,1.9132,1.9555,2.0277,1.9084,1.8819,1.9217,1.8303,1.7697,0.0,1.7,1.7269,1.7926,1.7432,1.7521,1.8085,1.7898,1.7364,1.6522,1.6949,1.6713,1.5942,1.5873,1.566,1.5264,1.5177,1.4907,1.4434,1.3667,1.3212,1.3246,1.2908,1.2774,1.2696,1.2358,1.2146,1.2041,1.2088,1.203,1.1914,1.183,1.1784,1.1849,1.1773,1.1683,1.1509,1.1562,1.1577,1.1518,1.1508,1.1445,1.132,1.0858,1.0011,0.8792,0.8295,0.7977,0.7876,0.8143,0.8317,0.836,0.831,0.8404,0.8591,0.823,0.8074,0.8584,0.8738,0.8804,0.8804,0.8764,0.8717,0.8717,0.8771,0.8804,0.8804,0.8804,0.8804,0.8744,0.843,0.7802,0.7037,0.6536,0.5763,0.4675,0.4303,0.4136,0.3667,0.3626,0.366,0.3581,0.3602,0.354,0.3283,0.2954,0.2764,0.273,0.3035,0.3101,0.2845,0.3039,0.3196,0.2812,0.2649,0.2537,2.0854,2.1409,2.1409,2.1409,2.1498,2.1409,2.1774,2.2217,2.1676,2.1489,2.148,2.1298,2.1466,2.1607,2.0983,2.0643,2.0467,1.997,1.9498,1.9107,1.8985,1.9016,1.9099,1.8609,1.8419,1.8553,1.8213,1.7794,1.7413,1.76,1.7388,1.6703,1.6297,1.585,1.5439,1.542,1.5322,1.5117,1.4512,1.3975,1.3516,1.332,1.3115,1.29,1.2686,1.2578,1.2588,1.2578,1.2588,1.2578,1.2521,1.2521,1.2578,1.2506,1.2444,1.2322,1.2322,1.2322,1.2322,1.2322,1.2322,1.2285,1.211,1.15,1.0354,0.9638,0.9176,0.8941,0.8786,0.8604,0.8604,0.8611,0.8671,0.8784,0.855,0.8517,0.8744,0.8804,0.8804,0.8804,0.8804,0.8804,0.8804,0.8804,0.8804,0.8804,0.8804,0.8804,0.8804,0.8657,0.8424,0.8001,0.7192,0.6248,0.5306,0.4974,0.4666,0.4136,0.4052,0.3924,0.3707,0.3578,0.3537,0.3449,0.3151,0.2927,0.2888,0.3315,0.3319,0.2907,0.327,0.3368,0.2937,0.2654,0.2493,2.2217,2.3144,2.3144,2.3144,2.3144,2.3144,2.3144,2.3144,2.3047,2.3144,2.3144,2.3144,2.2959,2.2666,2.2646,2.2246,2.1582,2.1416,2.1143,2.0732,2.0615,2.0381,2.0049,1.9629,1.9199,1.8769,1.8359,1.8096,1.8018,1.8008,1.7793,1.7344,1.6592,1.5996,1.5566,1.5459,1.542,1.5391,1.5088,1.4551,1.3828,1.3613,1.335,1.3047,1.293,1.2891,1.2891,1.2891,1.2891,1.2891,1.2891,1.2891,1.2891,1.2891,1.2891,1.2891,1.2891,1.2891,1.2891,1.2891,1.2891,1.2891,1.292,1.2607,1.1853,1.104,1.0308,0.9821,0.9287,0.8995,0.8791,0.8798,0.8804,0.8804,0.8804,0.8784,0.8804,0.8804,0.8804,0.8804,0.8804,0.8804,0.8804,0.8804,0.8804,0.8804,0.8804,0.8804,0.8804,0.8804,0.8804,0.856,0.7758,0.6812,0.6081,0.5768,0.5291,0.4578,0.4387,0.4132,0.3751,0.3578,0.3578,0.3585,0.3681,0.3509,0.3343,0.3795,0.3808,0.3191,0.3467,0.3695,0.2904,0.2596,0.2445,2.296,2.3047,2.3144,2.3144,2.3144,2.3144,2.3144,2.3144,2.3144,2.3144,2.3144,2.3144,2.3125,2.3086,2.3066,2.2793,2.2344,2.2002,2.1572,2.1143,2.0742,2.0547,2.0449,2.0049,1.9629,1.9199,1.8769,1.835,1.8027,1.8008,1.7793,1.7383,1.6904,1.6436,1.6006,1.5615,1.542,1.542,1.5371,1.5137,1.4648,1.3906,1.3486,1.3447,1.3086,1.2891,1.2891,1.2891,1.2891,1.2891,1.2891,1.2891,1.2891,1.2891,1.2891,1.2891,1.2891,1.2891,1.2891,1.2891,1.2891,1.2891,1.2891,1.2842,1.2696,1.208,1.1124,1.0167,0.9769,0.9406,0.891,0.8811,0.8804,0.8804,0.8804,0.8804,0.8804,0.8804,0.8804,0.8804,0.8804,0.8804,0.8804,0.8804,0.8804,0.8804,0.8804,0.8804,0.8804,0.8804,0.8804,0.8764,0.8426,0.7785,0.687,0.6509,0.5918,0.4785,0.443,0.4176,0.384,0.3578,0.3578,0.366,0.4413,0.4559,0.4139,0.4337,0.4529,0.3666,0.3587,0.3728,0.2958,0.2603,0.2482,2.3369,2.3144,2.3144,2.3144,2.3144,2.3144,2.3144,2.3144,2.3144,2.3144,2.3144,2.3144,2.3144,2.3144,2.3144,2.291,2.25,2.207,2.165,2.1211,2.0771,2.0576,2.0518,2.0117,1.9697,1.9277,1.8848,1.8418,1.8066,1.8008,1.7793,1.7412,1.7197,1.6768,1.6174,1.5889,1.5674,1.542,1.542,1.5322,1.5117,1.458,1.4014,1.3545,1.334,1.3125,1.292,1.2891,1.2891,1.2891,1.2891,1.2891,1.2891,1.2891,1.2891,1.2891,1.2891,1.2891,1.2891,1.2891,1.2891,1.2891,1.2891,1.2891,1.2881,1.2608,1.2039,1.1116,1.0261,0.9666,0.9413,0.9061,0.8804,0.8804,0.8804,0.8804,0.8804,0.8804,0.8804,0.8804,0.8804,0.8804,0.8804,0.8804,0.8804,0.8804,0.8804,0.8804,0.8804,0.8804,0.8804,0.8791,0.8697,0.8426,0.7711,0.734,0.6549,0.555,0.5027,0.4705,0.3847,0.3622,0.3578,0.3622,0.4574,0.4933,0.4178,0.4685,0.5025,0.4236,0.3539,0.3397,0.2812,0.2664,0.2623,2.3613,2.332,2.3203,2.3144,2.3144,2.3144,2.3144,2.3144,2.3144,2.3144,2.3144,2.3144,2.3144,2.3144,2.3144,2.2969,2.2656,2.2246,2.1826,2.1396,2.0957,2.0693,2.0547,2.0254,1.9873,1.9453,1.9033,1.8545,1.8066,1.8008,1.7852,1.7578,1.7441,1.7002,1.6309,1.6143,1.584,1.5449,1.542,1.542,1.5371,1.5117,1.46,1.3916,1.3623,1.3359,1.3066,1.2939,1.2891,1.2891,1.2891,1.2891,1.2891,1.2891,1.2891,1.2891,1.2891,1.2891,1.2891,1.2891,1.2891,1.2891,1.2891,1.2891,1.2891,1.2891,1.2666,1.2138,1.1015,1.0312,0.9769,0.9211,0.8804,0.8804,0.8804,0.8804,0.8804,0.8804,0.8804,0.8804,0.8804,0.8804,0.8804,0.8804,0.8804,0.8804,0.8804,0.8804,0.8804,0.8804,0.8804,0.8804,0.8804,0.8671,0.8454,0.8063,0.7205,0.6189,0.5515,0.4977,0.3932,0.366,0.3751,0.3965,0.4787,0.5174,0.4934,0.5292,0.5491,0.4739,0.4015,0.3382,0.301,0.2808,0.2709,2.3789,2.3682,2.331,2.3144,2.3144,2.3144,2.3144,2.3144,2.3144,2.3144,2.3144,2.3144,2.3144,2.3144,2.3144,2.3125,2.3047,2.2646,2.2236,2.1836,2.1387,2.0967,2.0576,2.0537,2.0293,1.9824,1.9443,1.8838,1.8076,1.8027,1.8008,1.7949,1.7598,1.7178,1.6709,1.6309,1.5859,1.5508,1.543,1.542,1.541,1.5381,1.5146,1.4668,1.3955,1.3545,1.3437,1.3096,1.2949,1.2939,1.2939,1.2891,1.2891,1.2891,1.2891,1.2891,1.2891,1.2891,1.2891,1.2891,1.2891,1.2891,1.2891,1.2891,1.2891,1.2891,1.2881,1.2832,1.203,1.1116,1.0012,0.9316,0.8857,0.8804,0.8804,0.8804,0.8804,0.8804,0.8804,0.8804,0.8804,0.8804,0.8804,0.8804,0.8804,0.8804,0.8804,0.8804,0.8804,0.8804,0.8804,0.8804,0.8791,0.8711,0.8444,0.8299,0.7579,0.6525,0.5741,0.5286,0.4413,0.3778,0.3969,0.4351,0.5087,0.5561,0.571,0.577,0.5819,0.528,0.4383,0.3729,0.3315,0.2926,0.2746,2.3867,2.3369,2.3213,2.3144,2.3144,2.3144,2.3144,2.3144,2.3144,2.3144,2.3144,2.3144,2.3144,2.3144,2.3144,2.3144,2.3086,2.2705,2.2432,2.2217,2.1572,2.1143,2.0996,2.0713,2.0332,1.9941,1.9756,1.9248,1.8496,1.8408,1.8271,1.8037,1.7861,1.7578,1.7148,1.6719,1.6269,1.585,1.5566,1.542,1.542,1.542,1.5332,1.5176,1.4629,1.4189,1.3906,1.3506,1.3293,1.3282,1.3017,1.2891,1.2891,1.2891,1.2891,1.2891,1.2891,1.2891,1.2891,1.2891,1.2891,1.2891,1.2891,1.2891,1.2891,1.2891,1.2891,1.2774,1.2236,1.1366,1.0618,0.9814,0.9263,0.891,0.8804,0.8804,0.8804,0.8804,0.8804,0.8804,0.8804,0.8804,0.8804,0.8804,0.8804,0.8804,0.8804,0.8804,0.8804,0.8804,0.8804,0.8804,0.8804,0.8771,0.8697,0.8477,0.7948,0.6817,0.5961,0.5424,0.4666,0.3991,0.398,0.4951,0.5631,0.6052,0.6227,0.6225,0.6227,0.5786,0.4877,0.423,0.3694,0.3234,0.2911,2.4004,2.3379,2.3193,2.3144,2.3144,2.3144,2.3144,2.3144,2.3144,2.3144,2.3144,2.3144,2.3144,2.3144,2.3144,2.3144,2.3115,2.2842,2.2646,2.2471,2.1914,2.1504,2.1211,2.0928,2.0557,2.0156,1.9961,1.9473,1.866,1.8562,1.8418,1.8037,1.8008,1.7803,1.7402,1.708,1.667,1.6113,1.5762,1.5576,1.5449,1.542,1.542,1.5381,1.5137,1.4785,1.4355,1.3936,1.3686,1.3621,1.3313,1.3027,1.29,1.2891,1.2891,1.2891,1.2891,1.2891,1.2891,1.2891,1.2891,1.2891,1.2891,1.2891,1.2891,1.2891,1.2891,1.2774,1.2501,1.1832,1.0965,1.0364,0.9762,0.9061,0.9061,0.9211,0.9166,0.9211,0.9106,0.8857,0.8804,0.8804,0.8804,0.8804,0.8804,0.8804,0.8804,0.8804,0.8804,0.8804,0.8804,0.8804,0.8804,0.8804,0.8764,0.8637,0.7984,0.6943,0.638,0.577,0.5253,0.4521,0.4559,0.5525,0.6139,0.6532,0.671,0.667,0.6431,0.6117,0.5553,0.4894,0.4219,0.3509,0.3143,2.418,2.373,2.333,2.3164,2.3144,2.3144,2.3144,2.3144,2.3144,2.3144,2.3144,2.3144,2.3144,2.3144,2.3144,2.3144,2.3125,2.3086,2.2891,2.2568,2.2461,2.1992,2.1318,2.1211,2.0928,2.0498,2.0127,1.9512,1.8789,1.8711,1.8486,1.8115,1.8027,1.7832,1.7402,1.7334,1.6934,1.638,1.6084,1.583,1.5478,1.5439,1.542,1.542,1.5381,1.5186,1.4785,1.4365,1.4125,1.4086,1.3746,1.332,1.3037,1.2959,1.292,1.293,1.29,1.2891,1.2891,1.2891,1.2891,1.2891,1.2891,1.2891,1.2891,1.2891,1.2891,1.2881,1.2783,1.2304,1.1174,1.0771,1.0167,0.9166,0.9413,0.9762,0.9762,0.9961,0.9814,0.9008,0.8804,0.8804,0.8804,0.8804,0.8804,0.8804,0.8804,0.8804,0.8804,0.8804,0.8804,0.8804,0.8804,0.8804,0.8804,0.8692,0.7818,0.7079,0.6744,0.6355,0.5957,0.5408,0.5677,0.644,0.6508,0.6885,0.6852,0.6824,0.6806,0.6471,0.5964,0.5413,0.468,0.3935,0.3364,2.4453,2.3799,2.3652,2.3408,2.3154,2.3144,2.3144,2.3144,2.3144,2.3144,2.3144,2.3144,2.3144,2.3144,2.3144,2.3144,2.3144,2.3135,2.3057,2.291,2.2656,2.2236,2.1728,2.1377,2.1006,2.0615,2.043,2.0068,1.9541,1.9219,1.8867,1.8477,1.8144,1.7959,1.7793,1.7529,1.7197,1.6953,1.6419,1.6047,1.583,1.5566,1.542,1.542,1.542,1.5342,1.5205,1.4805,1.4612,1.4542,1.414,1.3877,1.3721,1.3467,1.3311,1.3281,1.3027,1.2891,1.2891,1.29,1.292,1.29,1.29,1.2891,1.2891,1.291,1.292,1.291,1.2881,1.2461,1.1674,1.1057,1.03,0.8969,0.9061,0.9309,0.9256,0.9256,0.9106,0.891,0.8804,0.8804,0.8804,0.8804,0.8804,0.8804,0.8804,0.8804,0.8804,0.8804,0.8804,0.8804,0.8804,0.8804,0.8804,0.8752,0.8262,0.7616,0.7289,0.6968,0.6627,0.6436,0.6758,0.6896,0.7006,0.7018,0.6985,0.6945,0.6927,0.6772,0.6291,0.5687,0.5026,0.4404,0.3838,2.4756,2.4248,2.3926,2.3633,2.3359,2.3223,2.3144,2.3144,2.3144,2.3144,2.3144,2.3144,2.3144,2.3144,2.3144,2.3144,2.3144,2.3144,2.3144,2.3115,2.29,2.2519,2.207,2.1494,2.1006,2.0635,2.0566,2.0342,1.9912,1.9639,1.9228,1.8672,1.8369,1.8154,1.8018,1.7754,1.7559,1.7334,1.7002,1.656,1.6145,1.5791,1.5576,1.5449,1.542,1.542,1.5391,1.5146,1.4993,1.4946,1.4596,1.4272,1.4087,1.3824,1.374,1.3691,1.3516,1.332,1.3223,1.334,1.3408,1.3478,1.3175,1.3066,1.3242,1.335,1.335,1.335,1.3369,1.3077,1.2386,1.1965,1.1076,0.9764,0.9397,0.918,0.9159,0.9256,0.9106,0.8956,0.8804,0.8804,0.8804,0.8804,0.8804,0.8804,0.8804,0.8804,0.8804,0.8804,0.8804,0.8804,0.8804,0.8804,0.8804,0.8699,0.8593,0.8209,0.7806,0.7571,0.7211,0.7111,0.7241,0.7185,0.7249,0.7045,0.6972,0.6972,0.6932,0.6735,0.6546,0.6007,0.542,0.4892,0.426,2.5088,2.4961,2.4209,2.3857,2.3721,2.3369,2.3193,2.3144,2.3144,2.3144,2.3144,2.3144,2.3144,2.3144,2.3144,2.3144,2.3144,2.3144,2.3144,2.3144,2.3066,2.2852,2.2383,2.1611,2.1045,2.0713,2.0605,2.0352,2.0039,1.9893,1.9512,1.8877,1.8682,1.8447,1.8144,1.8027,1.7793,1.7586,1.7704,1.7238,1.6321,1.6184,1.5908,1.5527,1.5498,1.5478,1.54,1.5371,1.5381,1.5361,1.501,1.4668,1.4316,1.4145,1.4126,1.4107,1.415,1.3945,1.3795,1.3815,1.4102,1.4272,1.3674,1.3262,1.3834,1.4004,1.4023,1.3994,1.3961,1.3777,1.3266,1.2933,1.2269,1.1129,1.0073,0.9598,0.9718,0.9865,0.951,0.8956,0.8804,0.8804,0.8804,0.8804,0.8804,0.8804,0.8804,0.8804,0.8804,0.8804,0.8804,0.8804,0.8804,0.8804,0.8804,0.8752,0.8699,0.8533,0.8262,0.8072,0.787,0.7788,0.7682,0.764,0.7393,0.7184,0.7021,0.707,0.7021,0.689,0.6617,0.6257,0.5767,0.5142,0.4503,2.5371,2.5049,2.4824,2.4365,2.3828,2.3652,2.3418,2.3164,2.3144,2.3144,2.3144,2.3144,2.3144,2.3144,2.3144,2.3144,2.3144,2.3144,2.3144,2.3144,2.3144,2.29,2.2412,2.166,2.1191,2.1006,2.0732,2.0508,2.0371,2.0088,1.9805,1.9561,1.8955,1.8543,1.8457,1.8164,1.7978,1.7812,1.7605,1.7475,1.7105,1.6689,1.6338,1.5947,1.5889,1.5732,1.5459,1.542,1.542,1.541,1.5322,1.5215,1.501,1.4766,1.4609,1.457,1.4326,1.4141,1.4038,1.4068,1.4145,1.4248,1.4189,1.4131,1.4048,1.4336,1.4326,1.4209,1.4087,1.4053,1.3819,1.3395,1.2674,1.1781,1.0339,0.9281,0.9201,0.9106,0.9061,0.8857,0.8831,0.8831,0.8831,0.8811,0.8811,0.8804,0.8804,0.8804,0.8804,0.8804,0.8804,0.8804,0.8804,0.8804,0.8804,0.8804,0.8752,0.8752,0.8646,0.8586,0.8455,0.8408,0.8336,0.8268,0.7695,0.7384,0.7274,0.723,0.7125,0.7081,0.6868,0.6559,0.5806,0.5164,0.4512,2.5586,2.5332,2.5146,2.4678,2.4062,2.3867,2.3535,2.3193,2.3144,2.3144,2.3144,2.3144,2.3144,2.3144,2.3144,2.3144,2.3144,2.3144,2.3144,2.3144,2.3144,2.29,2.2471,2.1934,2.1592,2.1211,2.0967,2.0752,2.0557,2.0303,2.0107,1.9844,1.9414,1.9014,1.8533,1.824,1.7997,1.793,1.7744,1.7578,1.7373,1.7148,1.6797,1.6436,1.6328,1.6133,1.5752,1.5518,1.542,1.542,1.541,1.542,1.54,1.5195,1.5039,1.5029,1.4795,1.4632,1.4668,1.4668,1.4678,1.4697,1.4844,1.4824,1.4756,1.4834,1.4824,1.4681,1.4622,1.4678,1.4501,1.3989,1.3357,1.2743,1.1097,0.9914,0.9712,0.9487,0.9301,0.9185,0.9072,0.8991,0.8924,0.8891,0.8824,0.8804,0.8804,0.8804,0.8804,0.8804,0.8804,0.8804,0.8804,0.8804,0.8804,0.8804,0.8804,0.8804,0.8804,0.8804,0.8804,0.8804,0.862,0.8404,0.7979,0.7689,0.7567,0.748,0.7335,0.7241,0.7128,0.6751,0.6024,0.5353,0.469,2.5732,2.5703,2.5303,2.4853,2.4385,2.4004,2.3613,2.3193,2.3144,2.3144,2.3144,2.3144,2.3144,2.3144,2.3144,2.3144,2.3144,2.3144,2.3144,2.3144,2.3115,2.2939,2.2666,2.2451,2.2051,2.1523,2.1328,2.1016,2.0742,2.0605,2.0352,2.0059,1.9912,1.9512,1.8903,1.835,1.8072,1.8086,1.7998,1.7803,1.7578,1.7451,1.7227,1.6855,1.667,1.6426,1.6045,1.5723,1.5488,1.542,1.542,1.542,1.541,1.54,1.5391,1.5371,1.5312,1.5303,1.5361,1.5283,1.5352,1.5312,1.5332,1.542,1.5322,1.5303,1.5303,1.5254,1.54,1.5303,1.5168,1.4632,1.4173,1.3644,1.2564,1.1565,1.1153,1.0528,0.9907,0.9733,0.9452,0.9319,0.9212,0.9051,0.8864,0.8951,0.8898,0.8804,0.8804,0.8804,0.8804,0.8804,0.8804,0.8804,0.8804,0.8804,0.8804,0.8804,0.8804,0.8804,0.8804,0.8752,0.8685,0.8456,0.8287,0.8114,0.796,0.7822,0.7629,0.7488,0.7442,0.6956,0.6341,0.5733,0.5071,2.5732,2.5723,2.5625,2.5137,2.4473,2.4307,2.3838,2.3154,2.3144,2.3144,2.3144,2.3144,2.3144,2.3144,2.3144,2.3144,2.3144,2.3144,2.3144,2.3144,2.3144,2.3105,2.292,2.2695,2.2422,2.206,2.1514,2.1191,2.1025,2.0723,2.0527,2.04,2.0088,1.9834,1.9496,1.8893,1.8453,1.8457,1.8193,1.7988,1.7881,1.7822,1.7646,1.7256,1.6934,1.6533,1.6152,1.6027,1.5762,1.5518,1.5439,1.5469,1.542,1.542,1.542,1.542,1.542,1.542,1.542,1.542,1.542,1.542,1.542,1.542,1.542,1.542,1.542,1.542,1.542,1.542,1.5342,1.4688,1.4569,1.4455,1.3408,1.247,1.2652,1.1309,1.0345,0.9959,0.9791,0.9586,0.963,0.9325,0.9178,0.9132,0.8998,0.8844,0.8804,0.8804,0.8804,0.8804,0.8804,0.8804,0.8804,0.8804,0.8804,0.8804,0.8804,0.8804,0.8804,0.8804,0.8692,0.8692,0.8705,0.8552,0.8265,0.8026,0.7806,0.7762,0.7696,0.7244,0.675,0.6135,0.5555,2.5732,2.5732,2.5732,2.5225,2.4492,2.4404,2.3926,2.3252,2.3144,2.3144,2.3144,2.3144,2.3144,2.3144,2.3144,2.3144,2.3144,2.3144,2.3144,2.3144,2.3144,2.3144,2.3125,2.291,2.2725,2.2461,2.1875,2.1475,2.1172,2.083,2.0566,2.0566,2.0322,2.0098,1.9941,1.9434,1.9033,1.8592,1.8358,1.8223,1.8037,1.7998,1.7949,1.7646,1.7275,1.6904,1.6719,1.6475,1.6152,1.584,1.5723,1.5615,1.5439,1.542,1.542,1.542,1.542,1.542,1.542,1.542,1.542,1.542,1.542,1.542,1.542,1.542,1.542,1.542,1.542,1.541,1.5352,1.5108,1.5059,1.505,1.4433,1.4025,1.41,1.288,1.1262,1.0735,1.0387,1.0439,1.0298,0.9829,0.9763,0.9869,0.9212,0.8991,0.8811,0.8804,0.8804,0.8804,0.8804,0.8804,0.8804,0.8804,0.8804,0.8804,0.8804,0.8804,0.8804,0.8804,0.8804,0.8804,0.8804,0.8752,0.8527,0.8292,0.8128,0.8107,0.7968,0.7633,0.7195,0.6526,0.6018,2.5732,2.5732,2.5732,2.5225,2.4492,2.4414,2.3926,2.3203,2.3144,2.3144,2.3144,2.3144,2.3144,2.3144,2.3144,2.3144,2.3144,2.3144,2.3144,2.3144,2.3144,2.3144,2.3125,2.3066,2.2939,2.2578,2.2178,2.1787,2.1357,2.0908,2.0693,2.0596,2.0566,2.0361,2.0088,1.9893,1.9551,1.9014,1.863,1.8387,1.8164,1.8076,1.7988,1.79,1.7686,1.7402,1.7217,1.6963,1.6621,1.6211,1.6162,1.5967,1.5703,1.5439,1.542,1.542,1.542,1.542,1.542,1.542,1.542,1.542,1.542,1.542,1.542,1.542,1.542,1.542,1.542,1.542,1.542,1.5294,1.5352,1.5352,1.541,1.542,1.5235,1.4569,1.3184,1.2005,1.1396,1.1136,1.084,1.0453,1.0508,1.043,0.9749,0.919,0.9011,0.8804,0.8804,0.8804,0.8804,0.8804,0.8804,0.8804,0.8804,0.8804,0.8804,0.8804,0.8804,0.8804,0.8804,0.8804,0.8804,0.8752,0.8725,0.8572,0.8433,0.8404,0.8323,0.8118,0.7566,0.6933,0.6482,2.5732,2.5732,2.5732,2.5225,2.4482,2.4414,2.3906,2.3223,2.3144,2.3144,2.3144,2.3144,2.3144,2.3144,2.3144,2.3144,2.3144,2.3144,2.3144,2.3144,2.3144,2.3144,2.3144,2.3135,2.3086,2.2959,2.2607,2.2187,2.1768,2.1348,2.0918,2.0654,2.0576,2.0478,2.0342,2.0127,1.9883,1.9438,1.902,1.8669,1.8387,1.8184,1.8008,1.8008,1.7881,1.7715,1.7471,1.7324,1.708,1.668,1.6621,1.6572,1.6328,1.582,1.5547,1.5469,1.543,1.542,1.5478,1.542,1.542,1.542,1.542,1.5391,1.5391,1.542,1.542,1.543,1.5439,1.5439,1.542,1.5459,1.542,1.542,1.542,1.542,1.5352,1.5108,1.4864,1.3939,1.2841,1.1821,1.1624,1.1271,1.0929,1.0746,1.0172,0.9616,0.9285,0.9011,0.8804,0.8804,0.8804,0.8804,0.8804,0.8804,0.8804,0.8804,0.8804,0.8804,0.8804,0.8804,0.8804,0.8804,0.8804,0.8804,0.8764,0.8717,0.8697,0.8611,0.8584,0.855,0.8063,0.7522,0.6923,2.5732,2.5713,2.5498,2.5019,2.4443,2.418,2.374,2.3193,2.3144,2.3144,2.3144,2.3144,2.3144,2.3144,2.3144,2.3144,2.3144,2.3144,2.3144,2.3144,2.3144,2.3144,2.3144,2.3144,2.3144,2.3086,2.29,2.2598,2.2168,2.1523,2.1162,2.0918,2.0703,2.0576,2.0537,2.0371,2.0117,1.9817,1.9471,1.9035,1.8592,1.8232,1.8047,1.8008,1.8008,1.7891,1.7773,1.7705,1.75,1.7168,1.707,1.6943,1.6689,1.6387,1.5986,1.5791,1.5576,1.5547,1.5635,1.5605,1.5596,1.6006,1.5723,1.5457,1.5425,1.5436,1.5478,1.5488,1.5684,1.5654,1.5449,1.5615,1.5625,1.5459,1.542,1.542,1.542,1.542,1.542,1.5352,1.4159,1.3168,1.2882,1.2353,1.1563,1.0981,1.0565,1.0137,0.9663,0.9239,0.8931,0.8804,0.8804,0.8804,0.8804,0.8804,0.8804,0.8804,0.8804,0.8804,0.8804,0.8804,0.8804,0.8804,0.8804,0.8804,0.8798,0.8764,0.8791,0.8804,0.8738,0.8619,0.8475,0.8081,0.7457,2.5732,2.5703,2.5254,2.4824,2.4385,2.3975,2.3555,2.3193,2.3144,2.3144,2.3144,2.3144,2.3144,2.3144,2.3144,2.3144,2.3144,2.3144,2.3144,2.3144,2.3144,2.3144,2.3144,2.3144,2.3144,2.3135,2.3096,2.291,2.2432,2.1894,2.1484,2.1162,2.084,2.0625,2.0576,2.0518,2.0303,2.0148,1.9898,1.9474,1.8747,1.833,1.8076,1.8008,1.8008,1.7998,1.7959,1.7949,1.7822,1.7598,1.7471,1.7363,1.7051,1.6914,1.6699,1.6328,1.5918,1.5937,1.5996,1.5967,1.6064,1.6504,1.5986,1.5722,1.5752,1.5811,1.5752,1.5742,1.5947,1.6103,1.5908,1.6006,1.6016,1.5801,1.5586,1.542,1.542,1.542,1.542,1.5177,1.4688,1.4264,1.3768,1.3036,1.2096,1.1584,1.1167,1.0705,1.0186,0.9509,0.9125,0.8891,0.8804,0.8804,0.8804,0.8804,0.8804,0.8804,0.8804,0.8804,0.8804,0.8804,0.8804,0.8804,0.8804,0.8804,0.8804,0.8804,0.8804,0.8804,0.8804,0.8725,0.8619,0.8397,0.7967,2.5732,2.5693,2.5244,2.4824,2.4375,2.3945,2.3525,2.3164,2.3144,2.3144,2.3144,2.3144,2.3144,2.3144,2.3144,2.3144,2.3144,2.3144,2.3144,2.3144,2.3144,2.3144,2.3144,2.3144,2.3144,2.3144,2.3144,2.29,2.2598,2.2373,2.1943,2.1435,2.1201,2.0986,2.0684,2.0596,2.0537,2.043,2.007,1.9496,1.8786,1.8623,1.8379,1.8135,1.8047,1.8027,1.8027,1.8008,1.7939,1.793,1.79,1.7891,1.7803,1.749,1.7334,1.7119,1.6865,1.6592,1.6631,1.6494,1.6553,1.6768,1.6396,1.6344,1.6486,1.6553,1.6504,1.6582,1.6641,1.6572,1.6465,1.6582,1.6602,1.6309,1.5918,1.5596,1.5439,1.542,1.542,1.542,1.505,1.4688,1.4264,1.3425,1.2634,1.2189,1.1688,1.1205,1.0595,0.9883,0.9192,0.8925,0.8811,0.8804,0.8804,0.8804,0.8804,0.8804,0.8804,0.8804,0.8804,0.8804,0.8804,0.8804,0.8804,0.8804,0.8804,0.8804,0.8804,0.8784,0.8758,0.8778,0.8745,0.8533,0.8315,2.499,2.4951,2.4531,2.4238,2.4014,2.3603,2.332,2.3174,2.3144,2.3144,2.3144,2.3144,2.3144,2.3135,2.3144,2.3144,2.3144,2.3144,2.3144,2.3144,2.3144,2.3144,2.3144,2.3144,2.3144,2.3144,2.3135,2.3096,2.2842,2.2598,2.2246,2.1963,2.1403,2.1162,2.0908,2.0684,2.0596,2.0439,2.0146,1.9746,1.9394,1.9111,1.8799,1.8379,1.8359,1.8232,1.8076,1.8008,1.8008,1.8008,1.8008,1.8008,1.7978,1.7842,1.7734,1.7725,1.7578,1.7353,1.7129,1.6894,1.7021,1.7178,1.6982,1.6826,1.7227,1.7396,1.714,1.6738,1.6973,1.6992,1.6894,1.6973,1.6787,1.6553,1.6367,1.5986,1.5693,1.5449,1.542,1.542,1.5352,1.505,1.4569,1.3726,1.307,1.2634,1.2066,1.1461,1.0842,1.0006,0.9385,0.8871,0.8818,0.8804,0.8804,0.8804,0.8804,0.8804,0.8804,0.8804,0.8804,0.8804,0.8804,0.8804,0.8804,0.8804,0.8804,0.8798,0.8784,0.8744,0.8697,0.8724,0.8751,0.8745,0.8527,2.4199,2.4082,2.3877,2.3789,2.375,2.332,2.3144,2.3135,2.3464,2.3551,2.3551,2.356,2.3474,2.3135,2.3144,2.3144,2.3144,2.3144,2.3144,2.3144,2.3144,2.3144,2.3144,2.3144,2.3144,2.3144,2.3144,2.3115,2.3027,2.2842,2.2646,2.25,2.1943,2.1553,2.1318,2.1006,2.0752,2.0537,2.0273,2.0029,1.9824,1.958,1.9219,1.8906,1.8682,1.8486,1.8213,1.8027,1.8008,1.8008,1.8008,1.8008,1.7998,1.7969,1.7949,1.7949,1.7881,1.7793,1.7549,1.7373,1.7461,1.7568,1.7598,1.7353,1.7754,1.8022,1.7823,1.7178,1.7353,1.7334,1.7217,1.7393,1.7305,1.7158,1.6973,1.6553,1.6152,1.5879,1.5566,1.542,1.542,1.542,1.4874,1.3974,1.3373,1.3009,1.2458,1.1841,1.0998,1.0174,0.9666,0.9152,0.9005,0.8991,0.8951,0.8925,0.8884,0.8818,0.8818,0.8804,0.8804,0.8804,0.8804,0.8804,0.8804,0.8804,0.8804,0.8784,0.8764,0.8758,0.8738,0.8677,0.8691,0.8751,0.8738,2.3594,2.3252,2.3623,2.3769,2.373,2.332,2.3144,2.3222,2.4211,2.4628,2.4702,2.4617,2.3963,2.3387,2.3135,2.3144,2.3144,2.3144,2.3144,2.3144,2.3144,2.3144,2.3144,2.3144,2.3144,2.3144,2.3144,2.3144,2.3135,2.3066,2.2812,2.2519,2.2305,2.2129,2.1797,2.1338,2.0937,2.0713,2.0488,2.0264,2.0068,1.9863,1.9658,1.9258,1.8896,1.8623,1.8574,1.832,1.8115,1.8115,1.8105,1.8027,1.8027,1.8008,1.8008,1.8008,1.8008,1.7949,1.7822,1.7803,1.791,1.7959,1.791,1.7793,1.7969,1.7998,1.79,1.7793,1.7803,1.7842,1.7832,1.791,1.7754,1.7666,1.7529,1.7441,1.6924,1.626,1.5937,1.5557,1.5439,1.5537,1.542,1.4584,1.3855,1.3485,1.2931,1.2258,1.1221,1.0417,0.9986,0.9573,0.9339,0.9245,0.9198,0.9125,0.8985,0.8891,0.8858,0.8831,0.8804,0.8804,0.8804,0.8804,0.8804,0.8804,0.8804,0.8791,0.8791,0.8798,0.8778,0.8731,0.8724,0.8778,0.8798,2.3301,2.3154,2.333,2.3389,2.3389,2.3213,2.3144,2.3299,2.4286,2.521,2.5797,2.5126,2.4542,2.4039,2.3299,2.3144,2.3144,2.3144,2.3144,2.3144,2.3144,2.3144,2.3144,2.3144,2.3144,2.3144,2.3144,2.3144,2.3144,2.3144,2.3086,2.2881,2.2656,2.2461,2.2119,2.166,2.1221,2.0977,2.0723,2.0449,2.0391,2.0293,2.0107,1.9678,1.958,1.9268,1.9072,1.8896,1.8662,1.8477,1.8408,1.8281,1.8115,1.8076,1.8047,1.8037,1.8037,1.8008,1.8008,1.8008,1.8008,1.8008,1.8008,1.8008,1.8008,1.8008,1.8008,1.7998,1.8008,1.8008,1.7998,1.7988,1.7959,1.7998,1.8008,1.8008,1.7695,1.6953,1.6602,1.6357,1.6009,1.5851,1.5655,1.5281,1.4584,1.3906,1.3347,1.2655,1.1637,1.0753,1.0328,0.9966,0.9673,0.9546,0.9492,0.9299,0.9085,0.8991,0.8925,0.8871,0.8831,0.8804,0.8804,0.8804,0.8804,0.8804,0.8804,0.8804,0.8778,0.8717,0.8751,0.8798,0.8798,0.8804,0.8804,2.3144,2.3144,2.3144,2.3144,2.3144,2.3144,2.3144,2.3299,2.4296,2.5462,2.64,2.563,2.5041,2.4628,2.3637,2.3135,2.3144,2.3144,2.3144,2.3144,2.3144,2.3144,2.3144,2.3144,2.3144,2.3144,2.3144,2.3144,2.3144,2.3144,2.3115,2.3027,2.2871,2.2744,2.2549,2.2041,2.1562,2.1357,2.1025,2.0771,2.0762,2.0586,2.0469,2.0078,1.9932,1.9736,1.9473,1.9277,1.9072,1.8916,1.8809,1.8682,1.8467,1.8281,1.8213,1.8164,1.8096,1.8027,1.8018,1.8008,1.8008,1.8008,1.8008,1.8008,1.8008,1.8008,1.8008,1.8008,1.8008,1.8008,1.8008,1.8008,1.8008,1.8008,1.8008,1.8008,1.8008,1.7559,1.7393,1.7187,1.6766,1.6246,1.6087,1.5817,1.5269,1.4423,1.3485,1.2862,1.2089,1.1316,1.0711,1.0363,0.9973,0.9873,0.9793,0.9573,0.9345,0.9084,0.8997,0.8925,0.8878,0.8838,0.8811,0.8804,0.8804,0.8804,0.8804,0.8804,0.8704,0.8591,0.8677,0.8804,0.8804,0.8804,0.8804,2.3144,2.3144,2.3144,2.3144,2.3144,2.3144,2.3144,2.3299,2.4467,2.563,2.6637,2.6461,2.588,2.4872,2.3887,2.3299,2.3144,2.3144,2.3144,2.3144,2.3144,2.3144,2.3144,2.3144,2.3144,2.3144,2.3135,2.3135,2.3222,2.3144,2.3144,2.3474,2.3634,2.3365,2.3134,2.2685,2.2275,2.1875,2.1516,2.126,2.1143,2.0859,2.0644,2.0518,2.0195,1.998,1.9883,1.9668,1.9473,1.9316,1.9268,1.918,1.9062,1.8769,1.8652,1.8623,1.8291,1.8125,1.8066,1.8047,1.8086,1.8037,1.8008,1.8008,1.8008,1.8008,1.8008,1.8008,1.8008,1.8008,1.8008,1.8008,1.8008,1.8008,1.8008,1.8008,1.8008,1.7998,1.7764,1.7578,1.7129,1.667,1.6523,1.6318,1.5898,1.504,1.3847,1.3053,1.2549,1.2012,1.1424,1.0937,1.0566,1.0289,1.0181,0.9892,0.9606,0.9379,0.9123,0.9004,0.8931,0.8858,0.8831,0.8811,0.8857,0.891,0.8903,0.885,0.8822,0.8768,0.8724,0.8804,0.8804,0.8804,0.8804,2.3144,2.3144,2.3144,2.3144,2.3144,2.3144,2.3144,2.3474,2.5062,2.6543,2.736,2.7522,2.6953,2.588,2.4713,2.379,2.3222,2.3144,2.3144,2.3135,2.3222,2.3144,2.3135,2.3387,2.3222,2.3135,2.3135,2.3714,2.4296,2.3724,2.4307,2.4893,2.5062,2.4882,2.4343,2.3885,2.3515,2.3196,2.2461,2.165,2.1602,2.126,2.0996,2.0977,2.0547,2.0342,2.0303,2.0078,1.9941,1.9746,1.9697,1.9516,1.9434,1.9213,1.9265,1.9154,1.8857,1.8867,1.8857,1.8828,1.8564,1.8281,1.8086,1.8105,1.8027,1.8008,1.8008,1.8027,1.8066,1.8057,1.8008,1.8008,1.8008,1.8008,1.8008,1.8008,1.8008,1.8008,1.79,1.7744,1.7478,1.7002,1.6758,1.666,1.6309,1.573,1.4611,1.4019,1.3476,1.287,1.2326,1.1774,1.129,1.0912,1.0629,1.0395,1.0059,0.9766,0.9409,0.9137,0.901,0.8918,0.9194,0.9413,0.9211,0.9061,0.9458,0.9651,0.9204,0.9001,0.9008,0.8857,0.8804,0.8804,0.8804,2.3144,2.3144,2.3144,2.3144,2.3144,2.3144,2.3309,2.3963,2.5724,2.7128,2.7924,2.8096,2.7763,2.6789,2.5462,2.4532,2.3637,2.3222,2.3551,2.3551,2.3714,2.4049,2.4307,2.4221,2.4553,2.4221,2.4307,2.4808,2.5389,2.4638,2.5147,2.6141,2.6883,2.6614,2.5937,2.5491,2.4794,2.4231,2.3298,2.2569,2.2129,2.1709,2.1387,2.1191,2.0937,2.0732,2.0615,2.0527,2.0449,2.0205,1.9992,1.9905,1.986,1.9871,1.9831,1.9605,1.9346,1.9297,1.9228,1.9219,1.8926,1.8793,1.8556,1.8457,1.8457,1.8545,1.8398,1.833,1.8232,1.8135,1.8086,1.8086,1.8047,1.8047,1.8018,1.8018,1.8008,1.8008,1.7998,1.7919,1.7821,1.7353,1.7021,1.6894,1.6728,1.6075,1.539,1.4911,1.4378,1.3795,1.3122,1.2573,1.2135,1.1789,1.1381,1.1034,1.0648,1.0188,0.982,0.9409,0.9084,0.8985,0.9506,1.0115,1.0431,1.0635,1.0602,1.0442,0.9703,0.9361,0.9316,0.9113,0.8857,0.8804,0.8804,2.3144,2.3144,2.3144,2.3144,2.3222,2.3387,2.3973,2.4872,2.6058,2.7197,2.8096,2.8176,2.8096,2.7671,2.5859,2.5041,2.4798,2.3897,2.4221,2.4628,2.4882,2.5473,2.5891,2.6058,2.5808,2.6141,2.6224,2.5975,2.6483,2.6637,2.6719,2.6883,2.7775,2.7855,2.7659,2.7128,2.6244,2.5524,2.469,2.3919,2.341,2.2682,2.2493,2.2141,2.171,2.1352,2.1085,2.0751,2.0644,2.0498,2.0508,2.0527,2.0594,2.0559,2.0315,1.9948,1.957,1.9512,1.9482,1.9521,1.9576,1.9531,1.9438,1.9409,1.9248,1.9068,1.8887,1.874,1.8643,1.8408,1.8242,1.8184,1.8125,1.8086,1.8037,1.8027,1.8008,1.8008,1.8008,1.7969,1.7959,1.7725,1.748,1.7314,1.7129,1.6626,1.6056,1.5476,1.4976,1.4597,1.3923,1.3312,1.2879,1.2634,1.2219,1.169,1.1269,1.0765,1.0188,0.9806,0.9446,0.9255,0.9624,1.0407,1.1778,1.2049,1.1157,1.0493,0.9953,0.971,0.9614,0.9166,0.8857,0.8804,0.8804,2.3144,2.3144,2.3144,2.3551,2.4382,2.5136,2.5294,2.5126,2.6778,2.7855,2.8176,2.8949,2.8858,2.8004,2.7429,2.6696,2.613,2.5735,2.5808,2.5975,2.6047,2.6213,2.6472,2.673,2.6565,2.6565,2.673,2.7128,2.7706,2.8211,2.8199,2.7936,2.8688,2.9106,2.9106,2.8949,2.8028,2.7163,2.6259,2.5474,2.5117,2.4548,2.4309,2.3983,2.286,2.2412,2.205,2.1035,2.08,2.0605,2.0586,2.0566,2.0615,2.0623,2.0468,2.0468,2.0264,2.0205,2.0205,2.0185,2.0223,2.0203,2.0213,1.9975,1.9734,1.948,1.9307,1.917,1.9092,1.8896,1.8701,1.8594,1.8447,1.833,1.8213,1.8018,1.8008,1.8008,1.8008,1.8008,1.8008,1.7969,1.7754,1.7734,1.751,1.709,1.6626,1.6133,1.5597,1.5131,1.4706,1.4034,1.3726,1.3476,1.281,1.2227,1.1835,1.1345,1.0873,1.0409,1.0048,0.9911,0.9919,1.0625,1.1872,1.176,1.0998,1.045,1.0108,0.9961,0.9814,0.9316,0.8857,0.8857,0.8804,2.3144,2.3135,2.3637,2.4467,2.5546,2.6637,2.6707,2.6438,2.7591,2.8255,2.8858,2.9443,2.9365,2.8846,2.8267,2.7683,2.7116,2.6554,2.6554,2.7116,2.7128,2.7545,2.7626,2.7718,2.7971,2.7799,2.7799,2.8371,2.8779,2.9197,2.9275,2.8937,2.9624,2.9702,2.9702,2.9534,2.9365,2.853,2.7763,2.7058,2.6594,2.6321,2.6071,2.5654,2.4252,2.3562,2.304,2.1726,2.1007,2.0771,2.0732,2.0566,2.0566,2.0634,2.0634,2.0537,2.0518,2.0478,2.0478,2.0508,2.0547,2.0576,2.0566,2.042,2.0198,2.0002,1.9805,1.96,1.9541,1.9443,1.9248,1.9062,1.8848,1.8572,1.834,1.8027,1.8008,1.8008,1.8008,1.8008,1.8008,1.8008,1.7988,1.8008,1.7861,1.7393,1.7012,1.6626,1.6049,1.5496,1.5195,1.4746,1.4569,1.4382,1.3657,1.2931,1.2663,1.2334,1.2027,1.1533,1.0966,1.0638,1.0696,1.1137,1.1849,1.1637,1.1484,1.0762,1.0364,1.0364,1.0218,0.9658,0.9211,0.8962,0.891,2.3144,2.3222,2.4457,2.5473,2.6554,2.7695,2.8176,2.8267,2.8255,2.8858,2.9624,2.9779,2.9714,2.9365,2.8858,2.8426,2.8108,2.7626,2.7706,2.8176,2.8267,2.8609,2.9197,2.9702,2.9209,2.9534,2.9611,2.9197,2.9534,2.9779,2.9779,2.9779,2.9779,2.9779,2.9779,2.9779,2.9611,2.9365,2.8688,2.7947,2.7302,2.6803,2.6515,2.6222,2.5242,2.4352,2.3545,2.2572,2.143,2.1193,2.1293,2.1221,2.0985,2.0664,2.0654,2.0576,2.0576,2.0576,2.0576,2.0576,2.0576,2.0576,2.0566,2.0557,2.0459,2.04,2.0156,2.0029,1.9961,1.9893,1.9736,1.9492,1.9268,1.8896,1.8516,1.833,1.8301,1.8193,1.8008,1.8008,1.8008,1.8008,1.8008,1.8008,1.7969,1.7578,1.7275,1.6982,1.6596,1.5988,1.5517,1.5313,1.5108,1.4874,1.451,1.3906,1.3606,1.3339,1.2951,1.2583,1.2007,1.1688,1.1396,1.1843,1.2245,1.2389,1.2243,1.1351,1.0922,1.1342,1.0981,1.0167,0.9658,0.9361,0.9211,2.3144,2.3309,2.5305,2.6307,2.673,2.8542,2.9365,2.9365,2.9365,2.9443,2.9792,2.9779,2.9779,2.9702,2.9443,2.9184,2.9106,2.8779,2.9118,2.9197,2.9275,2.9275,2.9714,2.9779,2.9779,2.9779,2.9779,2.9779,2.9779,2.9779,2.9779,2.9779,2.9779,2.9779,2.9779,2.9779,2.9779,2.9779,2.9443,2.9106,2.8791,2.887,2.8839,2.8282,2.7463,2.6086,2.5317,2.4555,2.3154,2.224,2.3513,2.3388,2.247,2.1298,2.0673,2.0576,2.0673,2.0576,2.0576,2.0576,2.0576,2.0576,2.0576,2.0576,2.0566,2.0576,2.0527,2.043,2.0352,2.0283,2.0176,1.9922,1.9639,1.917,1.873,1.8672,1.8603,1.8301,1.8037,1.8008,1.8008,1.8008,1.8008,1.7988,1.7949,1.7764,1.75,1.7252,1.6953,1.6493,1.5822,1.5508,1.5371,1.5177,1.4932,1.4688,1.4332,1.3965,1.358,1.3288,1.2989,1.2856,1.2677,1.2511,1.265,1.2721,1.2457,1.1543,1.1384,1.19,1.1443,1.0466,1.0261,1.0072,0.9865,2.3144,2.3387,2.5568,2.6801,2.7452,2.9118,2.9779,2.9702,2.9275,2.9015,2.9197,2.9534,2.9779,2.9779,2.9779,2.9702,2.9779,2.9779,2.9611,2.9702,2.9779,2.9702,2.9779,2.9779,2.9779,2.9779,2.9779,2.9779,2.9779,2.9779,2.9779,2.9779,2.9779,2.9779,2.9779,2.9779,2.9779,2.9779,2.9779,2.9779,2.9779,2.9779,2.9779,2.9384,2.8524,2.7419,2.6769,2.6007,2.4534,2.3416,2.3865,2.4336,2.353,2.2579,2.1818,2.1416,2.1171,2.0576,2.0576,2.0576,2.0576,2.0576,2.0576,2.0576,2.0576,2.0576,2.0576,2.0488,2.0488,2.043,2.042,2.0234,2.0,1.9619,1.9248,1.9043,1.8623,1.8154,1.8018,1.8008,1.8008,1.8008,1.8008,1.8008,1.7978,1.7969,1.7695,1.7646,1.7376,1.6938,1.6305,1.5674,1.5517,1.542,1.5235,1.505,1.4864,1.4569,1.4204,1.4296,1.4214,1.4096,1.3997,1.3475,1.3099,1.2955,1.252,1.1846,1.1891,1.2412,1.1642,1.0618,1.0669,1.0771,1.0618,2.3144,2.3387,2.5568,2.7046,2.8016,2.9275,2.9702,2.9365,2.8518,2.8016,2.8096,2.9028,2.9456,2.9378,2.9779,2.9702,2.9624,2.9714,2.9792,2.9779,2.9779,2.9779,2.9779,2.9779,2.9779,2.9779,2.9779,2.9779,2.9779,2.9779,2.9779,2.9779,2.9779,2.9779,2.9779,2.9779,2.9779,2.9779,2.9779,2.9779,2.9779,2.9779,2.9779,2.9443,2.8924,2.8335,2.7679,2.7092,2.5775,2.4843,2.4432,2.4836,2.4815,2.4105,2.3126,2.2569,2.172,2.1093,2.0673,2.0576,2.0576,2.0576,2.0576,2.0576,2.0576,2.0576,2.0576,2.0576,2.0576,2.0566,2.0557,2.0508,2.0273,2.0019,1.9678,1.9248,1.8643,1.8086,1.8018,1.8008,1.8008,1.8008,1.8008,1.8008,1.8008,1.8008,1.8008,1.8008,1.7822,1.7311,1.6776,1.5988,1.5439,1.542,1.542,1.5294,1.5167,1.5108,1.4874,1.5177,1.5303,1.4907,1.4503,1.4,1.3652,1.3367,1.2976,1.24,1.2627,1.2832,1.199,1.1174,1.1434,1.1484,1.1375,2.3144,2.3299,2.5557,2.6637,2.7139,2.8949,2.9287,2.8505,2.8255,2.7602,2.7371,2.7855,2.8028,2.7302,2.9131,2.9534,2.9118,2.9456,2.9714,2.9779,2.9779,2.9779,2.9779,2.9779,2.9779,2.9779,2.9779,2.9779,2.9779,2.9779,2.9779,2.9779,2.9779,2.9779,2.9779,2.9779,2.9779,2.9779,2.9779,2.9779,2.9779,2.9779,2.9779,2.9611,2.9611,2.8858,2.8469,2.8773,2.7699,2.6577,2.5712,2.6094,2.6135,2.5618,2.4559,2.3565,2.2776,2.1602,2.1083,2.0819,2.0789,2.0576,2.0576,2.0576,2.0576,2.0576,2.0576,2.0576,2.0576,2.0576,2.0566,2.0566,2.04,2.0156,1.9853,1.9238,1.8623,1.8242,1.8008,1.8008,1.8008,1.8008,1.8008,1.8008,1.8008,1.8008,1.8008,1.8008,1.8008,1.7578,1.7213,1.6299,1.5498,1.542,1.542,1.542,1.5352,1.541,1.542,1.542,1.541,1.54,1.4951,1.4405,1.4001,1.3684,1.327,1.2851,1.2812,1.2812,1.2197,1.1774,1.2039,1.2147,1.194]}]]